GFSMW_925_spd_000.txt.gz
Wind_Speed
7 12 14 14 15 13 18 25 34 32 33 30 31 30 27 24 22 20 18 16 13 11 10 9 8 8 9 10 12 13 16 13 23 11 19 6 12 2 35 16 29 20 30
7 7 13 16 16 17 21 28 34 34 34 33 29 30 28 24 23 20 18 15 12 11 10 9 9 8 9 10 12 14 14 9 20 12 5 4 7 13 33 18 24 21 24
12 9 9 17 19 21 26 32 34 33 32 32 30 30 26 25 23 19 17 13 11 10 9 8 8 8 9 10 11 13 15 14 15 16 11 4 3 13 4 24 16 37 21
7 6 8 14 23 23 27 30 31 31 31 32 33 34 27 25 21 18 16 13 10 9 8 8 8 8 8 9 11 13 15 17 17 14 16 14 13 3 6 10 30 17 28
15 14 12 20 26 26 28 31 33 31 32 32 33 30 27 21 20 18 15 11 8 7 7 7 7 8 9 10 12 15 17 17 17 18 21 22 20 13 5 11 10 26 26
10 8 12 24 27 27 29 32 34 32 31 30 28 26 25 23 21 17 14 9 6 5 6 6 7 7 9 11 14 15 17 18 17 18 20 19 10 13 10 9 11 15 22
15 13 15 14 24 28 30 31 31 30 30 28 26 24 23 21 19 17 13 9 5 3 4 5 7 8 10 12 14 16 17 18 19 21 21 20 21 21 19 17 16 11 24
15 15 15 18 23 29 32 30 31 29 29 28 25 23 22 20 17 14 12 8 5 3 3 5 7 9 11 13 15 17 19 20 22 21 22 22 23 21 21 19 18 14 13
18 16 13 19 23 29 31 33 32 30 29 28 26 23 20 18 16 14 10 7 4 2 4 6 8 11 13 15 17 20 21 23 23 24 21 21 23 26 25 24 22 16 13
15 13 13 18 22 30 29 29 30 30 27 26 24 22 19 17 15 12 9 6 3 2 5 7 10 12 15 17 20 22 23 23 24 23 20 24 26 26 25 24 24 22 19
17 15 12 18 24 28 28 27 26 26 25 23 22 21 18 16 13 10 7 4 1 4 6 9 12 15 18 20 22 23 24 23 24 22 22 22 26 23 25 23 24 23 21
16 14 13 18 22 26 28 27 25 24 23 21 20 19 17 15 11 8 5 2 3 6 8 11 14 17 20 22 23 24 22 24 24 25 21 22 23 25 25 24 24 25 28
13 12 11 11 18 22 26 25 24 23 22 20 19 17 15 12 9 6 3 2 5 7 9 12 16 20 21 23 24 21 24 26 25 23 18 21 27 25 25 28 27 23 21
16 12 11 10 16 22 27 25 22 22 21 19 18 16 13 10 7 4 2 4 6 9 12 15 18 20 22 23 21 25 26 26 26 21 19 21 25 26 27 26 21 24 28
14 14 13 11 16 20 25 25 23 22 21 19 16 13 11 8 5 2 2 4 7 10 14 17 20 21 23 21 24 25 26 27 27 25 22 25 25 24 25 26 27 29 28
15 13 13 12 15 20 24 27 24 22 20 18 15 12 9 6 3 1 3 6 9 13 17 19 20 22 23 22 23 25 27 29 28 29 27 27 25 24 26 28 31 32 32
15 15 14 13 18 23 29 27 24 21 19 16 13 10 7 5 2 2 4 8 12 16 18 20 21 23 25 21 23 25 27 26 23 25 27 27 23 27 29 32 32 32 31
11 11 11 16 22 26 26 25 23 20 18 15 12 9 6 3 1 3 6 10 14 17 19 21 22 23 23 21 23 26 24 25 27 25 24 23 26 28 30 33 30 28 26
8 11 18 23 27 28 27 25 22 19 16 13 10 7 4 2 2 5 9 12 16 18 20 21 23 23 22 21 23 24 25 23 25 23 23 24 29 29 33 34 24 24 26
16 20 25 28 29 27 26 24 21 17 14 10 8 5 2 2 4 7 11 14 15 17 20 23 22 21 21 22 23 23 23 22 24 24 24 26 30 33 29 30 27 27 30
20 25 25 24 27 25 24 22 18 14 11 9 6 4 2 3 6 8 12 15 17 20 23 23 22 21 20 22 22 21 23 23 26 24 24 25 29 26 34 31 27 28 32
17 23 23 23 22 21 22 20 16 13 10 8 6 4 3 4 6 10 14 16 18 21 22 22 21 20 21 21 21 22 24 25 24 22 24 26 27 30 29 26 27 28 28
16 20 23 23 18 18 18 18 14 11 9 7 5 3 3 4 9 12 14 18 19 21 22 17 18 19 21 22 24 23 23 25 26 25 23 23 27 25 25 25 26 27 24
15 21 22 19 17 15 14 15 13 9 7 6 3 2 4 7 10 11 14 16 18 20 17 17 18 19 19 22 24 22 26 24 21 24 19 24 23 24 25 24 25 24 24
17 21 20 19 17 16 16 13 10 8 7 5 2 3 5 9 11 14 14 15 16 17 19 20 20 20 20 21 27 27 28 28 29 28 21 21 22 24 24 25 25 25 25
19 18 18 19 17 16 14 11 8 6 5 3 2 4 7 10 12 15 20 19 14 16 17 18 19 21 21 25 25 27 27 29 26 21 19 20 21 21 23 24 26 26 26

GFSMW_925_spd_003.txt.gz
Wind_Speed
4 12 14 16 16 16 19 27 30 32 33 29 27 25 25 23 21 19 18 16 13 11 10 9 8 9 10 11 13 12 14 13 22 10 16 5 7 10 7 20 22 19 21
7 8 14 17 19 19 20 26 33 36 33 29 27 27 27 23 23 21 19 15 12 11 9 9 9 9 9 10 12 13 13 11 19 11 4 4 7 3 25 15 22 16 29
12 9 10 19 20 21 24 29 33 35 32 30 29 29 25 25 23 20 19 14 11 10 8 8 8 8 9 10 11 13 15 11 14 10 9 4 3 9 5 23 9 27 15
8 6 8 14 21 23 26 29 34 34 31 32 31 34 27 25 22 20 18 15 10 8 7 6 7 8 8 9 11 12 14 13 12 8 13 9 7 3 5 6 25 11 27
15 14 14 19 25 25 29 32 34 32 32 31 34 34 31 24 23 21 18 14 10 7 6 5 6 7 7 8 10 12 13 14 13 13 13 10 13 8 3 10 10 26 25
10 8 11 19 23 25 29 33 33 31 32 31 32 32 32 29 26 22 17 13 9 7 5 5 6 6 6 8 10 12 13 14 15 16 15 13 5 9 6 6 12 15 23
12 13 13 13 22 28 32 34 34 31 30 29 29 30 28 29 27 23 18 13 9 5 3 4 4 5 7 9 10 13 15 15 17 16 16 15 13 16 15 15 16 10 27
13 16 15 15 20 26 31 31 35 32 28 29 27 26 25 25 22 19 15 10 7 4 2 2 4 6 7 10 12 15 16 16 17 17 18 14 14 18 19 16 19 14 9
14 16 14 17 21 26 30 35 34 31 29 29 26 25 23 22 21 17 13 10 6 3 1 3 5 7 9 12 14 16 18 19 18 19 18 15 18 19 22 20 19 14 10
15 14 12 16 20 27 29 31 32 32 29 28 26 24 22 19 17 15 12 8 5 2 1 4 6 9 11 13 16 17 18 18 19 20 19 19 18 21 22 23 22 20 18
16 14 12 16 23 27 27 28 29 30 28 27 25 23 20 18 15 12 10 6 3 1 4 7 9 11 14 16 17 18 17 19 21 21 20 19 19 21 25 24 22 21 20
14 14 13 17 21 25 27 28 27 28 26 24 23 21 19 16 13 11 7 4 2 3 5 8 10 13 15 17 18 17 19 21 22 23 22 20 20 21 23 24 24 24 25
13 11 12 12 17 21 26 27 26 26 24 23 22 19 17 14 12 9 6 3 2 4 6 9 12 15 16 17 16 19 20 21 22 22 22 23 21 23 25 27 27 25 20
14 13 11 9 15 21 26 27 25 25 24 22 20 18 15 12 10 7 4 2 3 5 8 11 13 14 16 16 18 19 21 22 23 23 23 23 23 25 27 25 25 23 26
13 13 13 11 15 20 24 25 25 24 23 21 18 16 14 11 9 6 3 2 4 7 10 12 14 15 17 18 18 20 21 22 22 21 21 22 22 23 25 27 27 30 28
13 12 12 12 13 19 23 26 26 24 22 20 18 15 13 10 7 4 2 2 6 9 11 13 15 17 19 17 17 18 22 21 23 26 24 23 22 22 25 29 31 31 33
14 14 14 13 17 22 29 27 26 23 20 19 16 14 11 9 5 3 2 5 8 11 14 16 17 19 19 15 17 19 19 22 22 24 25 25 24 27 32 32 32 31 24
12 11 11 16 23 28 26 26 24 22 20 17 15 12 10 7 4 2 3 6 10 13 15 17 19 19 18 17 18 20 20 21 22 24 25 26 29 31 30 31 22 29 26
9 10 18 24 28 29 28 27 24 21 19 16 13 10 7 5 3 3 5 9 12 14 16 18 18 18 18 18 19 21 22 23 24 27 25 24 26 29 31 29 29 27 28
16 19 25 28 30 28 29 27 23 20 17 14 12 8 6 5 3 5 7 10 12 14 17 18 17 16 18 20 19 20 22 22 24 22 21 21 25 30 29 32 28 24 30
20 25 24 23 28 29 27 25 22 18 15 13 10 8 6 5 4 5 9 11 14 16 17 18 17 16 19 21 19 19 23 24 23 23 22 23 24 31 32 30 25 27 31
18 22 24 24 26 25 26 24 20 16 14 11 10 8 6 4 4 8 11 12 14 16 17 17 17 19 21 21 19 20 22 24 26 23 26 24 29 31 28 26 25 28 27
17 21 25 26 22 22 23 23 17 15 13 11 9 6 4 4 7 9 12 15 14 15 18 15 17 20 21 22 21 21 22 25 25 23 27 25 27 25 24 24 25 25 24
16 22 24 21 19 18 17 19 16 13 11 10 7 5 4 5 7 8 10 12 14 16 16 15 17 20 20 21 24 23 25 20 21 25 21 24 22 23 23 23 23 22 22
17 21 21 21 19 18 18 15 13 11 10 8 5 3 4 7 8 10 10 12 13 14 17 19 20 20 18 20 25 25 25 27 26 27 22 20 21 23 23 24 23 24 24
20 20 21 22 19 18 16 13 10 9 8 6 3 3 5 7 8 11 14 11 11 14 15 16 18 20 20 23 24 25 26 27 25 20 18 19 20 21 22 23 26 26 26

GFSMW_925_spd_006.txt.gz
Wind_Speed
11 14 15 15 14 14 18 24 28 31 34 31 29 26 24 22 20 18 17 17 15 13 10 9 9 10 12 13 14 14 16 17 23 14 17 5 4 9 7 19 12 12 18
6 6 10 17 19 18 22 27 31 34 34 33 29 27 27 23 22 20 19 17 15 13 10 9 10 10 11 12 14 15 14 12 18 13 4 4 6 6 19 15 14 22 18
11 8 9 21 20 20 24 29 32 34 33 31 28 28 25 26 22 21 21 17 14 12 10 9 10 10 11 13 13 13 14 12 14 12 8 4 2 7 5 12 13 16 19
8 7 9 13 24 24 22 27 31 34 33 31 32 34 29 23 24 24 21 17 13 11 10 9 9 10 10 10 11 11 12 11 11 7 11 6 6 3 5 4 23 5 29
13 12 13 22 23 23 25 27 31 33 34 33 31 33 30 26 28 24 21 17 14 11 9 8 8 9 9 9 9 10 11 10 9 9 8 5 9 5 2 7 8 25 23
11 10 11 19 21 22 26 29 33 33 35 33 29 28 31 31 29 25 21 17 13 11 8 7 7 8 7 7 8 9 10 10 11 9 8 7 3 6 4 4 12 14 17
8 9 12 13 21 27 29 31 32 32 34 29 30 29 34 34 31 26 21 17 13 10 7 6 6 5 6 6 7 8 10 11 11 11 12 10 8 9 12 13 14 10 23
7 11 13 13 21 24 29 29 30 33 31 30 29 29 31 31 27 22 17 13 10 9 7 5 4 4 5 6 7 10 11 12 12 11 11 11 10 12 13 14 15 12 6
9 11 10 14 20 26 28 33 33 33 30 29 28 28 28 26 24 18 14 12 10 8 6 4 3 4 5 7 9 11 13 13 12 13 14 14 14 14 14 16 16 11 8
9 9 10 12 17 22 29 32 33 33 29 28 28 27 25 23 21 18 15 12 9 6 4 3 3 4 6 8 10 12 12 13 15 16 17 17 17 16 17 17 18 19 19
12 12 12 17 23 27 28 29 30 31 28 27 26 26 24 22 20 17 15 11 8 5 3 3 3 6 8 10 11 12 13 16 18 18 20 20 20 20 19 19 20 22 23
9 10 10 16 20 24 26 28 29 31 29 27 27 25 24 21 19 16 13 10 7 4 3 3 5 7 10 11 12 13 15 17 20 21 21 23 22 23 23 24 25 26 27
10 10 12 11 15 20 25 27 29 30 29 28 27 25 23 20 18 15 11 8 5 4 3 4 7 10 11 13 13 14 16 17 18 19 21 22 21 22 23 24 26 26 24
10 10 10 11 15 20 25 28 29 30 29 27 26 24 21 18 16 13 10 6 5 3 4 6 8 10 12 14 15 15 15 17 18 21 22 23 22 22 23 23 23 21 25
11 11 11 11 14 20 25 28 29 29 28 26 24 21 19 17 15 11 8 6 4 4 6 7 9 12 15 17 14 15 16 18 20 21 20 20 19 19 20 24 27 28 27
11 11 12 13 12 20 23 27 29 28 26 25 23 20 18 16 13 10 7 5 5 5 7 9 13 15 16 16 14 16 19 17 22 22 23 23 22 22 23 28 28 29 27
12 13 13 12 17 21 29 29 29 27 24 23 21 19 17 14 11 8 6 5 5 7 9 12 14 16 16 14 16 17 19 19 21 23 26 27 26 27 29 32 31 16 25
12 11 11 15 21 28 29 30 28 26 24 22 20 17 15 13 10 7 6 4 6 9 12 15 16 17 17 15 17 19 20 20 21 24 26 26 28 27 29 31 24 29 26
8 9 17 22 27 30 31 31 27 25 23 21 18 15 13 12 9 6 4 5 8 10 13 15 17 17 17 18 19 20 21 22 24 26 22 23 25 27 31 30 28 26 26
16 19 22 25 29 28 32 31 27 25 22 19 17 14 12 10 8 5 4 7 9 12 14 17 17 15 18 20 19 20 21 22 23 20 20 19 24 30 28 31 28 23 30
18 24 23 21 26 31 32 29 26 23 21 19 17 14 11 9 6 4 5 8 11 14 15 17 18 18 20 21 20 19 21 24 23 21 20 23 26 29 32 28 25 26 30
17 21 24 23 27 30 32 27 25 22 20 18 16 13 10 7 4 5 7 10 12 14 16 19 21 21 22 21 20 19 21 24 25 22 24 26 28 30 27 24 24 27 26
17 21 26 25 25 25 29 28 22 21 20 17 14 11 8 5 5 7 9 11 12 14 17 17 18 22 21 23 20 21 23 24 24 24 27 25 27 25 23 23 24 24 23
18 23 24 21 22 22 24 26 22 19 17 15 12 9 6 4 5 7 9 11 13 15 18 17 16 19 21 20 23 24 24 21 23 23 22 24 23 21 22 22 23 22 22
17 21 21 21 23 25 23 20 19 16 16 13 9 6 4 5 6 8 9 12 12 13 17 18 19 19 18 19 24 24 23 26 25 27 22 20 20 22 22 23 23 23 23
20 21 22 26 25 24 21 17 15 12 13 11 7 4 4 6 8 10 12 11 10 13 14 15 16 18 17 21 21 23 24 24 24 19 18 19 20 20 21 23 25 25 25

GFSMW_925_spd_009.txt.gz
Wind_Speed
13 20 22 18 17 17 17 19 25 30 35 35 34 28 27 25 25 25 23 21 19 17 13 11 9 8 9 10 10 8 11 16 20 12 10 5 2 4 5 14 11 8 12
9 11 15 14 17 18 17 19 25 33 36 37 29 32 32 27 26 24 23 22 20 17 14 11 10 9 9 9 11 12 10 10 17 8 2 4 3 4 14 4 8 13 16
18 16 11 18 19 20 22 22 28 30 32 35 33 33 28 28 23 24 24 22 19 17 14 11 10 9 8 10 10 11 11 8 11 14 6 2 2 8 7 13 7 14 12
16 17 12 12 20 25 23 25 29 33 34 36 36 40 31 25 21 30 25 22 18 16 13 11 10 9 8 9 9 9 10 9 8 5 8 2 2 3 5 5 12 6 21
17 18 15 21 23 25 27 27 30 32 36 38 37 37 29 22 32 28 26 23 19 15 13 10 9 8 7 8 8 8 9 9 7 5 4 3 5 3 4 9 11 21 19
13 14 15 15 16 25 26 29 31 31 36 36 35 35 35 31 34 30 27 23 20 16 12 10 8 7 6 6 6 7 7 7 7 4 3 2 3 5 6 6 16 18 15
8 10 11 12 21 27 30 30 30 29 32 32 34 33 31 34 37 34 30 26 21 17 13 9 7 6 5 5 5 6 7 7 6 5 5 5 6 7 10 14 17 11 23
8 10 13 13 21 25 29 29 30 29 32 32 32 30 29 35 36 33 28 23 19 17 13 9 6 4 3 4 5 6 7 7 6 7 8 10 10 10 10 12 17 14 11
9 11 11 15 21 25 28 29 28 28 32 34 31 30 32 36 34 28 24 21 18 16 12 8 5 3 2 4 5 7 7 7 8 10 11 12 13 14 13 13 13 14 11
9 9 11 13 18 23 26 27 28 30 32 29 28 29 31 33 31 26 23 20 17 14 11 7 4 3 3 4 6 7 7 9 10 10 12 12 13 14 14 14 15 16 20
11 10 10 13 15 19 27 28 30 32 31 29 29 31 32 31 28 24 21 18 16 12 9 6 4 2 3 5 7 7 8 10 12 12 12 14 15 14 15 15 17 19 21
7 8 11 16 20 20 21 25 29 32 31 30 31 32 32 30 27 24 20 17 14 11 8 5 3 3 4 6 7 9 10 11 12 14 15 15 15 16 16 15 17 20 23
2 7 11 13 17 19 20 23 30 33 33 34 33 32 31 30 26 23 19 16 13 10 7 4 3 4 6 7 8 10 12 11 13 15 15 16 16 16 16 16 19 21 23
4 6 9 12 16 20 22 24 29 35 36 35 34 32 29 27 25 21 18 15 11 8 6 3 3 5 8 9 11 11 12 13 15 17 19 16 15 16 18 19 21 21 25
7 7 9 11 15 20 21 24 31 35 36 35 33 30 27 25 23 20 16 13 10 7 4 3 4 7 10 11 11 12 14 15 17 18 19 16 18 19 20 22 24 26 25
8 9 11 13 13 20 22 25 29 32 34 33 31 29 26 24 21 18 15 12 9 5 3 4 7 10 12 12 11 13 14 16 15 17 17 20 21 20 20 23 25 25 27
11 12 12 12 16 21 26 26 31 33 32 31 29 27 25 22 19 16 14 10 6 4 4 6 10 11 12 11 13 14 15 15 16 18 20 20 18 22 21 25 26 23 23
11 12 11 15 19 24 27 32 32 31 31 29 27 25 23 21 18 15 11 7 4 4 6 9 10 12 13 12 14 15 14 16 17 20 21 20 21 20 24 28 20 24 25
10 11 17 20 23 26 31 33 29 29 29 27 25 23 21 20 16 12 9 5 4 6 8 9 12 13 14 15 15 16 16 16 17 20 20 19 21 23 29 26 26 27 26
16 20 21 22 25 24 31 31 27 27 25 25 24 21 18 16 13 10 6 5 5 6 9 11 12 12 14 17 16 16 16 17 20 19 17 17 22 28 26 29 26 24 28
18 24 23 21 22 29 33 26 25 23 26 25 23 20 16 14 11 8 5 4 5 8 9 12 13 14 16 16 16 16 17 19 21 20 21 22 25 27 29 27 23 24 28
16 20 24 23 23 29 33 25 25 27 26 24 21 18 14 11 9 6 5 5 7 9 12 15 14 14 18 18 16 16 18 20 21 20 22 24 26 28 26 23 22 24 24
17 20 26 25 23 26 32 29 28 27 24 22 19 15 12 9 7 6 5 6 8 10 11 11 12 16 17 18 17 18 20 21 21 21 25 25 25 24 21 20 22 22 19
18 23 25 22 20 26 28 32 27 24 21 19 16 12 9 7 6 5 6 8 8 9 10 12 14 16 16 15 17 19 20 19 21 22 20 22 21 18 19 19 19 20 20
19 21 22 22 23 29 29 26 23 20 19 16 13 10 7 5 5 6 6 8 8 10 12 12 13 15 16 16 21 21 22 23 23 25 18 18 18 19 20 21 22 21 22
21 22 22 26 26 27 24 20 17 15 16 14 10 8 6 4 4 5 7 8 9 9 10 11 13 15 15 19 19 21 22 23 21 18 16 17 18 19 20 22 24 24 24

GFSMW_925_spd_012.txt.gz
Wind_Speed
17 21 20 17 15 14 13 14 15 18 23 25 24 21 20 23 23 23 24 24 22 19 16 13 10 8 8 7 6 4 6 9 13 8 3 2 1 5 6 6 5 4 6
22 20 23 22 18 18 16 15 18 21 25 25 23 20 22 17 19 26 25 23 22 20 16 14 11 9 9 7 7 7 5 6 10 7 5 3 2 0 6 6 6 6 9
24 23 23 27 21 18 18 19 21 23 25 23 22 22 18 20 21 25 25 23 21 18 16 14 11 10 8 7 6 7 7 6 6 8 5 2 2 11 3 4 8 8 12
23 24 23 25 25 22 19 19 22 25 26 27 25 30 26 26 19 30 27 24 19 15 15 14 12 10 8 7 6 6 5 4 5 2 4 2 3 3 5 4 10 10 17
18 20 23 28 26 23 21 22 24 26 28 28 26 26 24 20 26 32 29 24 16 15 15 13 11 10 8 7 6 5 4 3 3 3 4 4 6 6 5 9 9 19 19
13 16 20 23 24 20 22 24 27 27 27 29 27 26 29 29 31 28 27 21 16 14 13 12 10 9 8 7 5 4 2 1 1 3 3 5 5 7 8 9 14 18 21
12 12 14 14 19 23 26 27 29 28 29 29 28 27 28 36 41 33 27 22 18 15 14 12 10 8 7 6 5 3 1 1 3 4 5 6 8 11 13 16 17 13 23
11 13 13 14 19 24 27 29 30 28 30 29 27 28 32 31 34 28 24 20 17 15 14 11 9 8 6 5 3 2 1 3 4 5 6 8 10 11 13 16 17 14 13
12 12 11 11 18 24 28 29 30 28 29 28 25 26 31 28 28 24 22 19 17 16 14 12 9 7 5 4 2 1 3 3 4 6 8 9 11 13 14 16 17 18 14
14 14 10 10 17 21 25 25 26 28 28 26 26 34 27 24 31 25 21 19 17 16 14 11 9 7 4 2 1 2 3 4 5 7 9 11 12 14 15 16 18 19 22
12 14 8 9 14 20 23 25 25 26 26 25 30 29 27 29 28 22 20 18 17 15 13 10 8 5 3 1 2 3 4 6 7 8 9 12 13 15 16 17 18 19 21
10 12 6 7 14 20 24 25 25 25 25 29 30 28 27 27 23 21 18 17 16 13 11 9 7 4 2 1 2 4 6 7 9 10 11 13 14 16 16 16 18 19 21
9 7 3 8 11 19 24 23 23 23 26 33 30 27 26 24 22 20 18 16 14 12 10 7 5 3 1 2 4 6 8 9 10 11 13 15 15 16 16 17 19 21 23
7 4 4 8 12 18 21 22 22 27 31 28 27 27 25 23 21 19 17 15 12 10 8 6 4 1 2 3 5 7 9 11 12 13 14 16 15 16 18 20 22 23 25
11 5 6 8 12 17 19 22 25 24 27 26 26 25 24 22 21 19 16 14 11 8 6 4 2 1 3 4 7 8 11 13 14 15 16 16 16 18 19 21 23 26 26
11 7 8 11 13 17 21 25 25 25 25 26 25 24 24 22 19 18 16 13 10 7 4 2 0 3 4 8 7 9 12 14 15 16 17 18 19 18 20 22 23 26 28
7 10 11 12 15 18 24 24 25 24 23 25 24 24 22 21 18 16 14 11 8 5 3 0 2 4 5 7 9 11 13 14 15 16 18 19 19 20 22 22 26 27 25
9 11 12 13 19 22 24 27 25 24 25 24 23 21 21 19 17 14 12 9 6 3 1 2 3 5 6 9 11 12 13 14 15 16 19 20 20 20 22 27 26 21 27
11 12 18 20 22 24 25 26 24 24 23 22 21 20 19 18 15 13 10 7 4 1 1 2 5 6 7 9 11 13 14 14 16 17 19 19 20 20 26 26 26 29 27
14 18 20 23 24 22 24 26 24 23 22 20 20 18 16 15 13 11 8 5 2 0 2 4 5 6 8 10 12 14 14 16 18 19 19 19 19 24 25 27 28 27 26
18 21 21 21 22 22 23 24 22 21 20 21 19 17 15 14 11 9 6 3 1 2 4 5 6 6 9 10 13 13 14 16 20 21 21 21 22 25 27 26 25 23 28
17 20 22 21 20 21 24 23 22 20 20 20 18 16 13 11 9 7 5 3 2 3 5 7 8 8 10 11 13 14 15 17 20 21 21 23 25 27 26 23 20 23 24
17 19 25 25 20 19 22 25 20 20 20 19 17 14 12 9 7 5 4 2 3 4 6 8 11 12 13 13 13 15 17 18 19 20 23 26 24 24 20 18 21 19 17
17 22 23 23 22 20 20 24 21 19 19 18 15 12 10 8 6 5 3 3 4 5 7 10 12 14 14 14 14 19 19 19 20 22 24 22 21 18 19 18 17 17 18
19 20 21 22 22 21 21 18 18 17 17 15 13 10 8 6 5 3 2 2 3 5 8 10 12 14 15 14 19 20 21 21 23 25 21 18 17 17 17 18 18 20 20
21 21 22 23 21 21 19 16 15 15 15 14 10 8 6 5 3 2 2 4 4 6 7 9 10 14 14 16 18 19 19 22 21 19 16 16 16 17 18 20 22 22 22

GFSMW_925_spd_015.txt.gz
Wind_Speed
20 22 21 25 29 33 24 23 23 23 24 24 23 27 23 20 17 17 21 20 21 20 16 13 11 9 8 6 4 4 5 7 12 6 6 3 2 4 6 5 6 5 6
22 21 27 26 27 26 27 25 24 24 25 25 25 25 21 17 17 19 24 24 24 21 17 14 13 10 10 7 6 6 3 5 9 6 6 2 3 3 3 9 7 8 6
23 22 22 29 28 30 27 26 24 23 26 24 24 22 21 22 17 18 23 26 25 21 17 14 13 12 9 8 6 5 5 4 5 6 4 2 2 8 3 3 7 8 10
19 19 22 23 29 30 25 25 24 25 26 28 29 31 30 25 21 22 27 27 25 21 17 14 14 11 9 8 6 4 4 3 3 1 3 1 3 2 4 2 10 13 12
15 17 18 25 29 28 28 23 24 24 26 29 30 29 24 21 23 23 31 28 24 20 16 14 14 12 9 8 6 5 4 3 2 2 2 3 5 8 6 8 8 17 17
13 12 17 22 24 28 22 24 25 26 28 29 28 29 26 27 27 28 30 28 24 18 15 14 13 11 9 8 6 4 3 1 1 2 2 3 3 6 7 7 13 16 19
13 15 14 14 18 21 24 23 26 27 29 29 28 30 28 29 33 35 33 29 24 20 17 15 13 10 9 7 5 4 2 1 3 4 4 5 7 9 12 14 14 12 19
8 12 16 14 17 19 20 25 28 28 29 30 29 26 26 26 28 30 32 27 24 19 18 15 12 11 9 6 4 2 1 3 4 5 6 7 9 10 12 13 14 11 12
7 11 14 16 17 20 23 27 29 29 29 28 25 26 25 26 30 29 26 23 20 19 17 15 12 10 8 5 3 2 3 4 5 6 8 9 10 11 13 14 15 15 10
12 12 13 13 15 18 24 28 29 27 28 27 25 26 28 27 28 29 25 24 20 19 17 14 11 9 6 4 2 3 4 5 7 7 9 10 11 13 14 16 16 18 19
9 12 13 15 13 16 22 26 27 27 27 27 25 28 30 29 30 27 28 25 21 19 17 14 11 8 5 3 2 4 5 7 8 9 10 11 12 14 15 16 17 18 19
8 11 12 10 10 14 20 24 24 26 26 25 27 29 33 30 29 27 26 23 21 17 16 13 10 7 4 1 3 5 7 9 10 11 11 13 14 15 16 16 17 19 21
10 9 9 6 8 14 20 22 23 25 24 25 30 30 31 30 28 26 26 22 20 17 14 12 9 6 3 1 4 6 9 10 12 12 13 14 15 17 16 17 19 20 22
12 6 8 6 8 13 17 22 22 23 25 28 31 31 30 28 27 25 23 20 18 16 13 10 8 5 2 1 4 7 10 12 13 14 15 15 16 17 17 19 21 22 23
11 12 4 6 8 11 17 20 21 23 27 31 30 26 30 27 25 24 22 19 16 14 12 9 6 4 1 2 6 8 11 13 15 15 16 16 16 16 19 20 20 23 23
14 13 6 8 8 14 17 19 23 26 29 30 30 28 28 26 25 23 21 17 14 12 10 7 4 2 0 6 6 8 11 14 16 16 16 17 17 17 18 21 21 23 26
15 6 9 10 12 15 19 21 25 30 29 31 27 26 28 27 24 22 19 15 11 10 8 5 2 0 2 8 7 10 12 14 15 15 16 17 17 19 19 20 22 25 28
6 9 10 13 17 21 24 26 27 26 27 25 26 24 28 25 22 19 16 12 9 8 5 3 1 2 4 10 9 11 13 14 15 15 16 17 18 19 20 22 25 24 28
9 12 17 20 22 24 26 31 31 26 24 25 20 23 24 22 19 17 14 10 8 6 3 1 2 4 5 8 9 12 13 14 16 16 17 18 18 19 22 25 25 26 26
16 16 21 23 24 24 26 28 27 26 22 23 21 22 20 19 17 15 12 9 7 4 2 2 3 5 6 7 9 12 12 15 16 17 18 18 19 20 24 25 26 26 26
19 21 21 21 21 24 24 24 25 24 23 25 23 21 19 18 15 13 10 7 5 3 1 3 5 6 7 9 10 11 12 14 17 18 18 20 21 24 27 27 26 25 26
16 21 21 22 22 23 25 25 24 23 23 24 23 20 17 14 12 10 8 6 3 1 3 5 6 6 7 9 10 11 13 16 18 18 19 21 25 28 26 25 22 23 25
15 18 20 22 21 20 23 27 23 23 23 23 20 17 15 13 10 8 6 3 1 2 4 6 7 9 9 10 11 12 16 17 19 19 22 26 27 24 22 20 22 20 19
15 19 20 21 21 20 22 26 24 22 21 20 16 14 12 10 7 6 4 1 2 3 5 7 9 11 12 11 11 15 18 19 19 21 23 25 22 19 19 19 18 18 19
17 18 19 21 22 23 23 21 20 19 19 17 14 12 9 6 5 3 1 1 1 3 5 7 9 12 13 13 17 19 20 21 21 26 22 19 17 18 18 18 18 19 20
18 20 21 23 22 22 21 18 16 16 16 15 11 8 7 5 3 0 2 5 5 7 7 7 8 11 13 15 18 18 20 21 23 19 16 15 16 17 18 19 21 22 23

GFSMW_925_spd_018.txt.gz
Wind_Speed
13 20 19 22 21 32 29 29 28 30 28 31 30 28 30 25 25 26 30 31 26 24 22 19 16 13 11 9 6 6 6 9 10 5 4 4 2 5 5 7 6 3 3
10 10 22 21 27 24 28 25 26 35 34 27 30 27 30 28 30 26 24 26 27 28 25 22 19 16 14 10 8 7 5 6 11 5 2 3 1 2 3 6 3 4 7
12 11 11 23 24 30 28 22 25 26 34 31 29 27 28 27 24 24 27 26 29 28 24 22 20 18 14 12 9 7 7 5 5 8 4 2 1 5 1 2 2 7 6
11 12 13 17 20 28 35 30 25 28 30 32 36 40 30 26 22 31 30 29 29 27 24 22 21 18 15 12 10 7 7 6 4 3 3 2 1 1 4 2 9 9 13
8 8 10 19 28 27 30 38 33 29 31 35 39 37 27 22 26 28 29 31 29 27 24 23 21 18 15 12 9 8 6 5 4 2 1 0 2 6 5 4 4 19 23
6 4 5 10 13 28 32 28 36 29 30 35 34 35 32 29 31 34 33 31 31 27 24 22 20 18 16 12 10 7 5 4 3 1 0 1 1 2 2 2 5 12 17
4 4 6 7 14 18 25 27 31 31 31 34 33 35 34 37 38 39 35 34 33 29 26 23 20 18 16 12 9 6 4 2 2 2 3 3 5 7 9 12 11 5 16
6 3 4 6 16 19 21 19 29 27 30 33 30 36 32 36 36 36 33 32 32 31 27 23 20 18 15 12 9 6 4 3 1 3 5 6 7 9 10 12 12 7 6
4 2 3 6 19 22 23 21 29 28 31 32 30 29 35 36 35 33 31 30 31 31 27 24 21 17 14 11 8 5 3 2 3 5 5 7 8 9 11 13 13 11 6
6 1 3 6 20 26 19 26 30 30 29 30 28 32 34 35 35 33 31 31 32 30 29 25 20 17 13 10 7 5 3 3 3 5 7 9 10 12 14 15 15 16 18
1 3 5 8 21 27 13 24 28 28 30 30 31 33 33 32 32 31 32 34 32 31 27 24 20 16 13 9 6 4 3 4 5 7 9 10 12 14 14 15 18 19 20
2 3 3 4 17 18 12 20 25 26 31 34 32 30 31 32 31 33 34 33 31 28 25 21 18 15 12 7 5 4 4 4 7 9 10 12 12 13 15 16 17 17 20
5 1 3 5 9 14 12 17 19 27 31 33 31 30 31 31 31 32 33 31 29 26 22 20 17 12 9 5 3 4 5 6 8 9 10 13 15 16 17 17 15 19 22
4 4 3 4 10 10 1 19 24 30 31 33 30 30 28 29 32 34 32 33 29 26 22 19 15 10 6 3 3 3 5 7 9 11 12 13 15 16 15 16 21 19 22
9 7 1 3 2 14 20 19 25 26 31 28 28 28 29 30 33 34 33 29 27 24 20 16 12 8 6 4 5 6 7 8 10 12 13 13 12 13 17 18 18 21 20
7 9 8 3 8 14 17 22 23 24 26 27 28 30 30 30 33 33 32 28 25 20 18 14 11 7 4 2 5 5 9 10 11 14 14 16 17 16 15 17 20 20 23
10 8 5 9 14 17 19 20 23 24 24 29 28 29 30 30 16 31 29 24 23 19 15 11 8 5 1 4 6 6 10 11 11 14 16 16 15 17 18 19 19 22 22
10 4 12 14 20 20 25 29 29 27 27 28 29 28 34 23 24 25 25 22 19 16 12 9 5 3 2 5 7 8 10 11 12 14 16 15 17 18 19 22 23 21 28
13 14 19 21 22 24 27 30 28 27 27 25 26 26 20 22 25 24 23 20 16 12 9 6 2 1 1 4 6 9 12 12 13 14 15 16 18 17 20 22 27 25 23
17 19 22 23 24 21 24 28 27 29 23 20 20 28 27 22 25 23 20 16 13 10 6 3 1 2 3 2 6 8 11 13 14 16 16 16 19 20 21 25 25 22 24
19 22 23 22 21 21 22 22 20 22 31 26 20 24 25 22 20 20 16 12 10 8 4 1 1 3 3 5 6 8 12 13 16 17 18 19 19 21 25 25 24 24 25
16 19 21 21 21 24 21 20 23 27 28 28 26 26 22 20 19 17 13 10 7 5 3 2 3 3 4 6 9 10 11 14 18 19 20 21 22 25 25 22 21 22 23
15 19 21 22 22 24 21 22 26 28 26 26 26 25 22 19 15 13 11 9 6 4 4 3 4 6 9 9 9 9 12 16 18 19 21 24 24 24 20 19 20 19 21
16 21 21 21 21 23 22 22 23 23 26 27 24 21 19 16 13 11 9 7 5 4 5 7 8 10 11 10 11 16 16 17 19 20 23 22 22 17 17 19 18 20 21
17 19 20 21 22 23 23 22 23 26 27 24 21 18 15 13 11 9 6 6 4 6 6 6 9 10 12 13 14 16 18 20 20 23 22 22 18 21 19 18 19 20 21
18 19 21 23 22 22 23 21 21 23 24 22 17 14 13 10 9 7 6 5 5 7 8 7 8 10 11 13 15 17 18 19 20 19 16 17 19 18 19 19 21 22 23

GFSMW_925_spd_021.txt.gz
Wind_Speed
9 17 20 20 34 33 30 30 34 40 42 36 34 34 31 31 32 31 30 32 29 27 25 25 22 18 16 14 10 8 6 6 5 2 4 4 4 5 5 5 6 3 1
9 10 22 21 22 22 28 28 25 39 42 41 39 35 35 34 34 32 31 33 30 29 28 28 24 22 19 15 13 10 7 5 9 3 2 2 1 1 3 4 5 3 2
11 10 11 25 27 25 26 28 20 35 39 40 36 28 32 27 29 33 33 35 31 30 31 29 26 24 20 18 14 10 7 6 6 8 3 2 1 3 1 3 5 2 1
14 12 9 14 25 29 23 31 30 23 38 41 39 40 34 28 28 40 39 35 30 32 31 29 27 24 22 19 15 12 9 8 7 4 5 4 2 2 3 2 4 3 7
9 10 11 20 29 31 31 25 32 29 32 38 43 43 30 29 33 37 37 34 32 32 31 29 27 25 22 20 17 14 11 9 8 6 3 2 2 3 2 3 5 12 21
7 5 5 3 4 7 11 20 27 35 32 40 42 42 39 36 34 34 35 36 35 34 32 30 28 26 23 20 18 14 10 9 7 6 4 3 2 2 2 2 4 9 13
4 5 5 1 3 8 14 17 21 30 30 40 43 42 44 43 41 40 35 35 36 36 34 31 30 27 23 20 17 14 11 8 6 5 4 4 4 4 5 6 6 4 9
6 8 7 4 2 8 16 23 23 29 30 37 41 42 41 41 38 39 37 34 35 36 36 34 30 26 23 19 15 13 10 7 6 4 3 4 5 5 6 6 5 3 4
9 9 6 4 0 4 13 20 26 30 33 36 38 38 39 38 38 37 36 34 33 37 37 33 29 25 21 17 14 12 10 6 4 3 3 5 5 5 6 6 7 4 3
3 2 5 3 3 10 16 21 24 28 33 35 32 37 38 37 36 37 33 31 33 34 36 31 27 22 20 17 13 11 8 5 4 3 5 7 8 9 10 11 10 10 12
6 5 4 4 2 10 16 22 22 27 31 26 31 37 36 35 35 37 34 31 32 36 35 30 26 24 20 16 12 9 7 4 4 4 6 8 8 11 11 9 11 13 15
5 8 8 6 3 9 18 21 24 25 21 27 35 35 34 34 33 32 31 33 36 34 32 28 26 22 18 14 11 9 6 4 4 5 7 9 10 10 11 14 14 13 13
4 7 7 6 6 10 16 19 15 23 29 34 35 30 32 32 29 32 33 35 35 34 30 29 25 21 17 13 10 7 4 3 4 5 7 9 10 13 14 13 13 14 19
6 6 7 7 9 7 5 7 19 27 32 31 31 31 27 28 32 32 33 36 36 35 32 27 24 19 15 12 9 5 4 3 4 6 7 9 10 11 11 12 16 18 19
7 9 5 8 3 7 14 13 14 18 27 29 29 29 27 28 29 32 33 34 34 33 30 26 22 17 13 9 6 3 1 3 6 7 8 8 9 12 14 16 15 17 20
6 6 7 2 4 13 13 16 18 16 25 30 30 31 32 32 32 31 26 28 27 29 25 21 18 15 10 7 3 1 3 5 7 9 10 11 13 15 12 15 17 18 20
7 7 2 5 11 15 16 15 26 21 26 32 32 33 31 31 30 32 28 25 23 18 17 15 13 11 8 5 3 4 6 7 8 10 12 13 14 12 16 15 17 19 19
6 7 7 12 18 22 21 20 28 22 30 30 30 32 34 32 31 29 25 20 22 16 14 11 9 9 8 5 3 4 7 8 8 9 10 13 14 14 14 19 20 19 21
10 11 15 18 20 22 20 25 24 27 29 27 29 28 31 31 29 26 24 20 20 16 13 9 8 8 7 4 4 6 9 11 10 10 12 13 15 17 18 20 23 25 21
13 15 18 20 22 20 22 24 22 23 21 23 24 29 25 24 28 25 23 19 17 14 11 8 6 6 5 3 4 5 9 12 11 13 14 14 15 18 18 21 23 20 25
14 15 17 18 17 18 21 22 20 20 23 27 27 24 21 23 23 22 19 17 14 12 9 8 5 3 4 3 3 6 8 10 12 15 17 17 17 19 22 22 21 21 24
13 14 16 16 15 18 24 20 19 21 28 25 23 24 22 22 21 20 16 14 12 10 8 6 6 5 4 4 6 7 7 10 15 17 18 19 20 22 22 19 19 20 20
12 13 17 19 17 17 18 23 20 23 24 23 25 23 20 19 16 16 15 13 10 9 7 4 4 3 4 5 4 7 11 12 15 16 18 18 19 19 16 17 19 17 21
13 15 16 18 16 17 18 21 24 24 26 26 25 22 21 18 15 13 11 10 8 6 4 3 3 5 6 8 9 12 14 15 16 19 13 16 16 15 18 17 18 19 19
14 15 16 17 17 19 19 21 23 24 25 23 19 17 15 14 13 11 8 7 6 4 3 3 5 7 9 10 11 13 15 17 17 17 17 17 18 19 17 17 18 20 20
16 17 17 19 19 20 21 20 22 23 25 21 18 15 14 12 10 8 7 4 4 3 4 5 5 7 8 10 11 14 16 16 13 13 15 16 17 18 17 17 20 22 22

GFSMW_925_spd_024.txt.gz
Wind_Speed
14 21 23 21 24 30 38 31 29 40 39 37 34 35 36 34 33 35 36 31 32 33 32 29 25 22 20 18 15 13 9 5 6 8 7 5 6 8 8 8 8 8 5
8 9 21 24 21 21 20 30 29 38 43 40 38 29 36 39 39 35 35 33 32 36 34 30 27 24 22 20 18 15 11 5 4 3 4 1 1 5 6 6 9 7 6
16 12 11 22 25 23 21 20 20 31 41 39 38 34 29 27 31 33 36 35 35 37 35 32 30 27 25 24 20 16 12 9 5 4 3 2 3 0 3 6 7 7 6
9 12 9 16 26 29 27 25 23 21 36 39 37 37 33 23 34 40 40 37 38 39 37 35 32 30 27 24 21 17 14 11 9 5 4 3 3 2 1 4 8 6 5
9 9 9 19 29 28 28 26 25 21 28 40 40 42 32 36 36 41 38 39 40 40 38 35 32 30 28 24 22 20 16 12 11 7 5 3 3 3 3 2 4 6 11
8 8 13 10 9 5 4 7 14 22 22 38 41 42 32 36 35 37 37 37 39 37 37 36 33 31 29 27 22 18 15 13 11 9 7 6 3 3 3 1 3 6 10
5 6 8 8 8 7 4 1 4 8 13 26 38 40 39 44 45 44 40 39 38 38 39 38 35 33 31 27 23 19 16 14 11 9 7 5 4 4 4 3 3 3 4
8 9 9 9 14 13 9 5 7 13 14 16 34 38 42 43 43 44 42 41 39 41 40 37 34 33 29 26 22 18 15 12 10 9 6 5 5 5 5 4 3 3 3
9 12 10 12 14 12 9 5 8 11 17 18 27 37 41 40 41 41 39 36 35 36 38 37 35 32 28 25 22 19 16 11 9 8 6 5 5 5 5 6 6 5 2
10 9 7 10 11 8 6 9 11 15 16 18 29 35 40 42 41 39 37 36 35 35 39 39 34 32 28 23 21 17 14 12 9 7 6 6 5 6 7 8 9 9 9
9 9 7 14 22 15 10 11 13 15 15 15 30 34 36 39 38 36 35 36 34 36 39 38 35 33 27 24 20 15 13 11 9 6 6 6 7 8 10 10 10 12 13
13 8 10 10 16 18 17 17 18 18 16 19 30 34 35 36 33 35 35 37 36 35 37 38 36 31 28 24 17 16 14 10 9 6 6 6 8 10 11 11 13 14 14
13 8 10 9 11 16 19 18 20 22 17 22 28 28 31 33 33 32 34 33 35 35 36 37 35 31 26 21 19 16 12 9 6 5 6 6 9 11 12 13 14 15 16
8 7 5 10 13 14 14 13 11 7 12 21 27 29 27 26 29 29 30 33 33 34 34 32 27 22 19 17 13 12 10 7 5 4 6 7 9 10 10 10 13 16 16
7 6 7 4 3 5 8 10 8 7 12 16 17 25 27 28 31 30 28 28 26 27 25 24 24 21 18 13 10 8 6 4 3 5 5 6 7 9 11 14 13 13 17
11 9 6 2 4 5 6 9 11 13 18 20 22 25 29 30 31 31 33 32 30 28 28 24 19 16 14 10 8 5 3 2 2 4 4 6 8 9 11 12 14 15 19
10 10 5 6 7 7 9 12 16 17 19 25 23 24 30 32 32 34 33 31 30 26 21 18 17 13 11 8 4 2 1 1 2 4 5 6 6 8 11 12 13 16 17
11 9 7 10 11 15 17 20 21 21 19 22 20 25 31 33 35 33 32 30 26 25 22 16 13 10 7 6 5 1 2 3 4 4 6 8 10 11 13 16 18 17 19
7 8 10 12 14 14 16 23 23 20 21 22 21 25 35 34 33 30 31 27 25 20 16 14 12 12 10 5 2 1 3 6 5 5 8 10 12 12 15 17 19 21 21
7 8 10 11 13 11 14 19 18 18 17 16 16 22 28 29 29 28 26 21 19 18 16 13 9 7 7 5 2 4 5 7 8 9 11 12 12 15 15 19 19 18 21
8 10 14 12 12 13 18 18 19 18 19 22 23 25 29 29 27 24 22 19 19 16 13 10 8 5 4 4 2 4 7 6 8 14 17 16 14 15 18 18 19 18 20
8 10 14 13 12 12 19 18 18 16 23 25 25 25 24 23 23 22 18 16 16 14 11 10 8 6 4 0 3 4 6 9 13 15 16 15 15 17 18 16 15 18 18
10 10 11 13 15 16 17 21 20 20 22 23 22 21 20 20 18 17 14 14 12 10 8 6 5 2 2 4 5 7 8 10 13 14 15 15 15 15 14 16 15 14 17
10 12 12 11 14 16 18 20 18 18 22 26 24 22 21 18 15 13 11 11 10 8 6 4 1 3 5 6 6 9 12 13 14 16 9 9 12 12 14 15 15 15 16
11 11 13 12 14 16 16 17 19 21 25 24 21 18 17 16 15 12 10 9 7 5 4 3 3 3 5 7 8 10 14 16 15 9 14 16 15 18 18 18 18 19 20
13 12 14 14 14 16 16 16 18 19 22 20 17 15 15 13 11 10 10 7 5 4 4 2 3 6 6 8 9 12 13 11 12 11 12 13 15 17 17 16 20 22 22

GFSMW_925_spd_027.txt.gz
Wind_Speed
15 17 24 23 20 26 27 24 27 33 37 34 30 31 36 39 39 36 34 34 34 34 32 29 29 29 27 23 18 15 12 8 9 9 6 4 5 9 10 11 9 9 7
9 9 19 21 20 21 18 20 25 30 38 37 40 31 37 36 43 41 37 36 36 37 36 34 29 30 27 23 21 19 15 6 12 5 5 1 2 7 8 10 10 11 9
14 13 10 24 31 25 25 24 21 21 35 40 32 27 29 28 34 34 36 37 38 37 39 38 34 33 32 28 25 22 18 12 9 10 5 2 4 2 5 7 10 11 10
9 10 9 13 21 27 27 25 22 21 24 35 33 35 34 25 33 42 42 39 38 38 39 40 39 36 34 30 27 25 22 17 14 9 7 4 4 3 1 5 8 10 11
8 10 9 17 21 19 21 22 20 19 19 28 37 38 32 29 36 40 43 40 40 39 39 43 42 40 37 32 28 27 23 20 17 12 9 6 4 4 3 2 3 11 13
10 9 16 20 19 12 11 13 15 17 19 22 33 37 33 27 28 36 38 42 40 39 40 43 43 41 38 32 30 27 24 20 16 14 12 9 5 5 4 2 3 5 7
9 10 13 13 20 12 8 9 8 8 9 17 28 35 36 33 38 40 38 37 41 40 43 43 40 39 37 33 29 28 25 21 18 15 12 9 7 7 7 4 3 3 4
7 8 8 14 22 22 21 13 14 14 13 12 18 29 34 36 38 39 40 41 43 47 46 42 41 40 36 32 29 24 22 20 17 14 11 10 7 7 8 6 6 1 2
9 9 8 12 14 16 18 17 17 13 11 11 14 22 30 35 36 38 41 43 41 41 44 43 40 37 35 32 30 25 21 18 15 12 10 8 7 8 8 8 8 6 2
9 10 7 11 18 17 18 20 21 20 18 17 17 21 28 35 36 34 35 36 38 38 39 41 38 35 34 31 29 25 19 14 13 12 10 10 8 9 9 8 8 10 9
12 13 8 11 16 21 18 16 20 21 20 20 20 23 27 31 34 34 34 34 34 36 36 37 37 37 36 32 28 24 21 15 10 10 8 7 8 10 11 9 9 10 11
19 16 8 13 8 13 15 12 20 22 21 20 18 20 23 26 29 29 31 33 33 33 34 36 34 33 32 28 25 21 16 15 11 7 7 11 8 10 12 11 11 12 13
16 7 7 7 8 8 13 18 17 19 20 17 14 20 21 24 26 26 27 28 29 29 28 29 29 30 29 25 20 15 14 10 8 9 11 10 9 13 12 12 12 12 13
11 8 6 7 14 9 9 15 19 15 14 8 9 14 16 19 21 22 21 23 25 26 27 28 30 29 25 20 17 14 13 8 7 6 6 8 11 12 11 9 9 11 14
14 12 9 5 8 8 6 6 7 7 3 1 5 8 13 18 21 23 25 25 29 31 32 32 30 28 24 19 15 12 9 7 4 6 6 9 9 7 8 10 11 10 12
14 13 9 5 7 9 7 7 9 10 10 16 17 20 23 26 27 30 33 31 30 31 31 30 27 22 18 14 10 7 6 3 5 6 6 7 7 7 9 9 9 12 17
12 12 9 7 9 8 6 8 13 14 20 21 20 20 24 26 26 28 32 33 33 33 31 28 25 23 19 14 9 6 1 4 6 4 4 4 6 8 9 9 10 13 16
9 10 9 11 11 9 8 9 13 16 18 19 24 23 23 27 29 31 29 32 34 33 31 26 21 18 16 11 4 4 4 3 3 2 3 6 8 9 10 13 15 14 15
7 9 11 10 9 8 8 13 15 15 16 17 20 21 25 24 24 28 27 27 32 30 25 20 17 14 12 11 10 4 2 1 3 3 5 7 10 11 13 15 16 16 19
8 8 8 8 9 10 11 15 16 17 17 17 17 17 19 22 23 26 26 26 26 22 19 16 12 11 12 9 6 1 4 5 5 5 8 11 10 12 12 16 18 17 22
7 10 10 11 10 10 12 16 18 18 17 19 21 21 22 25 25 24 23 23 20 19 16 14 12 9 8 6 2 2 4 5 6 10 13 13 10 12 14 16 18 18 19
8 8 8 9 8 9 12 13 15 14 18 20 24 25 23 20 21 21 19 18 17 17 15 13 11 8 6 4 2 1 4 6 9 11 12 13 14 14 16 15 16 17 17
6 7 8 9 9 10 13 15 15 19 19 20 19 20 19 19 18 19 18 17 14 13 11 9 7 4 1 2 3 3 4 7 10 13 14 14 12 14 15 16 15 14 15
8 8 9 9 11 12 13 15 15 18 21 22 22 21 21 19 17 15 13 13 12 11 9 7 4 1 0 2 2 6 10 14 15 16 10 8 12 12 14 15 14 14 15
9 10 11 12 12 13 12 13 15 18 21 20 18 18 18 17 17 15 12 11 10 6 6 5 3 3 5 7 8 10 12 14 11 10 12 15 15 17 18 18 17 16 18
12 12 10 12 11 13 13 13 16 18 20 18 16 15 15 14 13 13 13 10 7 6 5 5 6 7 5 6 7 9 10 10 11 11 12 13 14 17 18 18 20 21 20

GFSMW_925_spd_030.txt.gz
Wind_Speed
10 19 23 24 22 21 21 25 30 32 34 28 27 28 31 36 39 39 37 34 33 34 32 29 28 29 29 27 25 20 15 12 13 12 6 5 7 10 12 12 11 10 9
7 8 16 21 23 24 23 22 27 31 34 34 33 26 30 30 41 40 39 39 36 36 35 34 33 32 32 31 26 24 19 11 18 7 6 1 2 8 11 12 13 13 11
12 11 8 18 22 23 26 23 20 23 32 36 34 28 23 22 29 33 38 41 38 39 38 38 36 35 35 34 33 29 24 17 19 13 6 2 4 3 7 10 12 13 14
7 7 8 13 17 21 23 22 21 19 24 31 30 29 27 25 30 39 43 43 42 40 41 41 41 39 40 38 36 32 29 24 19 17 15 6 5 3 1 6 10 14 15
5 7 7 14 23 18 16 17 20 20 22 24 33 35 31 30 28 33 36 42 45 43 41 42 42 44 44 42 39 36 33 28 24 18 13 9 7 6 3 2 5 13 15
7 6 12 19 27 28 17 13 15 22 22 24 29 36 34 31 29 31 33 35 41 44 42 44 45 46 46 44 41 38 34 31 24 25 20 16 8 7 5 2 3 5 7
8 9 11 14 24 28 25 16 13 13 15 20 25 31 37 34 36 37 37 34 37 42 46 45 45 46 47 44 39 35 33 29 25 21 19 16 14 13 12 7 3 3 4
8 8 8 14 20 25 24 18 14 15 13 14 18 24 30 34 35 35 34 38 41 46 47 47 45 46 46 41 36 34 31 26 20 18 13 14 13 11 12 9 8 1 1
8 9 10 16 20 22 24 20 17 14 15 14 14 17 23 28 31 33 35 37 37 38 42 43 44 41 41 37 37 34 31 27 23 18 18 14 11 9 8 10 9 7 3
8 7 10 15 15 17 20 22 15 15 14 17 16 17 18 24 27 29 32 34 34 33 35 38 41 39 36 34 35 32 28 25 25 22 20 15 9 7 7 5 7 9 8
7 10 9 17 17 13 15 15 15 15 14 13 18 17 16 18 21 26 29 29 29 29 30 32 34 34 32 32 32 30 28 23 20 17 15 10 9 9 6 7 7 9 9
8 10 7 12 10 11 15 18 17 18 19 16 17 18 15 12 16 21 23 23 23 23 26 27 27 29 31 32 31 29 26 21 17 13 8 9 11 8 7 7 11 10 10
11 11 11 8 15 21 17 18 19 17 17 16 13 16 12 10 10 14 15 16 18 20 22 24 27 29 31 32 30 28 24 20 15 8 9 4 11 6 5 9 11 11 11
9 10 11 11 15 15 16 17 20 19 16 16 16 13 8 7 7 11 14 16 18 19 21 24 26 28 29 30 28 24 18 14 11 9 5 5 8 5 8 10 8 9 11
9 10 11 10 14 15 19 22 21 19 15 12 13 10 5 1 9 14 17 21 23 25 26 27 27 28 30 25 23 19 16 12 9 5 4 5 6 5 5 7 8 10 12
8 10 9 8 13 15 15 14 15 14 11 10 10 9 13 17 19 19 20 22 25 26 26 27 30 29 27 23 22 20 17 13 7 4 5 5 5 5 6 7 8 9 13
8 7 10 9 13 13 12 11 9 9 10 12 12 13 14 19 20 21 22 23 25 26 30 30 31 28 25 20 18 16 13 8 3 3 8 4 2 5 6 8 9 10 12
7 7 7 12 12 11 10 9 11 11 12 14 14 13 16 20 21 23 25 25 26 27 30 28 28 28 21 17 13 9 10 8 5 6 2 1 4 7 7 10 12 13 13
5 7 9 10 10 10 10 10 14 15 15 14 14 12 14 18 21 24 25 25 28 26 25 24 23 22 18 13 13 12 10 8 5 2 3 4 7 9 10 12 13 13 15
6 8 9 10 11 11 10 13 14 16 17 16 15 15 19 23 26 26 27 25 25 24 22 20 17 15 15 11 10 9 4 3 2 2 5 8 8 9 10 12 12 12 19
6 8 10 11 11 10 13 14 13 14 14 15 17 19 20 22 23 24 24 22 21 20 18 18 14 12 10 9 6 2 3 2 3 5 8 8 7 9 11 12 15 16 17
6 9 11 11 11 10 11 12 14 11 15 18 20 20 19 20 20 21 20 19 18 19 19 17 15 11 10 7 7 5 3 2 5 8 9 9 9 9 11 13 13 14 14
4 6 11 12 12 10 11 12 11 14 17 18 18 17 17 16 15 17 17 16 15 16 14 13 11 8 5 3 2 2 3 4 6 8 9 8 7 10 13 12 11 11 12
5 4 10 12 12 11 11 11 10 12 16 19 19 17 17 16 14 14 13 13 11 11 10 8 7 5 5 4 5 6 7 8 7 8 4 7 10 11 11 12 11 10 11
8 8 9 12 12 9 10 9 10 14 17 17 15 14 14 14 15 14 12 11 10 7 6 6 5 5 5 4 5 5 7 8 8 7 9 11 11 14 15 16 14 15 15
10 11 9 11 13 12 11 11 12 13 15 15 14 12 12 12 12 13 14 10 9 7 6 5 4 2 1 3 4 6 8 7 8 6 8 11 13 15 17 17 19 18 17

GFSMW_925_spd_033.txt.gz
Wind_Speed
7 14 18 20 20 23 24 24 26 32 28 25 26 27 29 34 33 39 37 35 34 33 33 35 33 32 33 30 27 23 18 14 15 12 6 5 9 14 16 17 15 14 13
7 9 13 15 16 19 21 23 26 27 33 29 29 26 28 27 34 33 38 38 37 36 35 38 38 35 34 32 30 28 22 15 21 8 5 3 4 10 15 17 17 16 15
5 7 11 13 10 12 16 19 25 26 29 31 29 25 23 24 22 28 34 40 41 41 37 40 41 39 38 37 35 34 30 24 26 19 7 3 4 5 10 15 17 18 18
5 5 8 13 19 18 11 11 18 24 24 28 28 27 26 24 25 28 34 35 41 42 41 41 43 43 43 42 38 41 40 33 26 25 21 8 5 3 3 8 15 17 18
4 5 7 12 19 21 19 12 9 15 21 23 29 30 29 29 28 29 29 31 35 40 44 44 45 47 46 46 45 45 43 39 31 29 16 16 10 8 3 3 7 14 17
5 5 8 13 19 21 22 18 10 6 11 16 22 23 26 26 24 28 28 29 35 38 42 45 46 48 48 49 50 45 44 43 32 32 25 22 10 8 6 2 4 7 11
5 7 9 14 20 22 22 21 18 11 7 7 12 22 25 25 23 26 28 24 25 33 43 46 46 48 50 50 48 46 44 42 37 30 27 22 20 11 15 5 3 3 5
5 7 8 12 14 17 18 19 18 17 12 10 10 11 17 23 23 29 31 32 35 36 35 42 45 46 46 46 46 45 42 38 37 29 27 23 19 13 13 9 8 2 5
8 8 12 13 14 15 17 16 16 15 14 13 13 12 13 15 21 23 27 30 31 32 32 36 40 42 40 39 40 36 37 35 33 29 26 22 19 16 14 13 9 4 3
7 8 12 17 16 16 12 14 13 13 14 14 14 16 15 14 17 20 23 26 28 29 29 28 31 31 32 32 33 35 32 30 30 28 26 21 15 10 11 10 9 7 5
8 10 13 16 16 18 17 18 17 17 19 19 17 15 14 13 11 15 17 20 21 22 24 24 25 27 25 26 30 30 34 36 29 24 22 18 15 13 5 4 5 6 8
9 11 14 15 15 15 16 17 19 18 17 17 17 15 12 10 8 8 11 13 15 16 18 20 21 22 24 28 30 27 28 31 28 24 19 16 14 11 9 5 5 7 9
8 10 12 15 14 14 15 16 18 19 19 16 14 11 11 9 7 7 5 9 11 14 16 17 19 21 23 25 25 27 29 30 27 23 18 15 11 10 9 7 7 7 10
8 8 8 10 13 16 17 17 20 21 20 16 11 10 9 8 8 7 7 5 9 12 13 16 19 21 22 25 28 30 30 27 22 19 17 14 12 10 8 6 6 11 12
7 9 10 9 13 15 16 16 16 19 18 16 11 10 11 6 8 5 3 6 10 13 15 19 21 23 23 25 29 30 27 25 22 15 12 8 7 6 3 5 8 9 11
7 8 9 10 12 13 14 13 13 15 16 15 15 13 11 10 10 9 10 13 13 15 16 18 21 23 25 26 26 25 21 18 17 14 9 6 3 1 7 7 8 8 9
7 8 8 9 11 12 12 12 12 12 12 12 12 12 11 11 12 12 12 15 17 19 21 22 24 27 25 22 22 21 20 16 13 10 6 4 6 5 4 5 4 6 10
6 6 7 8 10 11 12 11 11 11 12 13 15 12 11 13 12 13 17 20 22 24 27 28 27 25 21 22 20 19 16 13 10 8 8 6 3 0 2 4 6 9 11
4 4 6 8 10 12 12 11 14 13 14 15 14 13 12 14 15 18 20 22 25 26 26 27 25 23 19 15 14 14 14 13 10 7 4 1 3 4 4 6 9 10 13
2 4 6 8 12 12 11 12 15 15 16 15 14 14 14 18 20 20 22 24 26 26 25 23 21 19 18 15 15 13 11 10 8 5 0 4 6 6 6 7 6 8 12
3 5 6 8 9 10 12 12 12 14 12 15 18 18 17 19 20 21 22 23 23 23 22 21 18 17 12 8 7 6 7 4 3 1 4 4 3 5 6 6 8 10 12
5 5 6 8 8 10 14 14 13 11 14 18 19 19 18 18 18 19 18 17 18 18 17 16 15 13 12 10 9 6 4 3 1 1 2 4 5 4 6 8 11 10 10
7 6 9 11 9 11 14 16 11 12 14 17 18 18 17 16 15 16 16 15 14 14 12 10 10 7 5 5 5 5 3 2 2 4 4 2 3 7 10 8 8 7 9
9 10 11 10 12 10 13 13 13 12 16 18 18 17 17 16 14 13 12 12 10 10 8 6 5 4 4 4 3 3 3 4 3 5 2 5 7 7 6 6 5 5 6
11 12 14 12 12 9 11 12 14 16 17 16 15 15 15 14 15 14 11 10 9 5 6 5 5 4 4 3 2 3 4 5 5 3 5 6 7 7 7 7 6 7 8
14 13 13 14 11 12 11 13 14 12 14 15 13 12 13 12 12 13 14 10 9 7 6 6 4 2 1 1 2 3 5 4 4 4 4 4 5 6 8 8 9 10 10

GFSMW_925_spd_036.txt.gz
Wind_Speed
8 10 12 12 13 14 15 17 17 19 22 22 22 25 27 30 29 32 27 25 26 26 27 27 26 26 25 23 21 19 17 13 13 9 7 7 9 12 13 14 14 13 13
5 2 6 7 8 12 14 15 18 20 21 24 26 27 25 24 25 26 28 26 27 27 30 30 29 28 26 25 24 22 18 14 19 11 9 4 8 13 16 16 17 16 14
6 6 8 9 9 7 7 12 17 19 21 22 24 24 24 20 19 24 30 35 32 29 31 31 31 30 29 30 30 29 25 20 21 20 8 4 6 10 12 17 17 17 16
5 5 7 10 10 10 10 8 10 14 18 19 22 25 26 26 26 26 25 27 28 30 31 30 30 30 32 30 34 34 35 24 20 18 20 10 4 4 4 12 17 17 18
4 6 7 10 10 9 9 10 9 9 12 16 19 22 25 25 25 25 25 25 28 33 32 31 30 31 35 35 32 32 34 33 26 24 13 14 10 7 5 4 10 17 19
3 4 7 10 11 10 10 10 10 9 7 9 15 19 22 22 22 21 22 24 22 25 29 31 31 34 34 35 39 38 35 32 27 31 28 23 11 10 7 4 7 10 14
4 6 9 12 13 13 12 12 11 11 9 7 7 11 19 24 25 25 24 24 22 24 29 31 31 31 34 34 32 34 40 37 33 30 34 31 24 16 18 11 5 4 5
5 6 9 11 11 12 12 12 13 12 10 10 9 8 10 14 20 22 23 24 24 22 22 24 29 31 29 29 28 29 32 33 34 33 32 35 29 24 18 14 10 2 4
5 7 9 11 10 12 12 11 12 12 10 10 10 10 10 11 14 16 19 20 22 22 22 21 22 26 27 27 26 28 28 27 28 29 32 35 31 24 19 16 13 7 4
6 7 9 10 9 10 9 9 10 13 14 13 11 11 11 11 12 13 14 15 17 17 16 18 19 22 25 25 25 23 23 24 25 24 29 28 22 20 17 15 14 8 7
7 8 9 10 9 9 10 10 10 12 13 13 13 13 12 10 9 9 10 10 11 12 13 14 15 17 20 25 27 24 24 22 23 26 28 25 24 18 15 15 13 13 10
6 6 8 9 9 11 12 13 13 13 12 13 11 10 11 11 9 8 8 8 9 9 10 12 13 14 16 18 23 26 25 26 22 19 19 18 21 18 14 10 7 6 6
7 7 7 7 7 9 10 11 12 13 13 13 11 9 9 9 9 7 6 5 4 5 4 5 6 8 10 13 17 17 18 20 22 21 21 18 18 15 11 10 9 6 4
6 6 6 8 11 11 11 11 10 11 13 13 11 9 10 10 8 7 5 4 3 4 4 4 2 1 3 8 15 19 21 21 21 22 19 17 15 14 11 9 7 6 4
6 7 8 8 9 10 10 11 11 12 13 11 11 12 10 9 9 8 7 5 7 9 9 8 6 7 9 10 16 19 22 25 24 20 18 15 12 10 8 7 7 6 6
6 5 5 6 7 10 12 11 11 12 12 11 13 11 9 10 10 9 9 10 10 11 11 10 7 9 10 11 12 19 25 24 22 20 16 14 10 8 5 2 2 5 7
4 4 4 7 9 10 9 9 11 12 12 11 9 10 10 12 11 12 13 15 15 13 14 14 15 19 19 18 17 19 20 20 17 14 12 11 8 5 6 9 10 11 11
1 5 5 7 7 7 8 9 11 12 11 11 11 11 11 13 12 15 16 16 18 20 21 22 22 22 18 19 18 17 17 16 15 10 8 6 6 5 3 5 6 8 6
6 4 4 6 6 7 7 11 15 14 14 12 11 11 10 13 14 17 17 17 19 20 22 21 21 20 17 18 16 15 14 13 11 7 5 5 3 2 5 7 6 7 8
6 5 5 7 6 6 7 11 14 13 14 13 13 14 15 16 18 17 19 20 22 23 22 21 18 15 16 15 14 11 10 10 6 5 3 1 1 3 4 5 6 8 10
8 6 5 8 6 6 6 9 11 12 11 14 16 18 18 19 18 18 19 20 21 20 19 18 15 11 10 10 9 6 5 4 3 2 1 2 1 3 4 3 5 9 12
9 7 6 7 6 5 8 8 9 10 13 15 16 16 14 14 16 16 15 14 12 12 11 10 9 10 10 8 6 5 5 2 0 1 3 4 4 3 4 7 8 11 11
10 9 8 8 6 6 7 9 8 9 9 11 12 12 11 11 11 10 9 8 8 7 6 6 5 4 3 4 4 3 2 3 3 3 3 3 4 7 8 8 8 8 8
12 11 11 10 10 8 7 8 8 9 9 10 11 10 10 10 9 8 7 6 5 5 4 3 3 3 2 2 1 2 4 4 3 5 3 5 8 8 8 7 6 6 7
13 13 12 11 12 11 9 8 9 10 10 9 9 9 8 8 8 8 6 6 5 4 3 3 2 1 1 1 2 4 5 6 5 4 5 6 5 5 5 5 6 6 7
14 13 13 12 12 12 11 11 12 10 9 9 8 7 7 6 6 7 7 8 7 6 5 4 1 1 2 3 4 3 5 4 5 6 6 6 6 6 6 7 7 7 8

GFSMW_925_spd_039.txt.gz
Wind_Speed
11 2 8 11 13 13 15 17 18 20 20 21 22 19 25 29 27 29 25 22 23 24 27 27 25 25 25 26 24 22 21 18 16 12 9 9 11 13 15 16 16 17 17
9 3 5 4 6 9 12 14 16 18 20 21 22 23 22 24 27 26 26 31 26 28 28 30 28 29 28 27 27 27 22 21 23 13 12 4 9 16 19 18 18 18 19
6 4 2 2 4 5 5 8 13 16 18 20 21 22 21 22 21 26 28 30 30 28 29 29 29 28 29 29 29 29 28 23 23 21 8 4 5 9 16 20 19 20 20
5 3 2 5 6 6 6 6 6 9 13 17 19 21 20 21 23 22 22 23 24 30 30 31 32 32 30 30 32 33 32 25 22 21 25 10 4 3 3 13 20 20 21
2 1 3 5 6 7 8 8 8 8 7 10 15 19 21 22 22 23 24 24 22 24 30 30 30 34 33 32 30 31 35 34 25 27 17 18 14 11 3 3 9 20 22
2 1 3 6 6 7 8 9 10 10 9 8 9 15 20 21 21 21 21 21 22 22 25 28 31 31 33 32 33 33 33 35 30 29 25 25 14 12 8 3 6 11 17
1 2 5 7 8 8 9 10 10 11 11 10 9 9 13 18 22 22 20 20 19 18 22 25 30 31 30 31 30 31 31 35 34 32 33 31 27 18 20 13 4 4 6
1 3 5 8 8 8 9 10 10 11 10 10 11 11 10 11 13 16 19 20 19 19 18 22 25 30 32 31 29 29 30 29 32 33 29 30 30 31 28 22 11 2 2
3 4 6 8 9 9 9 9 10 11 10 11 11 10 10 11 12 12 14 16 17 19 20 17 19 23 28 32 29 30 27 27 27 26 25 21 19 24 29 25 20 9 4
3 4 5 7 8 8 9 9 10 11 11 11 10 10 10 10 10 10 12 11 12 14 17 18 23 19 20 25 27 30 28 26 26 25 24 22 22 22 19 16 11 10 5
4 5 6 7 6 7 9 9 10 12 12 12 12 11 10 10 9 8 8 9 10 11 14 15 14 14 13 17 20 22 22 22 20 22 24 25 23 21 18 15 19 16 15
3 5 6 7 7 8 9 10 10 11 12 13 13 11 10 9 9 9 9 8 8 8 10 8 8 8 10 10 14 16 18 16 17 17 18 18 18 18 17 15 10 9 7
3 4 4 5 6 9 10 12 12 13 14 14 13 11 10 9 9 10 10 9 8 7 6 4 2 2 4 5 5 8 8 11 13 15 16 18 19 19 18 16 14 8 7
3 4 4 4 6 8 9 11 12 13 13 12 11 11 10 10 10 10 10 10 10 9 8 7 5 4 2 1 4 7 9 10 11 13 15 17 19 20 17 14 11 10 9
4 3 4 5 6 7 8 10 11 12 12 10 10 9 10 10 10 11 11 10 11 9 8 8 8 7 6 5 4 8 8 11 13 14 15 14 12 11 12 12 13 11 9
3 4 4 6 8 9 9 9 9 10 10 9 8 8 8 9 11 11 12 12 12 10 10 11 9 11 12 11 6 5 10 14 17 18 17 15 13 14 7 8 8 6 6
2 3 5 7 7 7 7 8 8 7 7 6 6 8 9 11 14 13 13 14 14 15 19 19 19 22 19 15 15 11 14 15 15 15 14 12 9 8 9 7 5 7 6
3 3 4 2 3 5 6 6 7 8 7 7 9 10 13 13 11 11 14 15 17 21 21 22 23 24 20 17 16 14 14 14 13 10 8 6 4 4 2 3 1 1 5
6 5 3 4 5 4 4 6 9 9 9 10 10 12 12 12 13 15 16 17 20 21 21 20 19 20 18 16 14 14 12 11 10 7 7 4 4 2 1 2 3 5 7
9 7 7 7 6 4 5 8 10 11 11 12 12 13 13 16 17 17 19 19 20 20 18 18 15 14 15 14 15 13 9 8 4 4 1 2 3 3 3 4 6 6 6
10 9 9 8 7 6 6 8 9 11 9 12 12 12 13 14 15 16 15 16 17 16 15 14 11 11 11 10 9 7 4 4 3 2 2 3 3 3 4 3 4 6 8
11 10 9 9 8 7 7 7 8 7 9 8 8 9 10 10 11 13 12 11 9 9 8 8 8 8 8 6 6 7 6 5 4 3 4 4 4 3 4 6 7 9 10
12 11 10 11 9 8 8 7 7 7 7 7 7 7 7 7 7 7 7 7 6 5 5 4 3 3 3 3 4 4 5 5 5 4 5 6 6 7 8 6 8 8 7
13 13 13 12 11 10 9 8 8 7 7 7 6 6 5 6 5 6 5 5 4 4 3 2 2 2 2 2 3 4 5 6 6 7 6 8 10 9 8 8 6 6 6
15 15 14 13 13 12 11 9 9 9 8 7 6 6 5 4 5 6 5 4 4 3 3 3 3 4 3 4 4 5 6 8 7 9 8 9 8 8 8 7 7 7 7
15 15 14 13 14 14 11 10 10 9 8 7 6 5 5 3 3 3 5 6 6 4 4 3 2 3 5 5 7 7 7 8 9 8 10 8 8 8 8 7 7 7 9

GFSMW_925_spd_042.txt.gz
Wind_Speed
6 2 9 6 7 9 11 11 12 13 12 20 18 23 28 28 28 30 31 24 24 28 30 32 32 28 29 32 32 30 25 25 22 19 13 13 18 18 20 22 21 24 23
4 11 10 7 5 6 7 9 12 15 16 18 20 20 21 27 32 30 29 31 30 24 31 35 36 36 33 30 34 33 29 28 27 19 12 3 9 22 25 22 24 26 26
7 6 8 9 4 4 5 7 10 13 14 13 15 19 22 19 22 26 28 32 31 33 23 30 35 37 35 36 33 36 35 27 31 30 11 3 5 5 19 30 27 27 28
7 6 6 7 3 3 3 4 5 7 9 15 18 16 18 18 19 24 25 25 25 29 29 32 30 32 34 33 35 35 39 29 30 32 33 15 8 4 2 14 30 28 28
6 6 6 1 1 4 4 5 6 7 6 9 9 15 18 20 22 22 22 23 22 24 27 23 35 32 33 34 30 35 35 41 31 32 28 34 19 13 3 3 10 26 30
7 5 7 1 4 6 6 8 8 9 9 8 8 9 13 17 20 20 21 24 25 26 25 27 23 32 29 32 35 34 34 36 34 36 31 28 18 15 9 2 4 11 20
6 4 5 5 5 5 7 10 10 11 11 10 10 11 12 11 13 18 20 19 18 18 19 23 25 26 29 32 31 35 35 32 38 34 35 38 32 22 25 9 4 3 5
5 5 5 4 7 7 8 9 10 11 12 11 12 12 12 13 12 12 13 14 16 19 15 12 22 25 24 25 31 33 34 34 37 39 33 35 37 33 23 23 12 1 1
5 5 6 7 7 8 9 10 11 12 12 13 12 13 12 12 13 13 12 14 14 10 14 15 11 13 19 19 22 28 30 31 33 35 35 31 30 30 25 21 17 10 5
5 5 5 6 6 8 10 10 11 13 14 13 13 13 13 11 11 9 9 11 12 13 12 13 14 12 10 12 17 23 25 25 28 27 26 27 25 25 26 27 22 18 10
5 4 4 5 6 10 11 12 12 12 13 15 15 14 13 11 9 10 13 11 10 10 10 12 15 16 16 13 11 11 12 12 12 17 20 24 25 23 20 19 19 18 17
5 3 3 2 8 9 9 10 12 12 13 15 16 15 12 11 12 11 11 9 8 7 7 7 6 7 8 10 10 10 10 10 12 12 14 16 16 16 15 15 16 15 15
6 2 3 4 10 8 8 11 13 14 14 13 12 13 13 13 12 9 8 9 10 9 8 7 6 5 4 4 5 6 5 6 6 8 11 12 13 13 12 12 12 13 12
5 3 2 5 9 8 10 9 10 12 12 11 11 11 12 10 12 9 9 8 7 9 11 12 11 10 9 5 2 1 1 1 3 3 6 7 8 12 12 13 14 14 14
4 4 3 6 9 10 9 8 9 10 10 9 10 10 9 8 8 9 9 9 11 10 10 10 12 13 12 11 7 6 5 5 6 6 5 5 7 9 10 12 12 11 9
5 4 5 7 8 7 6 6 6 6 6 9 7 7 9 8 8 9 9 11 15 15 15 16 17 18 16 11 9 6 9 10 12 14 14 12 12 10 7 6 7 6 8
5 5 6 9 4 4 4 5 6 6 8 8 9 10 9 8 9 10 12 16 18 18 20 21 21 20 16 14 14 12 14 15 14 13 12 9 7 7 7 6 4 5 1
6 6 9 9 7 5 3 5 7 7 6 9 10 10 9 9 9 12 16 17 19 21 20 18 18 19 16 15 13 12 14 15 13 10 9 6 5 4 3 2 2 2 1
9 11 11 10 8 4 5 6 9 10 11 9 9 9 10 12 13 16 16 18 19 18 17 16 16 17 16 14 13 12 12 11 10 10 9 8 6 5 3 4 5 4 4
14 14 11 11 7 5 6 9 11 11 12 10 12 13 15 16 16 16 16 16 15 15 15 16 15 14 14 12 11 11 11 10 9 6 6 4 1 3 2 3 6 3 2
15 15 13 10 8 6 7 10 11 10 10 12 14 14 13 14 13 12 11 12 13 15 15 13 13 12 12 10 9 8 6 6 5 4 4 2 4 4 4 4 5 5 8
15 13 14 12 9 9 9 10 10 10 11 12 12 12 11 11 11 9 8 8 9 8 8 7 8 7 5 7 7 7 8 7 5 4 4 3 4 4 6 7 7 9 9
15 15 13 14 12 12 10 11 11 11 10 10 9 8 7 6 4 5 5 5 4 4 4 4 4 4 4 6 6 6 7 7 7 5 7 5 5 6 8 7 8 9 8
16 18 17 17 16 15 13 12 13 12 10 10 9 8 7 6 5 5 4 4 4 2 2 2 2 2 3 2 4 4 5 5 5 7 7 8 9 7 8 8 7 6 6
19 20 19 19 18 17 15 14 14 12 12 10 9 8 8 6 6 4 4 2 3 2 1 1 2 3 3 5 5 7 8 9 9 11 10 9 9 8 9 7 7 7 7
20 18 20 19 20 19 18 17 15 15 14 12 10 9 9 7 5 4 4 3 2 2 2 2 3 3 4 5 7 7 7 9 9 10 10 10 8 9 9 9 10 9 9

GFSMW_925_spd_045.txt.gz
Wind_Speed
2 12 12 11 8 4 1 2 3 2 4 20 26 28 28 29 26 25 30 29 23 27 31 34 34 34 33 34 34 33 34 31 29 20 19 19 22 25 27 26 27 27 26
5 7 11 11 10 7 4 4 6 8 8 8 6 9 21 28 33 30 31 29 29 30 28 33 38 37 38 35 35 36 33 33 30 16 5 2 10 26 29 29 29 31 29
6 4 10 12 9 8 7 7 7 10 13 13 13 13 9 11 14 22 27 28 28 27 29 32 33 37 38 39 39 38 37 29 33 33 14 2 6 3 19 37 33 33 33
7 6 10 10 8 6 4 4 6 7 7 9 11 13 15 15 16 15 22 26 27 27 25 25 27 35 37 43 40 37 40 36 30 31 38 25 6 4 3 12 32 32 34
8 7 8 8 9 5 3 4 5 6 8 7 8 10 12 15 16 16 15 16 23 26 24 24 26 25 31 36 38 38 32 41 29 30 29 33 20 11 3 4 5 27 34
7 7 9 9 8 5 4 5 5 7 8 8 7 8 10 12 13 15 16 18 16 16 26 28 29 28 22 25 29 30 32 35 40 35 33 26 14 19 6 3 4 7 17
7 6 6 7 6 5 5 5 7 7 8 8 9 9 11 11 10 10 10 11 11 12 12 13 20 23 23 22 24 28 29 32 35 38 38 38 33 25 24 12 3 4 11
7 7 8 8 6 6 7 7 8 8 10 9 9 9 10 11 10 10 10 8 8 7 6 6 4 7 14 18 22 19 23 27 30 34 34 34 34 38 33 23 15 2 4
8 8 9 9 7 8 9 10 9 10 10 10 10 10 10 10 9 6 6 8 9 9 11 10 7 5 10 12 14 15 17 22 25 29 31 33 35 35 33 31 26 20 7
8 7 8 9 11 11 10 11 10 10 10 9 10 11 11 9 5 7 10 10 10 10 10 10 10 9 7 8 9 10 13 16 17 21 22 26 27 24 25 25 25 23 18
7 7 8 11 11 9 9 11 11 10 10 10 11 11 10 10 9 8 9 9 9 9 7 8 8 9 8 9 9 9 9 12 11 11 13 17 17 18 19 19 20 22 22
7 6 8 11 10 10 9 9 10 11 11 10 9 10 8 8 8 7 7 6 5 7 8 6 6 8 8 7 7 8 9 9 10 10 9 12 13 15 14 14 12 14 17
7 6 7 9 9 9 7 6 8 9 9 7 7 9 10 9 9 7 5 5 5 7 8 9 10 9 7 6 6 6 6 7 7 6 5 4 5 8 7 10 10 12 13
7 5 6 8 9 8 6 5 4 6 7 7 8 10 10 10 9 7 8 8 8 9 9 10 11 10 10 8 5 5 4 4 3 3 3 3 3 4 5 6 8 8 7
6 6 6 6 8 6 5 4 2 4 5 5 7 8 7 6 7 9 8 8 8 9 9 11 12 12 11 11 8 7 8 9 9 8 7 8 6 5 2 2 4 4 5
7 6 6 8 6 5 3 2 4 5 5 6 7 5 6 7 7 7 8 10 11 13 15 16 15 17 16 13 11 9 11 11 11 11 11 11 11 10 7 5 2 1 2
7 7 6 8 6 5 3 3 4 5 7 7 8 7 6 7 9 11 12 13 12 13 16 17 18 18 16 14 14 12 14 14 12 11 9 9 8 7 8 7 5 4 2
8 7 10 11 8 6 5 5 5 5 6 7 7 6 6 8 10 12 12 13 13 14 16 17 17 18 15 13 12 12 12 11 10 8 7 7 6 5 5 6 6 3 2
9 12 16 14 11 8 7 8 7 8 8 7 8 8 9 10 12 13 13 13 14 15 15 14 13 15 14 12 13 12 11 10 10 10 9 8 7 6 4 4 4 3 4
17 18 18 16 13 10 9 10 7 8 9 9 12 12 11 13 14 13 12 13 13 14 13 14 15 14 13 11 8 8 8 7 6 6 5 5 6 5 5 5 5 3 1
18 20 18 15 14 13 13 11 9 9 10 13 14 13 13 13 13 12 11 12 14 12 11 10 9 9 8 10 9 7 6 5 4 4 4 3 5 5 4 5 6 5 7
17 18 18 14 14 13 14 13 12 11 11 12 13 11 11 10 11 10 10 9 7 7 7 5 5 3 4 6 5 6 6 6 4 3 5 6 5 6 6 7 7 6 7
16 19 18 16 15 14 15 16 14 14 13 13 13 11 10 8 6 5 5 5 4 4 3 1 1 2 2 3 3 5 5 5 4 3 6 4 6 7 8 6 6 6 6
16 20 19 17 17 19 16 15 17 16 15 13 11 10 9 9 7 6 6 6 5 4 3 1 0 2 2 2 5 6 6 7 8 8 10 8 8 7 7 8 7 7 6
18 21 20 19 20 22 21 19 19 19 17 15 13 12 10 10 9 6 5 4 2 1 2 1 0 2 2 4 5 7 8 8 9 9 11 9 7 6 8 8 7 7 7
20 21 20 20 22 24 23 22 22 22 20 18 16 14 13 11 9 8 6 3 2 1 1 1 2 3 4 5 6 7 7 8 8 10 10 9 8 9 9 10 10 10 9

GFSMW_925_spd_048.txt.gz
Wind_Speed
3 7 12 13 14 13 13 12 9 9 16 21 22 23 28 27 26 27 32 30 27 27 31 33 34 32 32 34 34 34 35 35 32 22 24 26 27 27 29 29 30 32 31
6 7 10 12 10 8 7 7 6 4 4 7 13 18 18 27 31 31 29 27 28 28 28 26 31 35 36 38 37 34 34 37 34 18 3 3 11 29 34 33 33 34 33
9 6 8 10 9 8 5 3 2 3 2 2 6 9 9 11 12 16 22 24 24 26 27 27 27 30 32 38 42 40 37 29 27 31 13 1 6 2 13 35 38 38 36
5 6 8 9 8 7 5 5 4 4 5 2 2 2 5 9 11 12 13 15 18 20 24 26 27 27 27 33 37 39 40 34 25 25 35 25 4 4 4 9 21 36 33
9 9 9 11 9 7 5 4 4 6 6 6 5 5 5 5 7 9 11 13 14 14 17 21 26 25 24 27 28 33 35 36 30 30 20 34 22 10 5 4 5 11 28
8 8 11 14 11 7 6 5 6 6 6 5 6 7 7 8 8 8 7 8 9 9 9 11 20 25 27 25 23 23 26 31 36 32 31 27 13 20 14 4 6 8 12
8 8 7 11 9 7 6 5 5 5 5 5 6 7 7 7 7 5 5 6 7 6 5 6 8 14 17 18 19 20 20 21 23 27 32 35 35 28 21 17 11 7 13
7 8 9 11 11 9 8 6 6 5 4 4 6 6 6 6 5 5 3 3 5 6 8 8 7 7 7 11 13 13 15 15 18 18 24 28 32 33 30 24 14 4 7
8 8 10 12 12 11 9 7 5 4 3 5 6 6 5 4 2 3 5 7 7 7 8 8 8 7 6 7 8 7 10 12 13 15 17 22 24 26 28 29 26 18 3
7 7 9 12 12 11 10 7 5 4 4 4 6 6 6 4 3 3 5 7 6 6 6 6 6 6 7 6 5 4 6 7 9 9 13 17 21 23 22 23 24 21 15
7 7 9 13 12 10 8 7 5 4 4 4 5 5 5 4 3 5 6 6 7 8 7 7 6 6 5 5 3 3 3 4 4 7 6 7 11 13 13 14 16 19 17
8 7 11 13 10 9 7 5 4 3 5 4 4 5 3 2 3 5 6 5 7 8 8 8 7 7 6 6 5 6 6 8 7 6 6 6 6 6 8 9 10 10 11
7 6 8 9 9 7 5 3 2 3 4 3 3 4 5 5 5 4 3 4 6 7 8 9 9 9 8 6 5 3 4 4 4 5 5 5 5 6 8 8 7 8 8
8 6 6 8 9 6 4 2 2 2 3 3 4 5 6 6 6 5 6 7 8 9 10 10 10 10 10 9 8 7 7 7 6 6 6 6 6 5 4 3 2 2 1
7 7 7 7 9 6 4 2 2 2 1 2 4 4 3 3 5 6 8 9 9 10 11 12 13 13 15 13 9 8 10 10 11 12 12 13 13 11 7 5 5 4 4
8 7 7 9 9 8 5 4 3 3 2 3 4 3 3 4 5 7 8 10 11 12 13 15 18 16 16 13 12 11 13 13 12 13 12 10 11 13 12 10 8 7 5
8 9 8 10 10 7 5 5 5 5 5 5 5 4 5 7 8 9 11 12 14 13 15 16 16 15 15 13 13 11 12 11 11 10 10 10 9 7 6 5 3 5 5
9 8 11 12 11 9 6 6 6 7 6 5 4 4 6 8 10 12 13 13 13 13 14 14 14 14 13 11 11 10 9 9 10 11 11 11 10 9 8 7 6 5 4
8 13 16 14 12 11 9 7 7 8 7 5 2 4 7 10 12 13 12 11 13 13 12 12 11 11 11 10 11 9 9 9 9 9 10 10 9 7 5 6 6 5 4
16 18 18 16 14 12 12 11 9 9 10 8 6 8 9 11 12 12 12 12 11 11 12 13 12 10 10 9 7 6 5 5 6 6 6 6 7 6 6 8 7 6 5
17 19 19 18 16 15 14 13 12 11 12 12 10 10 10 12 12 11 11 10 9 9 8 9 8 7 7 6 6 6 6 5 5 5 5 5 6 7 7 7 8 7 8
16 19 18 16 17 17 16 15 14 13 15 14 12 11 12 10 10 11 12 10 6 5 5 4 3 2 2 2 3 4 4 6 5 5 6 8 6 7 7 8 7 7 8
14 18 17 16 17 19 19 17 17 16 16 15 13 11 9 9 8 7 7 7 6 5 4 3 3 2 1 1 1 2 3 4 5 5 7 8 8 8 7 7 6 6 7
15 18 17 16 17 22 22 20 20 19 18 18 15 13 12 9 9 8 8 7 6 6 6 5 4 4 4 3 4 4 6 6 7 7 9 8 6 5 5 7 5 5 6
19 21 20 19 20 23 24 22 23 23 20 18 17 15 13 12 11 10 8 7 6 6 6 6 5 5 5 5 4 6 8 8 8 9 10 8 5 5 8 7 6 6 6
18 20 22 21 21 23 25 23 22 24 23 21 20 18 17 15 13 11 8 8 5 4 3 4 4 4 5 5 6 6 7 7 8 10 9 7 6 8 8 8 9 9 8

GFSMW_925_spd_051.txt.gz
Wind_Speed
4 2 7 13 14 12 14 16 19 20 21 18 18 21 27 28 26 27 27 28 25 25 28 30 31 32 31 31 30 32 32 33 33 27 24 28 29 29 31 31 31 32 32
5 6 11 13 11 13 12 11 10 8 9 14 20 19 18 21 25 27 26 25 25 28 30 28 29 30 32 32 32 32 30 32 30 13 5 3 8 24 32 34 35 37 34
9 7 10 12 12 11 9 7 6 5 5 6 7 9 11 13 16 17 18 22 24 26 27 27 26 26 26 27 30 32 33 27 23 24 13 1 4 3 9 20 29 37 37
6 5 10 12 12 11 10 8 7 5 4 5 5 7 9 10 10 12 14 14 14 16 18 20 22 24 24 26 27 27 30 29 22 19 25 29 14 4 3 7 14 16 28
10 10 12 15 12 11 9 9 9 8 7 6 4 2 1 2 4 6 10 15 18 16 14 15 19 22 25 25 24 25 25 26 27 24 18 23 22 18 6 9 8 14 17
9 8 14 16 14 11 9 8 7 7 5 4 4 3 1 2 4 5 5 5 6 7 10 12 12 17 21 24 25 24 22 22 22 25 25 22 10 7 11 8 13 14 19
10 9 9 14 13 11 9 8 7 6 3 3 3 3 2 3 4 5 6 6 5 5 6 7 7 8 12 17 17 17 17 19 19 20 22 21 23 22 16 16 10 6 8
7 8 10 14 13 11 9 8 6 5 2 3 4 5 5 4 3 3 2 3 5 7 8 9 8 8 7 6 9 10 11 13 12 11 14 15 16 17 19 17 7 3 6
8 8 10 13 13 11 9 6 4 3 2 5 6 6 5 3 2 1 1 3 5 7 9 10 9 8 8 7 5 4 6 6 7 7 9 14 17 15 16 18 20 12 3
8 7 9 13 11 10 8 6 3 1 2 4 4 3 2 1 2 1 2 3 5 6 6 5 5 5 5 4 3 1 2 3 2 3 4 6 7 9 10 11 14 15 12
9 8 10 12 12 10 8 6 3 1 1 2 2 1 1 2 1 2 3 4 4 5 5 5 5 5 6 5 4 5 4 4 4 5 6 4 4 5 5 5 5 5 6
8 7 12 15 12 9 7 4 2 1 1 1 1 1 1 1 0 1 2 3 3 5 5 5 6 7 7 7 6 6 8 8 9 9 6 6 7 6 6 5 5 5 4
8 6 8 10 12 10 8 5 3 1 1 2 3 2 2 2 1 2 2 2 4 5 6 6 7 8 8 8 8 8 8 6 6 6 6 7 7 7 7 6 4 4 4
8 6 6 9 12 10 8 5 2 1 2 3 4 3 3 3 3 4 5 5 7 7 8 9 9 10 10 10 10 10 10 10 10 11 12 12 12 9 7 6 6 6 5
7 8 7 7 11 10 7 4 3 3 4 4 4 3 2 2 2 4 6 8 9 10 10 11 14 14 15 13 12 13 14 15 15 15 15 15 14 12 10 8 8 6 6
10 8 7 10 12 11 8 6 5 5 5 6 5 3 2 3 3 4 6 8 9 10 11 15 14 17 16 14 15 15 16 15 14 12 10 9 8 9 11 10 11 11 8
10 9 9 12 14 12 10 9 8 6 6 6 5 3 3 5 6 8 9 10 11 12 12 13 15 16 15 14 15 13 14 15 13 11 10 9 9 8 8 7 6 5 5
8 8 11 13 13 11 11 10 9 9 8 6 5 4 4 6 8 10 11 12 11 11 12 13 12 13 13 12 12 11 11 11 11 11 11 9 9 10 8 8 7 6 5
7 13 19 17 15 14 13 11 10 9 9 7 6 5 6 9 10 10 11 11 12 11 10 10 9 11 11 9 9 9 9 8 9 8 8 9 8 8 6 8 8 6 4
15 19 19 17 17 15 14 13 11 11 10 9 8 9 10 10 10 10 11 12 10 10 9 11 10 9 9 7 6 7 6 6 6 5 4 4 7 6 6 10 9 9 6
16 19 20 20 18 17 15 13 13 12 11 10 11 12 12 12 11 11 10 10 9 11 11 10 7 5 4 5 5 6 7 6 6 6 6 7 7 7 7 7 9 9 9
15 17 17 16 17 18 17 16 14 13 13 15 15 15 15 13 12 11 10 9 8 7 6 4 3 1 0 1 2 3 4 5 6 6 6 8 7 8 8 8 8 8 8
13 15 16 15 16 19 19 17 17 17 18 17 16 16 15 14 13 12 10 9 8 6 4 4 3 3 3 3 3 3 3 5 7 7 7 9 8 8 9 7 7 8 9
14 16 16 14 16 20 21 19 18 20 19 18 17 16 15 13 12 11 10 10 10 7 6 7 7 6 6 5 5 5 5 6 6 7 7 9 8 6 5 7 8 7 7
15 20 18 16 17 20 22 21 19 21 21 20 19 17 15 14 13 13 12 12 9 7 8 9 8 7 6 5 5 6 8 9 7 9 9 9 7 6 8 7 7 7 7
15 15 18 20 20 21 23 23 22 24 23 22 21 19 17 16 15 14 12 11 8 8 7 7 7 6 6 5 6 7 7 7 7 9 10 9 7 8 9 9 10 9 8

GFSMW_925_spd_054.txt.gz
Wind_Speed
11 11 10 14 16 18 19 19 19 19 17 18 21 21 23 23 24 24 24 23 24 23 23 27 28 28 27 29 28 27 27 29 29 26 26 30 27 27 31 32 31 31 31
5 7 7 9 12 14 14 15 14 16 19 21 20 18 16 19 25 25 26 25 24 24 24 26 27 25 27 27 28 28 27 27 26 14 5 3 10 18 22 25 30 32 32
9 7 10 13 11 11 11 11 10 9 9 10 12 14 14 15 14 13 14 15 18 20 21 23 24 25 25 26 26 25 25 23 20 22 13 1 4 2 8 11 14 18 22
6 5 9 12 15 13 11 10 9 7 6 6 6 7 8 9 7 9 10 11 11 12 12 14 16 19 20 22 24 24 25 24 18 17 21 24 9 2 3 7 13 13 20
9 10 14 17 13 13 12 11 9 7 5 3 3 3 3 3 5 6 8 10 10 12 12 13 14 16 19 21 23 25 24 22 22 20 16 16 19 19 6 5 5 10 13
11 9 15 14 14 13 12 11 9 8 5 3 2 0 1 3 6 7 7 7 8 7 8 9 11 12 14 17 21 21 20 20 21 21 19 17 8 6 8 5 8 8 11
8 7 10 16 16 15 13 12 10 9 6 4 2 1 3 5 6 7 8 8 7 7 8 9 9 9 10 11 12 15 18 18 19 19 17 18 17 15 14 13 6 5 4
8 13 14 21 19 17 14 13 10 8 5 2 1 3 4 5 5 5 3 4 5 7 9 10 10 10 10 9 8 7 9 10 11 10 11 14 13 9 14 13 4 2 5
8 8 10 18 18 16 13 11 9 7 4 2 1 3 4 4 5 4 3 2 3 6 8 8 8 8 7 6 4 3 2 2 2 2 4 6 9 8 9 11 12 5 2
7 8 10 17 16 15 14 11 8 5 2 0 0 1 0 1 2 3 2 0 3 4 5 4 4 3 3 1 2 3 2 5 1 0 1 1 1 1 2 4 6 7 3
8 7 9 15 16 14 13 11 8 4 2 2 1 2 2 2 2 2 1 1 3 3 3 3 3 4 4 5 5 6 6 6 6 7 5 2 1 1 2 3 2 3 2
7 7 12 16 15 14 12 9 7 4 2 2 2 2 2 3 2 2 1 1 1 1 1 2 3 4 5 5 6 8 9 8 8 7 3 3 3 3 3 2 3 2 2
8 7 8 13 15 12 10 8 5 3 2 3 3 3 3 2 2 1 1 1 2 3 3 3 4 5 6 6 8 8 9 11 11 10 10 10 7 8 6 6 5 5 4
8 7 6 9 14 12 9 7 6 4 3 4 5 3 3 3 3 3 3 4 5 5 5 5 6 7 7 8 8 9 10 12 13 15 16 16 15 12 11 12 10 8 7
8 9 8 7 14 12 11 9 7 6 6 7 6 5 4 3 2 2 4 6 7 7 8 10 11 12 10 9 10 12 14 15 15 15 15 16 16 15 15 13 11 8 7
12 9 8 11 14 16 14 11 8 8 8 8 8 7 5 5 4 5 6 6 8 8 9 12 12 14 13 12 12 14 14 13 12 12 12 10 8 8 9 9 12 11 9
10 11 11 14 18 19 15 13 11 9 9 10 8 7 6 6 7 8 9 9 11 11 11 12 13 13 12 11 12 12 14 14 13 13 13 11 11 9 9 9 8 5 5
8 8 11 15 17 16 13 12 12 11 11 10 9 8 8 9 10 10 11 12 12 12 11 11 11 12 11 11 11 11 11 12 12 12 11 10 10 9 9 9 7 5 7
6 11 19 19 18 18 15 15 14 13 12 11 10 10 10 12 13 12 12 12 12 11 10 8 9 10 10 7 7 7 7 8 8 8 8 8 8 7 7 9 7 6 4
15 17 19 18 18 17 16 16 15 14 13 12 11 10 11 13 14 13 13 12 11 10 8 9 9 9 8 4 5 5 5 6 6 5 4 3 5 6 6 9 8 8 6
12 17 19 19 18 18 17 16 15 15 13 12 11 11 12 13 12 13 14 12 11 12 12 9 7 5 4 4 2 4 5 6 5 5 5 6 5 5 6 6 9 7 7
13 15 17 15 16 17 17 14 14 13 12 12 13 13 13 13 12 14 14 13 12 11 10 7 5 3 2 2 1 2 3 4 4 5 5 7 7 6 6 5 5 5 6
13 14 15 14 15 16 17 16 14 14 15 15 15 14 14 13 14 15 13 13 10 9 8 7 6 4 5 5 4 3 4 4 6 6 5 6 8 7 6 4 4 6 6
12 16 15 14 15 17 17 15 14 16 17 16 16 17 16 15 15 14 12 12 12 11 9 9 8 7 7 7 5 4 5 6 6 6 5 6 8 6 5 6 7 6 6
11 14 15 15 16 18 19 18 15 18 20 18 17 18 18 16 15 15 14 14 12 11 10 9 9 8 8 5 4 4 5 8 8 8 8 8 7 6 6 6 6 7 6
13 14 15 14 16 18 19 19 20 21 22 22 21 21 21 19 17 16 15 13 12 11 11 9 8 8 7 5 4 6 7 7 7 9 10 10 9 8 9 9 9 9 8

GFSMW_925_spd_057.txt.gz
Wind_Speed
13 12 10 10 11 14 18 18 19 19 19 18 17 18 22 22 22 22 22 21 21 20 20 22 23 24 25 25 24 23 23 23 23 16 16 21 20 21 21 22 25 28 29
5 6 10 11 12 15 16 18 19 18 18 19 18 17 15 18 22 20 20 21 22 24 25 25 25 25 24 24 24 24 18 19 21 8 4 4 9 15 19 18 19 20 20
8 5 9 11 12 13 13 13 13 16 18 20 19 16 14 13 12 12 12 13 16 19 21 22 23 24 24 25 25 25 23 16 17 18 9 2 4 3 11 13 13 13 15
3 4 9 12 13 11 11 12 12 12 11 11 12 12 11 9 8 7 9 10 12 12 12 13 15 17 18 19 21 21 22 20 16 15 18 21 11 3 2 4 8 11 13
10 9 13 19 15 13 12 12 13 11 9 8 8 7 7 6 6 6 6 7 7 8 9 11 13 14 14 15 17 19 19 21 21 19 12 13 15 16 7 2 6 7 7
13 12 16 18 18 15 14 13 13 11 9 7 6 5 4 4 4 5 6 6 6 5 5 5 7 8 9 10 13 15 17 19 20 20 19 19 8 7 7 4 7 6 9
6 9 10 17 22 21 18 16 14 12 9 6 4 3 2 3 5 6 7 7 6 6 8 9 9 9 9 9 8 10 14 16 19 20 19 19 20 16 11 6 2 3 2
6 9 15 20 19 26 22 18 15 13 9 6 4 3 4 5 6 6 6 5 5 6 8 9 10 11 11 10 8 7 9 10 13 14 13 12 10 11 11 6 5 2 6
7 9 13 17 22 21 20 17 15 12 9 6 4 4 4 5 6 6 6 5 4 5 7 8 8 8 8 7 5 5 5 4 4 4 6 8 8 8 8 8 8 5 2
4 7 12 16 21 21 18 15 11 9 7 5 3 4 3 4 5 6 6 4 3 3 4 4 4 4 3 3 3 4 4 5 3 1 1 2 1 0 1 2 2 4 6
6 8 11 16 17 17 17 14 11 9 6 5 5 5 5 5 5 5 5 4 3 2 2 2 1 2 2 2 3 4 5 5 4 3 2 2 2 2 2 1 1 0 2
7 8 13 16 15 15 14 12 10 8 6 5 5 6 6 6 7 7 6 4 3 2 1 0 1 2 3 5 6 7 8 8 7 6 5 3 1 1 0 1 1 0 1
6 7 9 13 15 15 15 13 11 9 6 6 7 7 7 7 7 6 6 4 3 2 2 2 2 3 4 6 8 8 9 9 9 9 8 6 4 5 4 4 4 4 3
8 9 8 12 15 18 16 14 11 10 8 7 8 8 8 7 6 5 5 5 6 5 4 3 3 4 5 7 8 10 11 13 13 13 12 11 10 9 8 8 7 5 4
9 12 12 12 15 17 16 14 13 12 10 9 8 7 7 7 6 4 5 6 7 6 7 7 8 7 7 8 12 14 14 14 14 13 13 14 14 12 10 8 7 5 4
13 12 9 12 17 21 21 19 15 12 11 10 10 9 9 8 7 7 7 7 7 8 10 10 11 11 11 11 11 14 14 13 12 13 10 8 6 6 6 5 8 8 5
12 12 14 18 19 24 24 20 16 13 13 12 12 11 10 9 9 9 10 10 11 12 13 13 12 12 12 12 12 14 14 13 12 12 10 8 7 5 5 5 3 4 5
10 10 13 17 22 23 21 17 16 15 15 14 13 11 10 9 10 11 12 13 13 13 13 13 13 13 12 11 12 11 11 11 11 10 8 7 7 6 5 4 4 4 6
11 16 21 22 23 23 22 19 17 16 15 14 13 12 11 11 12 13 14 14 14 14 13 13 13 14 13 9 9 9 8 8 7 5 5 5 6 3 3 4 4 2 2
9 14 19 22 24 22 22 20 19 18 17 16 14 13 12 13 14 15 15 15 15 14 12 12 12 11 11 7 6 6 6 6 4 3 3 2 2 1 2 3 3 2 1
5 11 18 20 22 23 21 19 18 19 17 15 13 13 14 15 15 16 15 16 15 14 14 13 11 10 8 8 5 4 3 4 3 1 1 1 0 1 1 3 3 3 2
9 13 17 16 18 20 20 17 16 15 15 15 15 15 15 15 16 17 16 16 15 15 13 12 9 8 7 6 6 4 0 1 0 3 3 1 2 3 3 4 2 2 4
9 11 15 15 16 18 19 15 15 16 17 16 17 17 17 17 17 17 18 16 15 14 12 10 9 7 7 7 7 5 4 4 4 4 3 3 4 4 4 2 2 5 5
8 11 13 13 14 17 17 15 16 18 19 18 18 18 19 17 17 17 15 15 15 13 11 10 10 9 8 9 8 8 7 6 5 5 6 5 6 4 3 4 6 6 5
11 13 13 13 14 17 17 16 16 19 20 19 19 19 19 17 17 17 18 17 14 12 12 12 11 11 10 9 8 8 7 5 4 6 7 7 7 5 5 5 5 5 6
12 13 13 13 14 16 18 19 19 20 21 21 21 22 22 22 19 17 16 15 14 13 13 12 11 11 10 7 6 7 8 7 6 9 9 9 8 7 7 7 7 8 7

GFSMW_925_spd_060.txt.gz
Wind_Speed
12 6 7 8 7 9 12 15 15 15 15 14 12 12 14 14 14 14 13 13 14 13 14 14 14 13 15 16 16 16 16 17 15 13 15 16 13 15 16 14 13 12 12
11 10 9 9 9 8 10 12 13 16 18 15 14 12 10 11 11 10 11 12 13 14 14 15 16 16 16 17 17 17 17 15 13 10 8 5 13 15 10 10 10 10 9
16 10 10 9 8 8 9 11 14 14 14 14 12 10 10 10 7 8 7 8 11 12 15 16 16 17 17 19 18 16 15 16 14 14 10 3 7 3 6 7 8 8 7
5 5 7 8 9 8 9 9 11 13 15 16 14 14 13 12 8 8 9 10 11 12 12 12 13 16 17 19 20 21 20 20 17 13 16 18 8 3 3 6 7 7 8
12 11 13 13 10 10 12 11 9 9 11 11 10 9 7 6 6 6 5 6 7 9 10 11 12 12 11 14 14 13 15 17 17 17 14 14 12 13 8 4 6 7 5
17 16 16 11 12 12 12 13 12 10 11 10 10 8 8 6 5 4 5 5 5 6 7 8 8 9 9 9 10 12 14 16 17 19 19 17 7 9 9 6 7 4 6
17 17 17 17 18 17 17 16 15 13 11 10 8 7 7 6 5 5 6 6 6 5 6 9 9 10 11 12 10 11 13 14 17 18 16 21 21 13 10 8 4 5 6
9 12 14 18 19 18 18 16 16 13 10 9 7 6 5 5 5 5 5 5 5 5 7 8 9 10 11 11 10 10 11 13 14 16 16 17 17 15 15 9 7 3 6
10 10 7 14 17 20 20 17 14 12 10 8 6 5 4 5 5 6 6 5 6 6 7 7 8 9 9 9 8 7 7 8 7 6 7 9 7 9 9 10 9 5 2
8 7 8 12 15 17 17 16 14 12 10 8 6 5 4 5 5 6 5 6 6 6 6 6 6 6 6 6 4 7 7 6 4 1 2 3 2 2 3 3 4 6 3
5 4 6 12 15 16 13 13 12 11 8 6 4 4 4 4 5 5 5 5 6 5 5 5 5 4 3 3 0 4 6 5 3 3 3 2 2 2 2 3 3 2 3
3 3 7 13 16 15 15 13 11 10 8 6 5 4 4 4 5 5 5 5 4 4 5 5 4 3 3 1 2 3 4 4 5 4 4 3 2 2 2 2 2 1 2
5 7 10 12 14 15 15 15 13 10 8 7 6 5 5 5 6 6 5 4 4 3 3 2 2 3 3 2 3 4 5 5 5 5 5 4 4 4 4 4 3 2 2
9 10 11 14 15 15 14 13 11 9 8 7 7 7 7 6 6 5 4 4 4 3 2 2 1 2 3 3 4 5 7 7 7 7 8 7 7 6 6 5 4 3 2
11 12 13 12 15 15 14 12 11 10 9 8 7 7 7 7 6 4 4 4 4 4 3 3 2 3 3 5 7 7 9 9 9 9 10 11 11 9 6 5 4 3 2
12 14 13 16 18 19 18 15 14 12 11 10 9 8 9 8 8 8 7 6 6 6 6 5 4 4 5 7 9 9 9 9 8 8 8 7 5 5 4 5 5 4 1
14 14 15 19 21 21 19 17 15 13 12 11 10 10 10 9 8 9 10 9 9 9 8 7 6 6 7 8 10 11 10 10 10 9 7 5 4 2 2 2 1 4 4
14 13 15 20 21 19 18 16 14 14 13 11 11 11 11 10 9 10 11 11 11 10 11 9 8 7 7 9 10 10 11 11 10 8 6 4 4 3 3 2 2 1 3
13 13 15 19 19 20 19 18 16 14 13 14 14 13 12 12 11 12 13 14 14 12 11 11 10 11 10 9 9 8 8 8 7 5 3 3 3 1 2 2 1 1 2
11 9 9 13 18 19 19 18 17 16 16 16 14 12 12 12 14 15 16 15 14 12 10 12 12 10 9 7 6 6 5 4 4 4 3 3 2 2 2 1 2 3 3
8 4 7 11 14 17 18 17 15 16 15 14 13 13 13 14 16 16 16 15 15 12 11 11 11 10 8 7 7 5 4 3 5 5 5 4 4 3 2 3 2 4 3
3 1 6 9 11 14 16 14 15 13 14 15 14 13 14 15 16 17 17 16 15 13 10 10 8 8 8 9 8 7 5 6 5 5 5 4 3 4 4 5 4 5 5
2 3 6 9 10 12 13 13 13 14 15 14 14 14 16 16 17 17 17 16 14 12 12 11 11 10 11 11 12 9 9 8 6 5 6 5 4 4 5 6 5 6 5
6 5 7 9 10 11 12 11 12 15 16 15 14 15 17 17 17 18 17 16 15 15 13 13 12 11 11 12 13 13 11 10 8 7 6 6 5 5 5 6 7 6 6
7 8 9 9 11 12 14 13 14 16 16 15 15 17 19 17 17 17 19 16 15 16 15 15 13 13 12 15 14 14 12 9 8 6 6 6 6 6 6 7 7 7 7
10 10 11 10 10 14 15 18 19 21 21 19 16 17 17 18 16 16 15 18 16 18 18 16 15 15 15 11 12 13 12 9 8 8 9 9 7 7 8 8 8 8 9

GFSMW_925_spd_063.txt.gz
Wind_Speed
15 13 10 7 7 10 15 16 16 16 15 15 14 15 15 14 14 13 12 11 11 11 11 11 12 13 14 14 15 15 16 17 16 14 14 17 17 16 16 14 15 13 10
15 16 12 11 9 10 13 15 17 15 16 15 15 14 14 14 13 12 11 11 11 12 12 13 14 14 15 16 17 17 17 17 14 6 10 3 11 16 15 10 9 9 10
14 16 14 13 10 10 11 14 14 14 15 15 13 12 8 7 7 9 9 9 9 10 14 16 18 18 19 20 21 19 15 15 16 15 10 3 4 5 5 6 7 9 9
5 10 15 14 12 12 10 10 13 14 13 13 13 12 12 11 11 8 8 9 10 10 10 10 10 13 15 17 19 21 18 18 16 14 18 21 13 3 3 10 10 8 7
13 10 9 11 13 12 11 10 9 11 13 14 14 13 13 10 7 7 7 6 6 7 9 10 11 12 11 11 12 12 12 15 17 18 16 14 14 16 9 5 6 9 8
14 14 18 17 13 14 14 13 12 11 11 11 11 12 11 10 8 8 6 6 5 5 7 8 8 8 8 8 9 10 11 12 14 17 18 16 9 7 8 5 8 6 5
13 14 15 17 16 15 14 16 15 14 11 13 12 9 8 9 8 6 6 6 6 6 6 9 8 8 9 11 11 11 11 13 15 16 19 20 19 16 12 8 5 5 8
7 6 9 8 17 17 17 15 18 16 14 11 9 7 6 5 4 4 4 5 5 5 7 8 8 9 10 11 11 11 12 13 14 16 15 17 21 20 19 13 8 3 6
7 9 6 5 13 15 17 18 15 14 16 12 10 7 5 4 3 3 4 4 5 5 6 7 8 9 10 9 9 9 11 10 8 10 10 10 8 11 10 12 11 5 3
5 5 6 7 10 11 12 13 16 16 13 12 10 8 5 3 3 3 4 4 4 4 4 5 6 7 8 7 6 7 9 9 8 4 2 1 2 3 2 3 3 5 3
6 3 3 6 8 11 15 16 15 14 13 12 9 7 5 3 3 3 4 4 4 4 4 5 5 5 6 5 3 4 7 8 7 6 5 4 2 1 2 3 3 3 4
8 3 2 6 9 12 14 15 15 15 14 11 9 8 7 5 4 4 4 4 4 4 5 5 5 4 4 4 2 2 0 2 1 0 1 1 1 2 2 2 3 2 2
7 3 3 7 11 14 15 14 12 11 10 9 8 7 6 5 5 5 5 5 5 4 4 5 4 4 4 2 1 1 2 3 4 3 3 3 3 4 3 3 2 1 0
12 7 5 7 12 14 15 15 13 12 10 9 8 7 6 6 6 6 6 6 5 5 4 3 3 3 3 4 4 2 3 4 6 6 6 5 5 5 4 5 4 3 2
10 9 8 8 12 14 14 14 13 12 11 9 8 8 7 6 6 6 6 5 5 4 4 3 4 4 3 2 4 5 5 5 7 6 6 9 8 7 5 5 5 4 2
14 11 10 12 15 16 17 16 15 14 13 12 10 8 7 7 7 7 6 6 5 5 5 4 3 2 2 4 5 6 7 6 6 8 8 7 5 5 6 7 6 5 3
14 13 11 13 18 19 18 17 15 13 12 10 9 9 9 9 9 8 7 7 8 7 6 5 4 2 3 5 8 8 8 9 8 7 7 5 3 3 3 4 4 5 4
15 14 12 14 18 19 18 17 17 16 14 12 11 10 10 8 8 8 9 10 10 9 8 6 6 6 4 5 7 8 8 9 8 6 5 3 3 2 3 2 2 3 2
14 17 11 11 13 17 18 17 16 14 13 12 11 10 10 10 10 10 12 12 12 11 10 9 8 7 6 7 6 7 8 7 5 4 3 2 2 2 2 1 1 1 2
15 13 12 11 12 14 16 17 17 16 14 12 11 11 11 11 12 12 13 13 13 12 10 10 9 9 8 7 7 6 3 4 4 4 3 4 3 2 2 1 2 2 2
13 12 9 7 7 10 16 17 15 15 13 12 12 12 12 11 13 13 14 15 14 13 10 10 11 10 9 8 7 5 6 5 5 5 4 3 4 3 2 4 3 3 3
11 9 5 2 4 9 13 13 12 11 11 12 12 13 12 12 14 15 15 16 15 14 11 9 9 10 9 9 8 8 7 5 5 5 4 5 6 3 5 7 6 6 5
9 5 3 3 5 8 10 11 9 10 12 13 13 13 13 13 16 17 17 18 17 14 11 12 11 11 12 11 12 10 9 8 7 6 5 6 6 6 7 8 9 8 6
7 5 4 5 7 9 9 8 9 11 12 13 13 13 15 15 15 18 20 19 18 14 13 13 13 12 13 14 13 13 11 11 10 9 8 6 7 8 7 8 9 10 9
8 6 7 7 7 9 10 10 10 12 13 12 14 15 14 16 17 19 21 21 19 18 15 15 14 13 14 16 13 13 14 13 11 8 7 8 9 9 8 10 10 10 10
11 10 10 10 9 9 11 13 15 17 18 18 16 17 20 18 17 17 16 16 16 15 17 14 15 15 14 10 11 14 13 11 10 10 10 11 12 11 11 11 10 10 10

GFSMW_925_spd_066.txt.gz
Wind_Speed
13 23 20 16 12 15 18 22 21 20 19 18 17 14 16 14 15 14 14 13 13 12 12 12 11 10 12 12 12 13 15 17 17 18 20 20 19 19 23 21 18 15 10
14 13 21 19 18 16 16 21 23 21 21 21 19 19 15 17 16 16 13 14 15 14 11 11 12 12 12 14 15 15 16 17 16 9 9 3 7 16 19 19 12 8 8
12 10 16 22 20 18 17 16 21 22 21 19 18 16 14 15 16 13 15 12 11 12 13 14 14 16 17 18 18 18 18 18 19 17 11 3 3 3 1 5 6 6 7
5 9 9 15 19 19 20 16 13 18 21 22 19 21 20 13 12 13 15 16 15 14 15 16 15 16 16 17 20 21 19 18 15 15 18 21 18 3 3 7 4 4 6
6 2 9 16 15 16 20 22 21 17 15 19 21 20 17 12 12 15 14 11 11 9 9 10 10 11 12 12 12 13 13 14 15 16 18 17 18 20 9 5 9 10 8
8 6 16 14 14 16 14 15 19 20 22 20 18 18 18 15 12 11 8 7 6 6 7 8 7 8 9 10 10 9 10 11 12 12 15 17 12 5 9 3 9 8 6
8 9 9 15 17 18 16 16 18 19 19 18 17 16 15 14 11 9 7 7 6 7 7 9 8 8 9 11 11 12 12 12 12 13 16 17 20 22 16 14 7 7 11
4 1 4 1 19 25 21 18 18 18 17 17 16 18 17 14 10 10 10 8 7 6 9 10 8 8 10 11 11 11 12 11 13 12 12 13 14 17 19 16 10 2 7
7 6 4 2 2 18 21 22 21 19 20 19 18 17 17 16 12 10 8 9 11 11 11 8 7 8 9 9 9 9 8 7 9 12 12 12 13 13 14 15 13 9 3
7 5 5 2 5 7 20 18 18 19 20 20 19 18 20 17 13 9 8 8 8 8 7 7 7 7 8 7 7 7 8 9 10 8 6 3 2 3 5 4 6 6 3
4 4 4 3 3 4 13 16 18 19 18 17 16 15 11 13 12 10 11 10 9 9 7 7 7 7 7 5 3 5 7 7 8 7 7 5 3 4 4 2 3 4 4
5 2 2 3 5 5 11 13 15 20 18 16 15 14 11 9 9 9 9 8 6 8 8 7 6 6 6 5 3 3 2 5 4 3 4 4 4 5 5 1 2 3 2
6 3 6 4 6 7 8 11 13 16 15 14 14 11 9 9 8 8 8 8 8 7 6 5 5 7 7 6 6 4 4 5 6 6 6 5 5 5 5 6 5 3 2
5 3 4 7 10 12 13 13 13 14 16 15 13 13 11 9 10 9 8 7 7 7 5 6 6 6 6 6 6 7 7 6 6 5 6 7 6 4 3 3 4 4 4
8 7 4 6 12 16 17 17 17 16 16 15 14 12 12 10 9 7 7 7 7 6 8 8 6 6 5 5 5 6 7 6 6 4 4 4 6 7 7 7 6 4 4
9 8 7 7 11 19 20 20 20 20 18 16 14 12 10 8 8 7 8 8 7 8 8 6 5 4 4 5 6 7 8 9 9 9 9 7 5 6 7 7 6 5 5
8 10 10 9 17 19 26 25 22 22 20 17 14 14 11 10 9 7 7 7 8 8 8 6 6 5 4 5 7 8 10 11 11 11 9 6 5 3 4 5 6 7 6
7 8 11 19 17 22 25 26 25 23 21 19 17 17 15 15 13 11 11 11 10 9 9 7 6 6 5 6 8 9 9 10 9 9 7 4 4 4 4 3 3 5 3
8 12 20 19 17 10 21 26 26 24 22 22 20 19 18 17 15 13 14 12 10 10 10 8 9 7 6 7 8 9 10 10 8 7 6 3 2 2 3 2 2 4 0
13 16 19 20 18 15 21 27 26 23 23 21 19 18 18 16 14 13 13 12 12 12 10 10 10 9 10 10 7 7 6 7 5 5 4 6 4 2 1 3 1 2 2
11 12 15 14 13 7 21 20 18 19 18 17 17 18 17 14 14 14 14 13 13 13 12 11 11 12 11 10 8 9 7 5 5 4 4 4 3 3 3 2 2 2 2
12 9 11 9 6 2 9 11 13 15 16 17 18 17 15 14 15 16 15 15 15 16 14 12 12 12 11 9 10 9 8 6 6 6 5 5 5 5 5 5 4 3 4
20 9 8 8 5 5 6 8 9 13 15 16 17 16 14 15 15 17 17 17 17 17 15 13 13 13 13 12 11 11 9 7 8 6 5 6 6 6 6 7 7 6 7
20 12 7 9 8 7 9 9 14 14 16 17 17 15 16 16 15 16 17 18 19 17 15 15 15 14 14 15 13 14 12 11 10 8 7 8 7 7 6 7 7 9 9
22 19 11 12 12 10 11 11 14 15 18 17 17 17 17 16 17 17 18 20 19 20 19 19 18 18 16 16 14 14 14 14 14 11 10 9 10 11 10 10 9 8 8
23 23 16 16 14 10 11 12 14 16 17 18 19 20 20 18 17 18 16 14 15 15 15 12 16 16 15 12 12 12 12 12 12 14 15 13 12 13 12 11 11 11 10

GFSMW_925_spd_069.txt.gz
Wind_Speed
9 21 23 22 23 24 24 26 24 25 25 24 22 24 21 18 19 17 15 17 16 14 15 15 13 12 13 12 11 11 11 14 15 14 15 17 17 20 17 21 22 21 12
9 14 24 26 26 29 26 24 29 29 29 27 25 25 25 21 19 19 17 16 16 15 17 16 15 15 13 13 14 14 16 16 16 14 13 3 7 11 14 15 15 12 6
9 10 20 27 26 26 29 29 29 27 27 28 27 21 22 20 20 20 19 16 18 16 14 15 15 16 16 16 15 16 18 18 19 18 9 2 3 2 2 1 4 6 7
3 5 17 20 26 25 23 25 30 27 29 27 27 28 27 21 25 24 22 19 17 17 16 17 17 17 18 19 19 19 19 18 17 18 20 18 13 2 3 4 4 3 6
6 6 9 19 25 22 19 20 23 28 29 28 28 28 26 23 18 19 19 20 18 18 18 16 16 14 14 13 13 13 12 13 14 13 14 13 14 16 7 3 7 10 9
7 7 15 22 20 16 14 14 14 17 20 26 28 25 26 20 19 20 20 19 16 14 12 10 10 10 9 10 10 11 10 10 11 12 13 13 9 5 8 4 6 7 14
4 6 9 12 16 18 20 19 18 19 19 18 23 22 22 20 20 20 18 18 17 14 11 11 9 8 9 9 10 11 12 12 12 13 14 14 18 19 20 16 8 8 10
7 6 5 5 10 22 24 22 21 21 20 19 19 19 20 22 22 20 17 15 13 14 13 12 8 10 9 10 11 12 12 12 12 13 14 14 14 14 15 17 12 2 7
7 7 7 4 1 16 21 22 21 19 16 18 18 20 18 19 20 20 20 21 16 13 12 11 11 10 9 10 11 11 10 10 10 11 10 14 13 13 16 16 16 9 2
7 7 7 7 2 4 16 19 18 19 19 16 18 20 22 21 18 18 20 20 15 13 12 10 9 8 8 9 9 9 9 9 9 9 9 9 7 7 7 8 10 11 10
4 2 1 5 6 7 10 17 17 18 18 19 19 17 16 14 12 12 12 11 13 11 9 7 8 8 8 8 8 10 11 10 10 9 10 9 7 7 5 3 3 4 5
2 2 2 1 3 5 5 11 14 18 20 19 17 16 14 14 14 12 11 9 7 7 7 7 7 8 9 7 8 9 9 9 8 9 9 8 7 8 7 7 7 8 5
4 3 3 6 8 8 8 9 12 19 19 18 18 16 16 15 13 13 11 9 8 7 7 8 8 9 9 8 8 8 8 9 10 10 9 10 11 10 9 8 9 8 6
6 5 4 9 12 13 12 11 13 17 18 17 17 17 15 12 11 11 10 8 7 7 8 8 9 9 8 8 9 9 9 9 8 8 8 9 8 5 5 5 7 5 3
7 7 7 6 15 15 15 15 15 16 18 19 18 17 15 14 14 13 12 10 10 10 9 9 8 7 8 9 9 10 10 11 9 7 6 5 6 6 6 6 6 6 6
7 8 8 10 11 18 23 22 22 22 21 21 21 19 19 18 16 14 12 11 10 10 10 9 8 7 7 8 8 10 11 10 10 10 8 7 6 7 5 6 6 6 6
7 8 8 12 19 19 25 28 29 27 25 24 23 22 21 19 17 14 12 11 10 10 10 9 8 8 6 5 6 9 11 11 11 11 11 8 6 5 8 8 7 7 4
8 8 12 20 24 25 17 32 31 30 29 26 24 23 22 19 16 14 13 10 11 11 10 9 9 9 6 7 8 9 10 11 10 11 9 6 6 5 4 6 6 5 4
12 17 19 21 25 24 19 24 31 31 30 29 26 25 24 21 20 18 16 14 13 12 11 10 10 10 8 8 9 11 11 12 12 10 9 6 6 5 4 5 6 5 4
19 22 23 23 22 21 18 16 29 31 31 31 27 24 24 22 22 18 15 16 15 13 13 12 12 11 10 8 9 9 11 12 12 10 7 5 7 6 5 6 5 6 7
24 27 25 20 19 18 14 15 22 28 29 23 22 22 23 22 20 17 17 17 16 15 14 14 13 13 12 12 12 10 10 10 10 10 10 10 8 7 6 4 5 4 5
21 25 24 23 17 15 9 8 13 17 16 18 21 21 21 20 19 16 17 17 17 17 17 15 14 14 13 13 13 12 11 9 10 10 9 8 9 8 7 6 4 4 5
21 23 22 25 19 14 11 10 11 13 16 18 19 20 20 19 17 18 18 19 19 19 18 17 16 16 16 16 13 14 13 11 11 10 9 9 9 7 7 7 6 7 8
21 23 21 20 23 15 13 13 10 14 16 18 19 19 19 17 16 17 18 21 22 21 20 19 18 17 17 18 18 16 16 14 12 10 10 10 9 8 7 6 7 9 9
19 21 20 19 20 17 13 12 11 16 16 16 18 19 19 18 19 20 21 23 24 24 23 22 21 19 19 21 19 18 20 19 17 14 12 12 11 11 10 10 9 10 10
18 16 18 18 19 18 14 13 13 17 17 18 19 22 22 21 21 21 20 19 20 20 19 18 19 18 18 16 16 17 17 17 17 17 17 16 14 13 12 11 10 11 11

GFSMW_925_spd_072.txt.gz
Wind_Speed
8 18 20 23 24 27 26 26 26 26 27 23 23 28 29 23 20 19 18 22 23 21 18 17 16 15 15 13 13 13 13 14 15 14 17 19 20 21 23 23 20 18 16
6 11 23 23 25 29 30 28 29 30 30 32 32 32 29 26 24 25 20 18 21 21 18 18 18 16 16 15 14 14 14 15 16 13 16 3 9 16 16 14 15 8 8
11 8 14 26 26 26 32 33 32 32 33 32 31 25 25 25 23 22 22 19 21 22 20 20 19 18 17 16 13 13 14 17 19 17 6 3 3 3 3 3 3 4 8
7 6 12 21 29 30 29 26 29 29 32 33 31 30 27 21 26 25 22 21 20 22 23 20 19 18 17 17 18 17 16 16 18 19 16 15 13 3 3 4 4 2 4
8 6 9 21 34 32 29 30 27 29 32 35 34 32 31 32 27 28 24 23 23 22 19 19 20 20 18 19 19 19 16 14 14 13 12 11 12 12 7 4 7 6 5
8 6 10 17 13 17 16 18 20 24 25 26 28 27 30 24 24 20 22 23 21 20 18 17 18 16 16 15 15 15 14 13 13 13 14 13 8 4 3 3 7 7 4
2 4 5 10 16 18 17 16 17 18 21 27 29 26 24 25 22 25 23 22 22 19 16 13 13 13 15 15 14 14 13 15 15 15 16 16 17 15 16 15 8 6 7
5 3 2 3 4 13 15 17 19 18 17 18 18 19 22 25 27 29 27 25 26 23 20 17 15 14 15 13 12 13 14 15 16 16 16 17 16 16 17 18 11 3 8
6 7 7 6 2 6 17 19 17 17 16 17 16 17 18 21 22 20 17 16 15 17 18 20 17 15 13 13 12 13 14 14 14 13 13 16 16 19 19 18 16 11 3
7 5 4 3 5 7 9 12 18 18 16 15 15 16 16 18 20 21 21 19 19 17 15 14 14 13 12 12 13 12 12 13 13 12 13 13 13 12 11 12 14 13 9
4 4 4 4 5 7 9 10 13 15 14 14 14 15 16 18 17 16 14 14 16 15 14 14 13 11 9 10 11 11 11 12 13 13 13 13 11 11 11 7 6 7 8
2 3 5 5 6 6 8 7 8 12 13 14 15 16 16 14 14 14 14 14 14 12 11 12 12 10 9 9 10 11 11 12 11 12 12 12 10 11 11 9 7 6 5
7 7 8 10 13 11 9 9 8 11 13 15 16 17 16 14 14 14 14 13 11 10 11 11 12 10 10 10 9 9 10 10 10 10 10 12 10 11 10 9 9 7 8
7 6 6 8 16 15 14 11 10 10 13 16 17 17 15 14 13 13 13 12 10 11 12 11 11 10 10 10 9 9 9 9 9 10 10 12 11 12 10 7 6 7 7
7 6 6 6 15 17 16 14 13 13 15 16 16 16 15 14 14 14 14 13 11 11 11 11 11 9 9 9 10 9 9 9 9 9 9 7 5 6 7 6 6 8 7
6 7 7 10 15 19 17 16 20 20 19 20 19 17 16 16 16 15 14 13 12 12 12 12 10 10 9 10 10 10 11 12 12 9 8 6 6 5 4 5 5 7 8
8 9 10 12 17 23 23 24 22 24 24 24 22 21 19 19 18 16 15 14 13 12 12 11 11 10 10 9 8 8 10 12 11 10 10 9 8 6 6 6 6 2 5
10 10 13 20 22 27 26 23 21 23 28 27 26 23 22 21 19 17 16 14 13 14 13 12 11 11 10 7 8 9 10 11 11 11 11 9 8 8 7 5 6 4 3
11 15 19 22 27 28 26 24 23 21 29 31 30 27 25 23 21 19 18 16 14 14 14 12 12 12 10 10 9 10 11 12 12 12 12 9 8 6 6 7 6 6 4
15 20 25 25 28 29 25 25 23 18 28 33 33 28 25 25 24 22 19 18 15 15 13 13 13 13 12 10 9 11 13 14 15 14 12 10 9 8 7 7 6 7 6
20 22 23 21 25 27 23 22 20 19 24 28 27 23 23 24 24 21 20 18 14 14 14 15 14 14 13 12 11 11 12 14 14 14 13 11 9 9 7 6 6 6 6
17 19 19 21 25 25 21 20 19 16 15 18 19 21 21 23 22 21 19 15 15 16 18 17 16 16 15 14 14 14 12 12 14 15 12 11 11 10 9 7 5 6 6
17 20 20 23 25 25 20 18 18 13 11 13 16 18 19 21 21 21 18 16 18 19 19 19 19 19 18 17 17 16 15 13 14 12 12 11 11 10 9 9 8 9 10
18 18 21 19 22 25 22 18 15 11 12 13 15 16 19 20 19 19 17 19 21 21 19 18 18 20 20 20 21 18 17 16 14 11 11 11 12 12 11 10 10 12 12
19 19 18 16 19 22 21 18 13 11 13 15 15 17 20 21 21 21 21 22 24 25 24 24 23 20 22 23 23 23 22 21 19 14 13 14 14 14 14 13 12 12 12
18 21 20 20 21 23 22 20 14 13 14 17 17 19 21 22 23 21 21 21 22 22 22 21 22 23 21 17 19 21 21 20 18 18 19 20 18 18 17 17 16 14 14

GFSMW_925_spd_075.txt.gz
Wind_Speed
3 8 10 17 27 25 27 32 33 35 35 37 30 29 29 29 22 24 23 24 28 26 23 20 17 16 15 14 15 15 13 13 13 12 16 18 18 21 23 22 23 21 18
5 7 12 14 15 20 26 24 27 33 35 35 28 25 33 29 26 25 23 21 22 27 25 21 19 17 17 16 15 13 11 12 13 9 8 4 11 15 14 13 12 9 8
8 7 8 13 17 17 20 27 30 35 33 33 30 26 23 24 23 23 25 24 24 26 28 23 18 18 18 18 14 14 12 13 14 14 7 2 3 3 10 7 6 5 5
6 5 8 11 19 23 22 22 24 26 28 30 31 28 26 23 28 30 26 24 22 23 26 22 20 17 16 14 16 15 17 18 18 16 14 16 12 3 4 4 2 2 4
7 8 8 17 22 28 26 24 23 21 25 26 29 26 23 24 21 20 22 20 20 19 21 21 16 12 16 20 22 19 20 20 18 15 11 9 12 14 8 5 6 6 6
5 5 6 9 15 21 26 22 23 21 22 25 26 25 23 25 25 22 21 18 16 18 18 18 20 16 20 23 20 16 16 15 15 15 14 14 7 3 7 3 6 5 6
5 4 3 2 5 9 11 15 15 20 21 22 21 23 24 29 24 20 21 23 21 15 21 20 18 17 20 19 17 16 15 14 15 14 16 15 16 15 13 13 7 7 10
3 4 3 1 3 1 5 9 11 15 16 15 17 20 24 26 23 22 24 22 21 21 21 18 14 11 11 11 12 12 13 14 14 15 16 16 16 14 15 12 10 5 9
7 7 7 10 9 8 6 6 10 15 17 18 16 16 16 17 20 23 23 24 22 21 19 17 15 13 11 11 13 11 13 14 13 14 13 14 13 13 16 16 17 8 3
8 7 8 12 12 11 10 9 9 12 14 14 14 14 14 15 15 15 17 19 20 22 20 19 18 15 13 12 13 13 13 14 14 13 12 13 13 13 13 10 13 14 13
6 5 6 11 11 12 12 12 11 9 10 11 11 12 11 11 12 15 16 14 12 13 14 13 12 11 12 12 13 14 14 14 14 13 13 13 13 12 11 9 10 8 8
7 7 8 12 16 18 18 15 13 10 8 8 10 11 11 11 11 11 11 11 13 14 13 12 10 10 11 12 13 13 14 14 14 13 13 13 11 11 11 10 10 9 7
8 8 10 12 17 19 19 17 15 15 12 9 10 12 13 13 12 11 11 12 13 11 10 9 9 10 11 11 11 12 12 13 13 11 11 9 9 9 9 8 8 7 6
7 6 7 10 17 18 18 18 15 12 11 11 12 14 14 13 12 12 12 12 12 11 11 10 10 10 10 10 10 10 11 11 10 9 8 10 11 11 10 9 9 7 7
8 8 7 8 15 20 22 20 18 15 11 12 14 15 13 12 12 12 13 12 12 11 11 10 10 9 9 8 8 10 11 10 11 9 9 10 9 9 8 8 10 10 11
6 7 7 11 14 18 21 24 21 17 15 16 18 15 15 14 14 14 14 13 11 10 10 9 9 9 9 9 9 11 11 13 13 12 10 9 7 7 7 9 9 8 7
5 6 7 12 18 22 21 24 23 19 17 22 20 19 18 17 17 16 16 15 13 10 10 10 10 10 10 10 10 10 10 11 13 12 10 8 7 6 6 5 6 6 8
6 7 11 16 20 24 23 24 22 21 18 17 23 21 20 20 18 18 17 15 13 12 11 11 11 11 10 9 9 9 10 10 11 11 10 9 8 7 7 5 5 3 2
8 13 17 21 24 24 24 26 25 22 18 18 23 27 24 22 21 20 19 17 14 13 11 11 11 11 10 9 9 11 9 10 11 11 10 9 9 8 7 7 6 5 3
12 15 18 20 20 23 23 24 25 23 21 19 21 26 27 25 25 24 21 19 17 13 10 11 11 11 12 10 10 12 12 12 12 11 11 10 7 6 5 6 7 7 6
19 19 21 21 24 27 25 24 24 23 21 17 15 18 22 24 24 23 22 20 17 14 11 12 11 12 13 12 11 12 11 13 14 13 13 11 9 9 7 6 7 7 5
15 18 18 19 26 28 26 23 23 24 19 14 12 15 18 21 22 22 21 19 17 13 13 13 14 14 15 14 13 12 11 10 12 13 11 10 9 10 8 8 5 4 6
16 19 20 22 26 26 25 24 28 25 19 14 10 11 14 16 18 22 22 19 17 14 16 17 17 18 18 17 16 15 14 12 13 11 11 10 11 10 10 9 9 8 10
16 18 17 20 22 24 27 26 27 26 18 15 11 10 12 15 17 19 20 21 20 17 18 18 18 20 20 20 19 18 17 16 15 12 10 10 11 12 12 11 10 12 12
20 16 19 19 20 23 26 27 26 27 21 17 13 12 12 14 17 20 22 23 22 20 22 22 23 20 20 24 21 23 23 22 19 15 11 12 14 15 14 13 13 13 13
19 20 20 21 22 23 24 25 26 25 23 21 18 16 15 16 18 20 21 21 20 19 19 19 21 22 21 18 17 19 22 21 18 17 18 18 19 18 18 17 16 16 15

GFSMW_925_spd_078.txt.gz
Wind_Speed
4 5 12 16 32 31 30 33 27 25 32 26 21 19 26 31 30 31 29 29 26 25 26 24 21 18 18 16 14 13 13 12 10 11 13 14 16 18 19 18 18 15 15
4 3 4 7 15 21 24 28 27 29 31 27 28 32 23 28 27 27 28 30 26 27 27 27 24 21 18 16 15 14 11 10 8 5 5 3 7 8 4 6 12 7 4
8 5 4 7 9 6 14 22 26 30 36 36 35 33 29 26 25 25 33 25 21 20 22 26 25 22 17 17 13 11 11 9 9 10 5 2 3 3 9 6 8 6 6
7 5 3 5 9 15 15 15 21 24 26 25 26 23 25 23 22 25 27 20 17 17 18 23 22 23 16 13 11 10 12 14 13 13 12 14 9 2 4 2 3 3 3
6 6 5 10 11 12 15 17 17 18 19 24 27 30 31 25 19 26 13 11 10 7 13 15 18 16 8 5 7 10 13 12 13 13 12 7 9 11 6 4 4 3 8
7 5 2 3 4 7 10 15 15 15 15 16 17 20 18 19 19 19 13 14 13 11 15 13 9 7 13 11 15 12 11 19 16 13 12 11 6 4 6 4 5 6 7
5 2 3 7 8 6 5 5 12 10 10 11 13 14 18 19 21 18 19 21 18 19 22 21 17 16 13 20 19 16 13 12 10 9 10 11 12 12 10 8 5 6 7
4 6 7 9 9 9 6 3 2 3 4 6 7 9 12 16 18 20 20 20 19 27 21 17 17 17 17 15 15 10 8 8 10 11 11 13 13 13 13 10 7 4 8
7 8 8 13 13 14 13 11 8 7 7 8 10 10 10 11 13 15 15 17 17 19 19 22 20 17 16 16 13 12 10 9 10 11 11 13 12 12 11 11 14 6 3
9 7 8 13 15 16 15 15 14 12 11 9 9 9 9 10 10 10 10 13 16 17 19 19 16 17 17 13 9 8 8 8 9 9 10 10 10 11 11 13 11 11 12
7 7 7 15 17 18 17 16 16 15 13 10 9 9 9 9 9 9 9 10 13 15 14 13 13 13 9 8 8 6 6 7 8 9 10 11 11 11 10 10 10 10 11
7 8 11 17 21 18 19 16 13 13 12 10 8 8 8 8 7 7 8 9 11 11 13 15 13 10 9 7 6 6 5 6 7 9 10 11 10 9 9 9 11 10 9
7 7 10 13 18 20 20 18 17 12 12 11 9 8 8 8 8 9 9 10 12 13 13 13 12 11 8 7 5 5 5 7 8 9 9 9 8 7 8 8 8 9 8
7 6 7 9 16 19 21 24 22 18 14 10 8 8 8 9 8 8 8 10 11 11 11 10 9 7 6 5 4 4 5 6 7 7 7 6 8 10 11 11 10 10 9
7 7 6 6 15 20 23 24 23 21 16 14 12 10 9 10 10 10 10 11 11 11 11 10 9 7 6 4 3 3 6 7 7 9 8 8 9 10 9 9 9 9 9
6 7 7 10 14 19 22 22 23 23 20 18 16 14 14 14 14 14 14 14 13 12 11 10 9 7 6 5 5 5 5 5 8 10 10 8 7 7 7 7 10 10 9
7 9 9 13 18 22 24 23 23 23 21 20 18 19 18 19 18 16 16 16 15 13 12 10 9 8 7 6 6 5 6 7 6 8 10 9 7 6 5 6 5 5 7
6 6 9 13 16 22 24 25 24 23 23 23 20 18 22 22 19 19 19 18 17 15 14 12 10 9 8 7 7 5 6 7 7 8 9 9 8 6 6 5 4 3 1
7 12 16 19 22 21 23 24 25 23 24 24 21 18 19 23 23 23 22 20 18 17 16 13 12 11 9 8 6 9 7 6 7 8 10 10 9 7 8 7 6 4 2
14 17 19 21 21 23 23 23 22 22 23 25 25 20 17 23 26 26 24 22 20 17 15 13 12 11 10 9 9 11 9 8 8 9 10 10 8 8 8 7 7 7 6
17 17 19 21 22 24 23 23 24 23 26 25 23 20 15 19 26 26 23 23 20 17 16 12 11 12 12 11 12 12 12 11 10 13 12 11 10 9 8 8 6 6 6
15 15 18 20 19 23 20 21 20 27 29 26 22 19 15 15 19 22 22 22 21 20 17 13 13 13 13 13 14 13 14 10 11 13 12 12 11 11 11 9 5 6 7
14 16 18 18 21 20 18 20 25 25 25 27 23 19 15 13 14 18 22 22 23 21 18 16 16 16 16 17 15 14 15 12 12 11 10 11 11 11 12 11 9 7 9
10 15 12 15 17 20 21 21 24 25 24 22 24 20 15 12 12 16 20 23 23 20 19 18 17 18 19 19 19 18 16 16 14 12 10 11 12 13 14 13 11 11 12
12 12 13 15 17 20 21 21 23 26 23 20 20 19 16 14 14 16 20 24 25 25 23 21 19 19 20 23 21 21 22 22 20 16 13 14 14 15 16 15 14 14 13
17 16 16 16 20 21 21 22 22 19 22 21 18 17 17 16 17 17 19 19 21 19 19 17 17 19 20 17 14 15 18 21 20 19 20 19 18 19 20 18 15 15 14

GFSMW_925_spd_081.txt.gz
Wind_Speed
5 4 15 11 19 26 28 30 26 29 24 18 22 26 24 17 16 21 24 24 25 28 28 26 23 20 18 18 17 15 14 14 12 8 7 9 12 15 13 13 11 8 13
6 2 3 6 19 24 28 32 29 25 28 26 21 21 17 19 17 20 21 22 26 30 31 32 29 24 22 20 19 18 15 12 8 4 1 2 5 3 5 12 11 13 5
3 3 6 16 14 17 20 24 31 31 33 31 28 28 27 20 19 21 22 26 23 24 26 30 28 27 26 23 22 21 17 13 9 7 4 1 2 3 5 6 10 7 8
3 3 4 7 14 16 22 27 31 28 33 29 31 31 29 16 31 20 17 17 21 26 23 23 18 16 19 19 17 17 15 11 9 6 9 10 8 3 4 0 1 5 6
4 4 4 6 5 9 15 19 17 19 23 26 32 28 25 22 17 21 16 21 19 17 22 21 11 6 8 6 3 1 2 5 7 6 5 6 6 6 6 5 3 4 6
4 4 4 3 4 2 4 8 11 8 9 15 17 20 20 30 23 26 26 22 18 21 24 19 17 17 14 10 8 7 11 12 11 10 8 8 3 3 5 5 6 7 6
1 4 5 6 11 11 10 8 3 2 3 3 5 6 9 13 20 26 25 22 22 26 21 19 16 12 14 16 21 20 19 18 15 11 9 6 10 10 8 7 7 5 8
6 9 6 9 14 16 15 12 10 6 3 2 2 4 4 7 8 10 15 21 24 24 19 20 18 13 16 21 22 23 22 15 12 9 8 8 8 10 10 9 7 5 7
10 5 8 14 17 18 18 16 14 10 6 3 1 1 3 4 4 6 10 13 15 19 20 20 17 16 23 22 19 16 15 13 10 8 8 9 9 10 10 12 12 8 4
8 9 10 13 17 17 17 18 17 14 11 8 6 4 3 3 4 5 6 8 12 15 17 19 19 21 18 17 16 14 12 10 7 8 8 8 8 7 9 10 11 11 10
8 8 9 14 17 20 21 19 17 15 14 12 9 6 4 3 3 4 5 6 9 12 15 18 20 19 18 15 14 13 10 9 9 8 8 8 8 8 9 10 11 11 12
9 8 10 13 20 22 23 22 20 17 14 12 9 8 7 4 3 4 5 7 8 11 14 17 18 18 18 16 13 11 10 9 8 7 7 7 8 7 8 9 11 11 12
10 10 13 16 18 22 24 25 24 22 18 13 11 7 5 5 5 4 6 7 9 13 16 18 19 19 17 15 12 10 8 7 6 6 6 7 6 7 6 7 8 9 10
8 8 9 12 15 20 22 24 23 22 21 18 14 11 6 5 5 6 8 10 13 15 18 18 18 17 14 12 11 10 8 5 5 4 3 4 5 5 7 9 10 10 10
9 9 9 10 14 18 22 24 23 23 23 21 19 16 12 7 6 7 8 10 11 13 14 15 15 14 13 12 10 7 5 2 1 4 5 5 5 7 8 9 9 9 10
6 6 6 10 13 17 20 23 23 24 24 23 22 20 15 13 11 10 10 11 13 14 15 14 13 12 11 9 9 8 6 5 4 4 7 8 7 6 7 8 8 9 10
4 6 7 10 12 16 19 21 23 22 22 22 23 22 17 16 16 14 14 13 14 14 15 14 13 13 13 12 11 9 9 8 7 6 5 9 9 8 7 6 5 6 8
9 9 11 12 15 17 17 19 20 20 20 21 21 20 19 16 17 17 19 18 18 18 17 16 15 14 12 12 11 10 9 8 8 8 8 10 10 9 8 7 6 6 5
6 9 12 13 16 17 18 18 19 19 18 19 22 22 20 18 16 21 21 20 19 19 19 18 16 15 14 14 13 12 11 9 8 9 11 12 12 10 9 9 8 7 5
7 10 11 14 15 17 19 18 19 20 19 22 26 23 21 18 17 22 24 23 22 22 18 17 17 15 14 15 15 16 13 11 10 10 11 12 12 11 11 10 10 9 9
9 10 12 15 14 20 19 17 18 16 24 25 26 24 21 18 16 17 23 24 24 21 20 20 18 17 17 16 16 17 16 15 13 14 14 14 13 11 11 11 9 9 8
12 12 16 14 17 18 18 18 17 21 22 24 24 24 21 18 15 15 18 23 24 23 22 20 18 17 17 17 18 18 18 15 15 15 15 15 14 13 13 12 8 8 8
12 12 15 14 20 17 18 18 20 20 20 25 22 23 22 17 13 12 16 20 24 24 21 20 18 20 18 19 18 18 18 17 15 13 14 15 16 14 14 14 10 10 10
12 14 14 14 18 18 19 18 20 20 18 19 19 22 24 20 14 12 14 18 22 21 19 19 19 21 19 21 21 21 20 20 15 14 14 14 15 16 16 15 14 14 13
13 13 14 16 18 19 21 22 20 20 18 19 21 18 18 21 19 15 16 19 24 28 25 26 26 23 22 24 22 25 26 24 24 17 16 15 16 17 18 18 18 16 14
15 15 17 17 20 21 23 23 20 17 16 17 17 19 20 19 20 19 18 18 21 23 24 23 21 22 19 17 18 22 24 25 24 22 21 18 18 19 20 20 19 18 17

GFSMW_925_spd_084.txt.gz
Wind_Speed
3 3 4 7 10 13 18 30 27 26 21 12 15 13 14 15 12 14 15 16 17 16 17 17 17 16 16 16 17 16 14 13 11 8 10 10 9 11 11 7 5 4 8
4 9 4 10 6 13 20 22 21 19 23 15 10 15 13 8 8 9 10 13 17 18 18 18 17 17 17 17 17 17 14 14 14 9 5 4 5 3 6 7 6 6 6
7 6 11 2 5 12 8 15 20 11 16 13 16 17 16 13 6 4 10 10 11 16 18 20 23 23 21 15 16 18 19 17 16 17 7 3 4 3 6 4 6 5 5
6 7 7 5 5 9 17 15 16 18 27 28 26 19 18 8 11 12 16 12 9 10 16 20 20 20 22 26 22 19 14 16 15 15 12 7 6 4 4 2 3 3 6
10 11 4 9 10 22 23 19 25 27 24 25 30 33 24 24 24 28 18 18 15 11 14 15 11 12 20 22 15 10 7 8 9 10 8 6 4 5 8 6 6 4 7
14 10 5 5 7 9 17 25 21 17 25 29 32 31 29 28 27 26 23 15 14 18 16 16 18 25 24 23 21 18 10 8 7 9 12 13 8 7 6 6 7 6 9
15 9 3 7 12 5 2 5 7 6 7 19 24 27 26 34 34 34 31 25 22 26 26 24 24 28 27 25 22 16 16 19 20 19 20 18 13 10 11 8 5 5 5
14 11 6 13 9 5 8 9 9 7 5 5 8 11 15 21 25 27 27 29 31 35 35 31 30 30 30 23 23 21 22 20 20 18 17 13 11 10 9 6 6 4 8
12 12 3 14 7 11 12 12 12 10 7 5 4 4 6 8 12 14 18 21 22 26 27 29 30 30 26 23 21 21 22 21 20 18 16 14 11 11 9 8 9 9 3
13 11 7 12 12 13 12 14 13 12 10 8 5 2 1 4 6 9 11 12 11 15 17 23 28 26 23 20 19 18 18 19 18 16 13 12 9 8 7 8 10 12 12
10 8 11 11 12 15 16 15 15 14 12 10 7 5 3 2 3 5 7 9 12 14 17 19 23 22 20 20 19 18 18 18 16 15 12 11 10 7 8 8 9 10 11
10 9 10 9 15 16 17 18 18 17 15 12 10 8 5 4 2 4 6 7 6 10 13 17 20 20 20 20 21 22 21 18 16 14 13 11 10 10 9 9 10 11 10
8 8 9 13 15 15 17 17 16 15 15 14 13 11 10 8 5 3 4 6 8 9 12 15 18 21 23 22 21 20 19 17 14 14 13 11 10 10 9 9 10 9 11
10 10 11 12 14 13 13 13 13 14 15 15 14 12 11 10 8 6 4 4 6 8 11 13 16 18 20 21 19 17 16 14 13 12 11 10 10 10 10 10 10 9 9
10 10 11 11 14 15 14 15 15 15 15 14 13 13 13 11 10 8 6 6 7 9 11 14 15 17 17 17 19 18 14 12 11 9 9 10 10 11 9 9 11 10 10
8 9 9 10 12 15 16 16 17 17 15 15 15 14 13 11 10 10 10 10 10 11 11 13 14 15 17 18 18 16 14 12 11 10 8 8 11 12 13 13 12 10 9
5 8 9 12 15 16 15 16 18 17 14 13 13 12 13 12 10 11 12 14 14 14 15 13 13 16 15 19 18 16 12 13 12 12 12 11 13 13 10 9 9 9 9
5 5 6 7 8 11 13 15 15 14 14 14 14 13 13 13 11 11 15 15 15 17 19 18 17 15 15 19 19 18 14 16 15 15 13 14 14 14 13 10 8 5 5
5 6 6 7 8 8 11 13 14 15 15 15 15 15 15 15 13 12 14 16 16 17 20 20 20 19 17 21 20 18 16 13 13 12 13 12 14 14 13 11 9 6 5
5 6 6 7 7 8 11 11 11 12 13 16 19 19 19 17 16 14 12 15 17 22 19 21 22 21 19 21 21 20 16 14 10 9 11 15 14 14 13 12 11 10 9
6 7 8 9 8 11 12 12 12 12 14 15 17 18 17 18 18 17 13 13 15 17 19 20 20 20 20 17 20 20 16 13 13 10 11 12 15 16 16 14 11 10 9
6 6 8 8 8 10 10 11 12 13 14 15 16 17 17 17 17 16 15 14 13 15 16 16 16 20 17 18 20 20 20 19 15 12 11 12 18 17 15 15 10 11 10
8 8 10 11 10 9 9 13 13 14 15 16 16 16 19 18 16 15 14 14 13 15 16 17 16 16 19 17 20 20 21 22 20 13 13 14 16 16 14 15 12 12 10
11 11 12 12 13 12 12 13 14 14 15 16 16 17 16 17 17 17 16 14 16 17 17 18 19 19 22 24 23 23 24 25 23 19 15 14 16 15 14 15 16 13 12
11 11 12 14 16 15 15 14 14 14 15 15 16 16 15 16 18 17 19 19 21 21 20 23 23 20 20 31 30 28 29 26 29 21 16 15 15 16 16 16 16 15 14
12 13 14 15 16 15 16 15 14 12 14 16 16 17 18 17 17 18 21 19 20 23 23 24 26 28 30 26 26 26 28 29 24 21 20 18 18 18 18 18 18 17 16

GFSMW_925_spd_087.txt.gz
Wind_Speed
2 2 12 20 17 20 20 20 23 24 27 34 26 22 19 18 15 14 14 14 15 16 15 13 14 15 14 15 15 15 15 15 14 12 12 9 13 12 10 8 6 4 4
2 5 12 13 10 3 13 17 18 21 31 36 31 24 23 20 17 14 14 13 11 12 14 15 15 15 16 14 16 18 16 17 18 12 10 4 10 8 9 8 5 4 4
3 5 10 13 4 15 11 9 15 14 20 25 23 16 15 14 14 12 12 8 9 12 14 16 18 18 14 15 15 18 20 18 18 20 8 3 3 8 10 7 4 4 5
2 3 9 11 9 5 11 8 9 5 19 21 20 14 12 12 14 14 11 8 7 6 8 12 16 16 16 18 24 29 19 17 17 16 19 10 4 1 2 7 5 4 6
4 1 4 10 17 13 5 4 10 7 11 23 22 23 16 8 7 9 10 2 7 14 10 10 14 18 13 14 12 20 24 16 11 9 5 4 5 5 3 5 5 7 6
7 7 3 8 7 9 12 14 13 13 15 15 22 17 14 14 15 22 22 12 8 9 12 14 16 16 13 13 20 19 18 15 17 13 12 11 7 5 7 5 7 7 6
10 4 2 8 10 4 1 10 13 19 27 29 29 25 26 21 20 20 24 9 24 18 25 25 26 17 17 13 26 21 22 19 20 18 17 14 17 16 15 11 6 5 4
6 8 8 12 8 9 6 4 7 7 6 6 10 29 28 32 35 33 29 30 29 28 28 31 27 24 24 22 25 24 24 24 22 19 17 20 18 19 16 10 9 3 7
7 12 11 13 13 12 11 8 7 7 5 4 6 4 16 23 22 22 23 23 24 26 28 31 33 27 25 29 27 30 29 25 24 22 20 18 16 17 16 15 13 9 2
11 11 11 13 13 11 9 9 10 11 11 10 7 6 2 3 4 8 14 19 24 28 29 31 31 28 29 30 30 28 29 26 25 22 19 16 16 14 15 15 14 13 10
7 10 10 11 10 12 10 10 14 14 13 13 11 9 6 2 2 4 7 10 12 15 17 20 24 29 30 30 27 25 26 24 23 20 18 17 14 13 13 13 13 14 14
9 8 10 11 9 9 9 13 14 14 14 12 11 9 7 6 4 3 6 8 9 11 11 13 17 23 26 26 25 23 27 26 24 21 19 16 13 13 12 13 12 13 13
10 9 8 9 9 9 12 13 14 14 13 12 11 9 7 5 4 5 5 6 8 10 11 12 15 19 21 21 22 24 24 22 21 20 18 17 15 15 14 14 11 12 12
8 7 6 8 9 10 12 12 12 12 12 12 10 9 9 8 7 6 5 6 6 7 9 10 13 16 19 21 20 20 20 20 17 16 16 15 17 15 13 14 13 13 12
7 6 6 6 9 11 11 10 9 10 12 11 10 11 12 11 10 8 7 6 7 7 7 9 12 15 17 20 20 19 18 16 15 15 15 15 14 15 16 16 12 12 12
5 6 7 8 9 10 11 11 12 11 10 9 9 10 11 12 12 11 10 10 9 9 10 11 11 13 15 18 18 18 18 16 15 15 13 13 14 15 16 15 13 11 10
6 7 7 9 10 11 11 12 12 13 13 13 12 11 11 11 11 12 11 12 12 11 12 12 14 14 15 17 19 16 14 14 14 14 15 14 11 12 12 13 11 10 13
8 8 11 13 13 11 8 10 10 10 11 11 13 14 14 15 15 14 12 12 13 14 14 15 15 15 16 16 20 19 14 15 17 17 16 14 13 14 12 10 10 9 8
7 7 7 8 11 13 15 17 16 12 12 12 14 15 15 17 18 18 17 16 14 14 15 16 15 17 18 18 21 21 21 17 15 16 16 13 11 12 14 12 10 8 8
5 5 6 6 7 7 9 12 14 16 16 16 15 15 14 13 15 17 19 18 17 17 16 16 19 20 19 19 23 22 19 16 16 13 14 14 13 14 16 15 14 13 13
8 8 7 8 8 7 9 10 11 12 13 16 18 19 17 17 16 16 16 17 18 18 18 18 22 23 22 20 24 25 20 19 17 13 13 14 17 16 19 17 15 13 12
8 9 10 11 11 10 11 12 12 11 13 14 16 16 17 16 16 16 16 15 15 16 17 17 17 22 20 22 22 27 25 18 20 21 17 17 18 20 19 18 14 13 14
11 11 12 14 13 13 13 15 15 15 15 15 16 16 17 17 15 16 16 14 13 12 14 16 17 17 23 21 26 27 29 24 22 19 15 15 16 19 18 17 16 15 16
11 12 14 15 16 15 15 16 16 15 15 16 17 16 16 16 17 16 15 16 12 13 14 15 17 17 18 22 25 25 28 28 26 22 19 17 16 18 20 19 18 18 18
13 13 15 16 18 18 18 17 17 16 16 17 17 17 16 16 18 16 16 17 18 17 16 17 20 18 19 29 33 31 29 30 30 27 22 18 19 21 21 20 22 20 17
14 16 17 18 19 19 20 19 18 17 17 18 17 16 17 17 17 18 18 16 19 22 23 23 25 24 25 23 25 30 32 30 27 24 22 21 21 20 21 20 20 23 20

GFSMW_925_spd_090.txt.gz
Wind_Speed
6 6 12 14 14 13 14 19 19 18 26 32 31 29 23 20 21 21 20 22 24 21 20 17 14 14 15 16 15 16 15 16 15 12 15 14 15 15 15 12 10 3 5
5 5 6 13 14 12 8 11 18 23 29 26 28 26 27 27 27 25 24 23 19 17 17 17 16 14 15 16 16 18 17 16 17 12 6 2 9 19 17 9 7 7 2
7 5 4 9 15 12 10 4 9 20 25 26 27 22 24 18 25 24 21 20 18 17 16 17 16 17 13 18 18 17 11 10 15 23 8 2 4 5 12 13 10 6 5
3 4 6 8 8 10 7 9 2 6 16 21 20 22 19 13 20 16 22 19 17 14 14 15 14 17 20 19 20 15 13 12 9 16 25 13 2 2 2 13 11 8 7
5 3 2 6 7 4 5 11 7 7 3 10 15 19 15 14 6 5 10 11 13 13 14 15 15 20 17 18 17 17 15 15 16 13 14 11 4 8 6 2 2 6 9
7 6 9 7 5 2 2 5 1 4 1 2 9 16 13 16 6 4 9 14 10 13 16 13 17 15 15 17 15 14 11 12 14 14 15 13 7 4 2 1 5 8 10
6 8 9 10 11 12 10 11 9 10 8 8 15 16 12 9 21 14 13 21 25 24 20 18 19 21 18 18 19 17 18 15 10 21 20 18 14 9 15 14 6 6 4
8 10 11 14 16 21 16 10 5 7 6 5 11 18 22 20 21 20 17 18 23 25 25 28 22 25 17 17 22 16 21 20 17 24 23 23 18 19 23 17 12 2 7
9 12 12 13 10 13 12 15 12 10 6 3 4 6 14 24 25 26 29 26 24 25 25 26 25 22 23 24 27 21 24 22 24 25 25 23 22 21 21 22 18 10 3
11 9 6 15 13 13 15 16 16 13 12 9 6 5 3 1 6 17 20 23 26 23 26 27 27 28 33 31 28 28 29 28 28 29 27 26 23 22 21 20 17 15 10
9 6 6 14 16 12 15 16 16 14 13 12 10 8 7 4 2 0 4 9 11 11 14 20 23 23 29 31 31 31 29 29 31 27 29 27 24 23 20 17 17 17 16
6 3 7 11 10 12 15 16 15 16 15 14 12 11 10 9 8 5 5 7 9 10 15 16 16 19 24 29 32 33 30 30 28 29 29 27 24 21 18 16 16 17 17
5 5 7 9 12 14 14 12 13 13 13 13 11 11 10 9 9 8 8 7 9 10 11 12 17 18 21 24 27 29 30 27 29 28 28 28 25 21 18 16 17 17 15
7 6 6 8 11 12 12 14 15 14 14 12 11 10 12 12 13 11 11 11 11 10 9 12 13 16 19 21 23 23 24 24 24 24 23 23 22 21 19 20 19 17 15
7 7 6 5 9 10 11 12 13 14 14 13 12 12 14 14 14 14 12 12 13 12 11 12 14 15 17 19 21 21 21 23 22 21 20 19 18 16 16 17 17 15 14
6 5 5 6 8 9 9 10 11 12 13 14 16 17 17 16 15 14 15 12 13 15 14 14 15 15 17 18 19 20 21 22 21 21 19 18 17 16 17 15 16 15 17
5 5 6 7 7 6 5 7 10 11 11 11 11 13 15 16 16 16 16 16 15 16 17 17 16 18 16 17 19 20 20 20 20 19 18 18 16 16 15 15 15 14 13
5 3 3 2 2 4 3 7 8 7 10 11 12 13 14 16 16 17 17 17 17 16 18 18 18 19 19 19 18 20 18 19 19 18 19 18 16 14 14 15 15 15 16
1 3 4 6 7 7 6 8 8 8 8 6 10 12 14 16 16 17 17 17 17 17 17 20 19 20 21 21 19 22 21 21 20 19 19 18 17 15 16 16 16 14 13
0 3 7 10 12 12 12 14 13 13 11 10 13 12 11 11 12 14 17 18 18 20 19 20 20 20 21 22 22 23 26 24 22 21 21 19 19 17 21 21 18 18 17
3 4 6 7 6 6 9 12 16 19 19 19 18 17 16 15 14 15 15 16 19 19 20 20 20 21 21 23 24 25 28 29 26 24 22 23 22 18 20 21 22 18 14
4 5 5 6 6 6 7 10 12 14 15 18 20 20 19 17 17 16 17 16 15 16 16 17 19 19 24 25 27 27 31 30 28 27 24 22 23 23 23 22 18 15 15
8 8 8 11 12 12 13 14 15 14 15 16 18 19 20 20 18 18 18 17 15 15 14 14 15 15 20 21 23 26 29 27 27 26 24 22 21 22 22 23 20 18 19
8 8 11 13 15 16 17 18 19 18 17 17 18 19 19 20 18 16 18 15 15 16 16 17 17 17 18 20 21 24 27 33 27 25 21 20 22 22 23 23 22 24 23
10 12 14 16 17 19 21 20 20 20 20 19 19 19 19 19 18 20 18 18 14 11 17 19 21 20 19 20 21 22 26 28 30 27 22 23 24 23 25 26 27 27 22
14 15 18 19 22 23 24 26 26 23 22 21 19 18 18 18 18 19 23 19 16 16 18 20 22 24 23 24 23 21 23 29 29 25 24 23 22 22 23 25 25 29 27

GFSMW_925_spd_093.txt.gz
Wind_Speed
17 6 2 7 16 18 17 17 16 17 12 13 17 18 26 30 26 29 33 32 32 32 30 29 26 25 26 25 21 19 19 18 15 15 15 15 15 15 15 15 12 14 11
6 6 4 6 14 17 17 17 20 12 12 15 14 21 23 22 26 28 32 30 33 32 32 28 27 26 23 26 23 21 19 17 18 11 4 2 8 20 21 19 17 15 10
9 7 6 8 10 14 14 16 19 19 16 15 18 18 23 23 24 25 29 39 40 36 32 31 29 25 24 21 23 22 22 20 17 20 6 2 4 3 14 16 21 17 12
4 4 5 6 2 3 3 4 10 14 16 14 18 21 20 18 21 22 24 30 33 29 25 26 29 26 23 20 24 22 21 17 15 12 15 6 4 2 2 11 15 15 12
8 7 5 3 7 3 4 5 1 3 5 12 17 20 20 22 13 10 18 24 26 34 30 23 25 21 22 21 25 23 24 21 21 22 14 14 13 10 1 3 5 11 9
9 9 11 11 8 5 4 3 5 4 3 6 10 12 12 22 21 13 10 11 17 12 20 24 22 13 16 17 28 21 22 24 23 21 23 19 9 10 8 3 4 3 7
9 6 8 9 10 8 7 4 3 6 6 5 3 6 4 9 20 22 8 10 11 11 13 13 13 12 16 23 25 20 19 18 21 26 27 24 23 18 18 16 4 5 8
9 8 7 9 11 16 15 11 10 10 10 8 4 2 4 9 6 6 20 18 16 23 27 27 23 19 17 26 22 21 22 19 23 25 25 24 24 10 20 10 10 3 8
9 7 10 11 15 20 21 19 17 18 14 10 8 6 7 3 7 11 13 15 18 18 18 25 30 25 21 27 24 21 19 20 26 28 27 26 19 21 21 18 20 13 4
10 8 10 13 18 15 20 21 21 18 16 13 12 9 4 1 7 14 17 20 25 27 31 31 31 25 24 30 27 23 20 26 22 27 24 22 22 28 24 22 23 24 16
8 7 7 13 20 18 18 21 18 19 18 15 12 10 10 8 5 3 3 4 7 8 11 11 19 27 30 31 30 30 28 24 25 29 28 27 28 26 23 23 24 23 20
7 6 6 13 17 16 18 17 17 17 16 14 13 15 14 12 11 9 8 8 8 8 8 8 9 11 14 19 22 25 28 30 31 30 29 30 28 27 27 26 26 24 21
1 3 5 10 13 14 12 14 17 18 17 17 16 16 16 16 16 14 14 14 14 13 12 11 9 10 13 16 21 24 27 29 33 32 33 33 30 30 28 27 26 23 21
7 6 6 7 12 14 15 16 16 17 17 17 16 18 17 17 17 16 14 13 14 15 16 13 13 12 13 15 17 20 24 28 29 30 30 30 31 32 30 27 26 24 22
5 5 5 5 9 9 10 13 14 15 17 17 16 17 16 16 16 16 17 16 14 13 15 16 15 14 13 14 15 17 20 21 22 22 22 23 26 26 25 25 25 24 24
5 4 5 6 6 8 10 12 14 16 15 15 15 15 17 18 18 18 19 17 16 15 13 14 16 16 16 15 16 17 19 20 20 20 19 19 22 22 23 24 24 26 27
4 4 3 4 8 9 8 11 13 12 12 11 11 15 16 17 18 19 20 20 21 19 18 16 14 17 17 16 16 16 18 20 21 22 23 22 22 22 22 21 22 23 24
4 4 4 5 7 8 7 9 12 12 14 12 14 17 18 19 19 19 18 18 19 21 21 22 19 18 20 18 18 17 19 19 21 21 23 25 24 23 23 23 22 21 22
1 2 3 5 8 9 5 8 11 11 12 12 15 17 17 19 19 21 20 19 18 20 21 22 22 21 21 20 20 19 19 20 21 20 21 24 24 24 25 25 24 22 21
3 5 9 10 10 8 6 8 9 10 13 13 16 17 17 17 18 20 21 23 22 21 21 23 23 22 22 22 20 23 23 24 23 22 23 24 24 23 23 26 25 25 24
7 8 10 11 15 16 19 21 20 19 18 16 16 17 17 18 19 18 20 20 22 21 20 20 20 22 20 20 22 22 25 26 27 27 28 28 26 24 25 25 25 28 22
7 7 7 8 8 9 11 16 20 23 23 24 24 22 20 18 16 18 18 19 17 19 19 18 19 18 19 21 21 20 26 28 27 28 30 30 26 27 25 25 23 21 20
4 3 4 6 11 10 11 13 18 18 17 19 21 25 25 22 19 18 15 14 16 16 18 17 17 17 18 21 20 20 21 26 29 29 30 28 24 27 25 26 25 22 23
5 5 7 10 14 15 14 16 19 20 20 22 23 24 23 24 21 18 15 16 15 17 13 14 17 18 20 20 22 22 22 21 25 30 28 23 22 26 27 26 26 26 29
7 8 10 13 16 15 17 19 20 23 25 26 26 26 25 22 22 19 16 14 16 13 15 17 16 18 19 20 23 24 23 20 21 23 24 22 22 24 25 28 28 31 30
11 13 15 17 18 16 19 23 24 24 25 24 23 25 23 19 18 15 21 21 14 14 15 17 18 19 22 25 24 25 24 24 21 19 18 20 22 22 23 25 25 30 31

GFSMW_925_spd_096.txt.gz
Wind_Speed
15 20 21 18 19 22 23 23 20 19 19 21 22 22 24 25 30 29 38 36 33 35 38 37 34 33 35 35 32 29 26 24 22 16 18 18 17 18 20 20 17 20 18
8 6 13 14 17 19 26 26 23 20 22 22 23 18 23 29 31 29 32 37 39 36 36 34 35 36 37 34 32 30 26 26 22 11 5 2 8 19 20 20 19 21 17
13 8 8 8 6 9 13 16 19 18 20 19 18 17 15 12 22 19 24 31 39 37 35 36 37 37 35 35 34 34 30 26 26 23 7 2 4 3 11 21 20 21 22
2 3 5 9 9 8 6 5 3 6 16 19 21 25 23 18 17 25 25 27 30 35 34 34 38 38 37 36 38 37 35 30 24 23 19 7 6 3 0 2 12 19 21
7 9 7 5 9 7 8 6 4 1 3 14 23 22 22 18 16 20 26 27 26 34 32 33 34 37 33 32 33 37 36 36 27 25 15 15 8 4 3 2 3 4 6
8 8 12 11 10 5 5 4 4 3 3 3 6 18 21 18 16 20 20 22 18 18 34 34 31 27 25 24 30 32 31 29 21 28 27 28 14 14 9 3 4 14 22
10 8 9 8 10 7 4 2 4 7 5 3 2 1 8 8 8 25 24 17 15 23 21 30 30 27 23 21 26 25 23 23 21 26 28 29 25 19 23 15 5 4 5
9 10 10 12 13 16 12 9 12 11 10 8 8 10 9 3 3 11 17 16 15 9 17 13 11 19 20 18 24 28 27 23 22 28 33 29 27 31 26 22 13 3 4
10 10 12 16 15 16 17 17 15 15 13 14 14 15 18 12 5 4 5 5 5 12 10 11 14 23 28 27 27 27 27 22 25 30 29 29 27 27 25 26 28 18 5
10 9 10 16 16 17 19 20 19 19 17 17 17 18 17 14 12 8 6 4 6 11 13 19 23 27 28 29 26 23 24 22 22 24 24 28 30 26 24 21 19 19 4
9 8 11 9 10 13 19 17 20 19 18 16 18 17 15 15 11 11 10 9 6 6 8 9 10 14 21 27 25 24 26 28 27 27 26 27 21 23 26 25 25 22 19
8 6 6 5 11 13 17 21 19 19 17 16 17 15 13 12 14 13 12 10 10 8 7 8 9 11 14 21 29 29 29 31 30 30 28 29 27 28 31 31 27 24 26
4 4 4 4 8 13 16 15 16 16 15 14 13 14 16 16 15 15 14 13 12 10 9 9 9 9 9 12 16 20 25 29 32 32 32 32 32 31 31 34 31 27 26
4 4 5 7 10 12 13 14 15 14 13 12 13 14 16 17 17 17 16 16 15 14 12 11 11 10 11 13 15 18 19 24 27 30 31 32 33 33 33 35 33 30 27
5 4 3 3 8 10 11 14 15 17 18 18 18 19 18 17 17 17 18 18 18 18 17 15 13 12 12 12 13 15 17 20 23 25 29 31 30 31 33 32 33 31 29
4 3 4 5 8 10 11 13 16 18 17 16 17 18 19 19 20 20 18 18 19 18 18 18 18 16 15 15 15 15 17 19 19 22 24 25 26 27 26 28 29 32 32
1 2 3 4 7 9 10 14 15 14 16 16 15 20 22 22 22 21 22 21 19 18 17 18 20 20 19 18 18 17 17 18 19 21 22 22 23 23 23 23 23 23 26
2 2 3 6 8 10 10 10 13 15 16 16 15 17 19 19 20 22 23 23 22 22 21 21 20 21 20 19 20 19 18 20 21 20 21 22 24 24 24 24 25 26 26
2 2 4 7 10 10 8 10 13 12 13 14 14 15 17 21 23 24 24 23 24 25 25 22 21 22 23 21 19 20 20 21 22 22 22 23 25 24 23 23 23 23 24
2 4 6 7 7 10 10 12 14 13 15 16 17 17 18 19 21 21 23 23 24 25 22 20 19 19 21 21 20 18 20 21 22 24 22 23 25 26 27 27 27 26 26
8 10 10 11 12 13 13 16 17 17 22 23 23 23 20 19 20 20 18 20 19 21 22 23 22 19 17 20 19 18 18 20 22 24 25 25 24 25 26 28 30 31 29
9 10 11 12 13 15 18 21 24 26 27 29 29 30 29 28 26 24 24 24 20 19 21 23 25 21 17 16 18 18 18 17 19 23 25 26 27 26 26 28 28 26 23
7 8 9 11 15 16 15 16 19 20 21 23 25 29 34 35 32 27 23 22 18 19 21 21 20 22 22 20 19 19 19 19 18 16 27 28 25 24 28 30 28 24 25
7 8 8 12 16 18 17 17 19 20 21 23 26 28 29 31 30 28 24 22 21 20 20 18 16 20 20 18 19 21 21 22 20 22 18 27 27 22 24 28 29 29 30
9 11 12 15 18 18 18 19 23 25 23 26 29 29 27 27 30 30 24 18 17 18 22 21 20 18 18 19 21 24 23 23 24 24 18 17 20 20 21 24 27 30 30
10 13 15 16 18 16 20 22 22 21 24 24 22 23 25 24 26 27 26 20 18 17 14 18 20 21 20 23 24 24 23 23 23 24 15 15 18 19 22 21 21 25 29

GFSMW_925_spd_099.txt.gz
Wind_Speed
8 18 21 20 22 20 22 23 25 22 22 20 18 15 17 18 21 24 26 27 32 25 31 28 32 35 39 40 38 35 32 32 28 22 21 21 21 22 23 23 23 23 23
7 11 18 17 19 21 21 22 26 23 23 21 19 14 14 18 23 26 27 28 30 29 28 33 34 36 40 35 34 35 28 30 29 14 2 2 11 24 24 21 24 25 23
10 9 6 6 7 9 13 17 18 18 19 18 18 17 11 15 16 25 30 34 32 29 29 33 35 38 40 36 38 36 34 24 30 29 9 2 4 2 10 23 22 22 21
8 3 7 9 10 10 9 6 7 12 14 12 16 19 17 14 22 25 30 34 35 32 30 32 37 37 38 38 40 40 38 31 23 29 28 14 5 3 2 5 14 21 21
3 8 8 11 14 13 11 11 8 4 1 6 12 15 16 20 26 23 27 32 32 29 29 29 33 37 37 39 38 37 38 37 27 26 24 16 12 6 2 3 3 12 18
10 11 14 14 11 7 8 9 6 5 2 1 1 4 19 22 21 22 22 26 29 30 29 26 29 30 31 32 33 33 33 32 33 31 28 24 12 10 5 1 3 8 21
12 11 11 13 14 10 7 9 8 9 6 4 2 5 9 12 20 20 21 22 24 25 26 23 27 33 33 30 21 19 20 21 27 30 29 29 26 19 20 14 7 6 11
8 10 11 15 17 18 17 15 13 13 12 10 10 10 14 4 10 10 12 21 20 24 21 23 27 30 33 32 27 27 20 18 20 20 23 24 27 29 29 22 15 3 5
9 12 13 19 18 20 18 18 17 16 17 14 13 14 15 16 15 15 8 10 10 7 4 2 4 7 15 28 24 23 26 26 29 29 27 28 30 30 31 31 28 21 8
11 10 11 16 17 18 17 20 18 18 16 17 19 16 16 17 16 15 15 15 15 10 7 7 10 14 16 16 18 21 23 23 29 31 28 28 29 31 31 33 31 27 20
10 9 11 12 15 15 19 20 16 22 18 19 17 15 16 16 19 18 16 15 13 14 13 10 11 12 11 15 18 23 23 26 27 28 25 27 26 25 28 28 31 23 17
7 8 10 10 11 11 16 15 20 19 19 17 16 18 18 17 17 16 15 15 13 11 11 10 9 10 12 12 20 23 27 28 27 30 28 28 28 28 25 24 23 21 22
4 4 3 4 6 9 11 13 14 15 14 13 15 16 17 20 19 17 18 16 16 16 14 12 12 12 12 13 15 16 15 24 30 29 28 30 29 29 27 29 29 29 29
4 4 3 3 3 5 8 11 13 13 12 12 14 18 18 18 18 18 18 19 19 18 17 15 15 14 14 14 14 15 17 20 22 19 25 29 29 31 29 31 33 31 29
3 2 1 2 5 7 10 12 13 13 15 14 17 17 16 17 19 19 20 20 20 19 19 18 16 16 16 16 16 15 16 19 22 23 22 23 26 32 32 31 27 29 27
4 3 3 5 8 10 10 11 13 14 14 13 14 17 20 21 20 20 19 20 21 21 22 22 21 19 16 14 16 18 19 18 19 23 25 24 24 26 28 30 31 33 30
4 2 3 3 5 7 7 9 12 12 12 13 13 13 15 17 21 24 24 22 20 20 21 21 21 23 23 20 19 17 20 21 21 21 22 25 25 24 26 27 28 31 32
1 3 2 3 7 10 9 10 14 17 17 17 19 20 21 23 24 24 24 23 21 23 22 21 18 18 22 23 21 21 21 21 21 21 22 23 24 24 24 23 24 26 25
2 1 4 5 6 7 8 9 11 12 12 14 16 18 20 21 21 22 23 24 21 23 21 20 19 19 20 20 19 20 22 22 24 23 22 22 23 24 23 23 23 25 23
1 2 3 4 5 7 7 9 11 11 13 17 19 20 19 20 22 24 24 24 22 24 25 25 22 20 19 17 18 18 20 20 20 22 23 22 22 22 22 24 25 24 26
1 1 2 3 3 6 12 14 19 22 23 25 26 27 27 25 24 25 26 27 26 25 23 22 25 27 21 20 18 17 18 18 19 19 22 23 20 20 22 23 26 28 25
4 7 10 12 14 16 18 16 16 17 19 21 23 26 28 29 28 28 29 26 24 22 23 25 28 27 24 22 20 19 20 19 19 18 20 23 24 20 18 21 27 26 25
8 9 9 10 12 15 17 18 21 22 24 24 23 23 26 28 30 32 34 31 28 23 22 20 20 22 25 23 20 19 21 21 22 21 21 22 23 26 21 18 25 25 25
6 9 12 15 18 20 19 17 17 19 18 19 21 25 28 26 26 29 28 26 25 24 16 13 14 18 20 22 20 20 19 22 22 24 25 25 23 23 25 20 22 27 30
8 11 12 14 16 16 15 16 17 18 21 23 23 23 22 23 25 25 24 25 26 20 18 19 18 16 16 19 21 21 22 23 24 27 25 23 20 18 20 22 22 27 29
7 9 10 11 13 14 14 16 17 18 20 20 18 20 21 21 22 22 25 28 21 18 18 19 18 20 20 21 21 21 22 23 23 24 20 19 17 15 17 18 20 24 27

GFSMW_925_spd_102.txt.gz
Wind_Speed
11 20 24 25 25 27 23 20 17 18 20 20 14 14 18 22 21 25 22 20 18 19 23 26 28 27 30 27 29 30 30 28 30 24 23 28 28 25 27 27 26 27 26
6 11 20 21 25 26 24 20 20 19 23 22 18 14 13 15 19 21 20 20 17 19 23 25 26 30 30 33 30 33 26 29 31 17 8 3 11 25 31 29 30 28 25
11 10 7 17 21 17 19 19 17 17 20 21 18 13 13 10 13 16 18 18 21 24 24 29 28 28 32 35 42 38 34 26 28 33 15 3 4 3 16 33 33 30 28
9 9 6 8 11 12 12 13 13 13 14 15 15 15 13 8 12 15 18 20 19 24 30 30 32 32 33 34 32 39 38 31 22 23 34 21 5 4 2 9 24 31 27
14 7 5 4 4 8 14 15 14 12 6 6 10 10 11 13 17 19 21 23 22 23 26 30 33 34 34 34 35 33 36 34 27 25 22 29 19 13 4 3 5 16 25
7 10 15 14 16 17 13 14 15 12 9 7 4 1 5 12 16 17 18 23 26 27 29 30 33 32 31 38 40 39 37 36 33 27 30 24 17 15 7 3 4 6 12
10 9 11 14 18 19 20 16 16 16 10 9 7 6 6 8 11 15 16 17 20 24 27 28 30 35 35 31 33 33 34 35 33 33 31 33 27 24 24 13 5 5 12
9 11 11 14 17 19 20 20 18 18 15 13 13 13 16 12 8 7 3 5 8 10 15 27 29 30 33 28 29 25 26 24 23 26 24 25 29 31 27 17 9 3 5
10 10 12 16 18 20 21 21 21 23 21 18 17 17 16 18 18 16 15 14 14 14 10 10 10 11 19 29 29 28 26 26 23 19 19 20 22 22 26 24 23 14 7
10 10 11 15 19 19 22 22 23 23 21 21 19 19 18 19 20 20 20 19 18 18 18 18 14 10 11 12 13 15 28 28 30 31 25 25 26 27 31 28 26 25 24
9 9 10 15 17 18 21 22 23 20 21 17 17 20 19 18 19 22 23 21 19 19 18 17 19 17 15 12 13 14 15 20 23 28 27 27 28 26 27 28 29 28 24
9 9 12 12 15 14 15 18 20 20 16 19 23 21 20 20 21 21 21 21 20 18 18 17 17 17 17 16 15 13 13 18 21 24 25 27 27 31 28 27 28 27 26
4 6 8 11 14 17 19 21 22 20 19 18 17 17 20 23 22 21 20 21 20 20 19 19 18 19 19 18 17 18 18 17 16 14 21 26 29 30 27 27 26 27 25
2 2 0 3 4 6 8 10 9 10 10 12 16 18 19 19 19 19 20 20 20 21 21 21 20 20 20 18 19 20 20 20 20 20 19 20 18 26 26 26 28 26 25
3 2 1 1 3 4 5 8 9 11 12 13 14 16 16 17 19 20 20 19 21 21 22 22 22 22 21 20 20 21 23 23 23 21 21 21 20 21 20 22 26 26 24
4 3 3 2 1 3 4 7 10 12 13 14 16 16 17 17 18 19 21 20 20 19 20 21 21 21 21 21 20 18 22 23 24 24 24 24 23 22 22 23 24 24 26
5 4 2 2 1 2 3 6 9 10 12 14 16 17 18 21 22 22 23 24 24 23 24 23 22 22 23 22 21 20 19 22 22 23 25 26 24 25 24 24 24 24 26
5 4 3 1 1 3 4 6 9 11 13 15 17 19 20 20 19 20 21 23 23 23 23 22 20 20 23 24 23 22 22 22 23 24 24 25 26 25 24 25 25 25 26
6 6 5 2 2 5 7 8 10 10 11 11 13 14 14 15 16 18 19 19 20 21 21 21 22 22 22 23 21 21 23 23 24 23 24 26 26 25 24 23 25 27 26
7 4 1 2 3 4 5 7 7 8 9 11 12 13 14 15 18 19 22 24 25 23 21 20 19 20 24 24 21 20 20 20 20 21 23 23 25 25 24 23 23 21 25
4 2 1 1 1 2 4 5 6 6 9 11 14 16 17 20 23 25 27 27 26 27 26 24 22 21 20 19 17 17 18 20 21 20 20 22 23 24 26 27 25 26 24
4 3 2 1 1 2 4 6 7 9 12 15 18 21 24 26 27 27 27 28 27 24 24 23 22 22 23 22 17 17 17 18 18 20 22 24 25 26 25 27 28 26 25
5 3 2 1 4 6 7 7 9 12 15 17 18 20 22 24 24 26 27 27 27 24 20 16 17 19 22 19 17 17 17 16 18 20 21 25 28 27 26 24 25 27 25
5 1 2 4 6 8 8 10 11 12 15 18 20 21 21 20 21 22 22 20 20 20 18 16 16 19 21 17 23 20 17 20 21 23 24 24 25 25 24 25 23 23 27
2 3 6 8 10 11 12 12 14 15 17 19 18 19 19 19 21 21 20 21 22 20 21 20 19 16 16 21 19 23 19 19 20 25 23 23 21 22 19 21 19 21 23
1 4 6 9 11 11 13 13 13 14 15 17 16 19 17 19 19 18 21 20 19 21 21 21 22 20 18 19 20 22 22 20 22 21 17 18 18 15 17 19 20 19 20

GFSMW_925_spd_105.txt.gz
Wind_Speed
19 19 24 29 27 29 26 25 25 21 20 22 20 18 18 22 24 24 23 22 21 20 19 20 23 24 25 25 23 21 22 30 29 21 23 30 30 27 29 30 29 29 29
15 16 19 22 23 24 27 24 26 18 20 25 20 13 14 15 18 16 18 17 17 18 21 21 25 23 21 22 22 19 19 18 24 14 9 5 13 20 32 36 33 32 31
13 14 14 17 21 23 26 21 23 28 20 26 20 14 9 8 8 11 13 16 16 18 20 21 22 22 22 24 26 27 24 19 19 27 13 2 7 10 20 30 36 36 35
14 14 12 13 13 16 17 16 17 21 29 24 17 13 11 7 7 8 9 9 10 12 16 21 24 23 24 27 27 29 31 27 22 20 31 33 12 5 5 12 21 29 31
11 12 12 16 13 8 5 8 12 12 8 8 9 9 8 8 10 11 15 16 17 16 17 18 22 24 26 30 31 30 33 35 32 29 22 29 34 24 7 7 4 13 28
10 11 11 15 18 19 18 11 11 15 14 14 10 7 2 4 8 12 14 15 15 15 16 18 21 24 25 26 28 31 33 35 35 34 33 29 16 24 18 7 8 6 10
10 9 11 14 19 23 24 22 23 23 19 18 16 12 9 8 10 10 9 9 7 9 11 14 19 22 25 28 29 31 32 34 36 38 34 31 30 25 27 25 14 7 13
10 11 13 15 18 21 23 23 24 23 22 21 19 18 18 18 18 18 16 16 15 12 12 8 8 7 13 25 32 34 33 32 35 34 32 28 32 33 27 24 16 8 6
10 11 14 17 19 22 23 24 20 22 25 25 23 22 21 22 23 23 21 20 18 18 18 16 14 12 14 13 17 25 28 30 32 29 29 31 30 30 33 29 28 18 9
10 9 13 16 19 19 22 23 23 23 23 24 23 22 20 18 20 21 20 21 19 20 19 19 18 18 16 18 16 15 13 13 22 31 31 30 28 27 26 25 23 20 17
7 7 10 14 15 17 21 18 23 21 22 23 22 21 19 20 19 18 19 18 20 18 20 17 16 17 18 17 18 16 15 14 16 21 18 26 26 25 23 24 25 24 24
7 6 8 10 11 12 13 18 21 20 18 17 18 19 21 19 20 20 20 17 19 19 19 20 21 19 19 17 19 18 18 19 19 19 16 21 21 26 30 29 28 26 25
1 2 6 8 9 10 11 13 15 15 14 15 18 17 17 18 19 18 18 18 18 19 19 20 20 21 21 20 19 18 19 17 16 20 19 20 20 17 22 26 24 24 27
4 3 3 5 5 7 9 11 12 13 12 13 13 10 10 14 15 16 17 18 17 18 19 19 19 19 19 18 20 19 18 18 18 18 18 19 17 17 21 21 24 27 25
4 3 2 1 2 2 4 6 8 8 8 7 8 10 12 13 13 14 16 17 17 16 17 19 19 19 18 16 20 20 19 19 19 17 16 18 19 19 18 19 22 17 19
6 5 4 4 2 1 1 3 5 6 7 10 12 12 13 14 14 15 15 16 17 18 19 18 18 19 19 20 20 19 19 18 18 20 21 19 23 21 21 21 20 20 21
6 6 5 5 2 2 2 3 5 5 5 6 7 10 13 14 16 17 19 20 21 21 21 21 21 21 22 21 20 19 18 20 19 20 21 23 21 25 25 25 25 24 24
7 6 7 6 5 3 2 1 2 4 6 10 14 16 17 17 17 18 18 18 19 19 20 19 18 19 20 20 20 20 20 20 21 21 23 22 23 23 24 25 27 27 28
6 8 7 6 5 3 2 0 3 7 9 11 12 14 14 15 17 18 19 20 21 23 23 22 21 19 19 19 20 20 19 20 21 20 20 20 21 22 24 25 25 24 26
9 9 7 6 5 2 2 6 10 11 11 11 12 14 15 16 19 20 23 23 22 23 23 23 22 20 19 19 18 18 17 17 17 19 20 19 19 21 23 25 23 22 23
10 8 7 5 3 2 5 7 7 7 8 10 12 13 14 16 18 20 19 22 23 22 24 23 25 22 20 23 24 22 18 18 19 19 19 19 23 25 27 28 28 24 27
7 5 5 4 2 1 4 5 5 6 8 11 15 17 18 17 17 19 21 22 20 18 19 18 20 19 18 19 17 16 17 18 19 19 20 23 26 30 31 29 29 30 30
6 4 3 2 1 3 3 4 6 7 10 13 15 16 17 19 17 20 23 22 20 16 17 16 17 18 21 25 25 19 20 17 19 19 23 27 28 29 29 27 29 28 28
7 5 4 2 2 3 3 4 5 7 9 11 14 16 19 18 21 22 17 16 16 18 19 20 19 20 19 19 25 24 22 19 19 21 23 22 26 28 28 28 26 20 23
7 5 3 2 3 3 3 4 5 7 9 12 14 18 17 19 21 18 17 17 18 17 20 20 21 21 20 19 20 21 20 22 22 24 19 20 19 23 23 21 21 22 23
10 6 4 3 2 3 4 3 4 8 11 12 12 14 14 16 16 16 20 19 18 21 23 23 23 23 23 24 23 22 24 25 26 21 14 17 19 20 20 21 21 22 22

GFSMW_925_spd_108.txt.gz
Wind_Speed
21 20 23 20 19 20 21 22 19 19 18 19 17 18 21 22 24 27 22 25 29 24 23 18 16 16 22 20 22 22 20 19 19 15 20 24 27 27 23 21 20 20 19
17 21 25 19 17 19 19 18 19 20 18 20 19 13 15 18 16 14 16 20 18 18 18 16 16 16 19 19 21 19 18 19 18 13 17 9 20 25 30 30 29 26 29
16 16 22 24 18 17 16 17 19 20 20 19 17 13 10 8 10 8 10 12 14 14 14 15 17 14 17 20 22 22 21 19 18 21 16 4 8 15 21 27 28 29 29
14 15 20 21 20 19 17 16 17 15 15 15 16 15 12 10 7 5 4 4 7 9 12 14 16 17 17 18 19 21 21 21 19 15 27 27 10 2 8 23 21 23 27
15 17 18 16 19 20 12 9 9 8 12 12 12 10 11 5 3 2 5 5 8 11 11 12 15 16 17 17 19 21 23 25 26 25 16 23 23 25 11 7 7 9 19
13 14 20 18 17 18 16 14 12 14 17 17 12 7 7 6 6 6 5 5 8 9 5 8 12 15 18 17 22 23 28 26 29 29 28 26 15 20 17 12 17 16 21
12 13 16 18 16 16 21 20 20 21 23 20 18 14 13 12 13 11 10 11 9 8 8 6 7 11 17 17 20 25 28 29 30 30 31 34 34 33 29 27 19 12 28
10 11 14 16 18 18 19 19 22 24 25 24 19 18 16 19 19 17 14 14 11 11 11 11 8 10 8 6 7 13 27 31 32 33 33 33 34 36 35 30 20 11 13
9 10 14 16 17 19 21 19 19 19 21 20 20 18 19 21 18 17 16 14 13 12 13 13 12 12 13 12 12 12 15 12 24 32 34 33 37 36 36 32 25 14 9
7 8 11 13 14 16 18 21 21 20 21 23 17 16 18 18 15 15 15 14 12 12 14 14 15 15 16 14 15 16 15 17 15 16 16 24 29 30 28 28 28 28 26
5 6 9 11 12 13 15 16 18 16 16 18 16 17 19 17 13 11 13 12 11 13 15 15 16 17 16 17 17 17 18 18 20 20 21 19 19 19 29 29 30 30 27
2 3 6 7 10 12 12 13 13 13 14 13 13 16 16 15 12 12 13 11 12 15 15 15 15 14 14 14 16 16 15 17 17 20 21 22 23 20 19 21 29 27 24
4 2 2 1 2 3 5 6 9 8 9 10 9 9 11 12 14 14 13 13 13 14 14 13 13 13 14 14 14 15 16 15 14 15 16 17 19 19 20 22 21 19 28
7 6 4 2 1 2 4 5 7 8 8 8 9 10 11 10 9 10 11 13 13 13 14 14 14 15 15 13 16 17 16 17 16 15 15 15 15 17 19 20 19 19 21
9 7 6 4 3 2 2 4 5 6 6 7 7 8 7 6 7 9 11 12 12 12 13 14 14 14 14 13 16 17 17 16 17 16 15 15 16 18 17 18 19 19 18
11 9 7 7 5 3 2 1 3 3 4 5 5 6 6 7 8 9 10 11 11 11 12 13 13 14 13 14 15 16 18 18 18 18 17 17 17 16 20 19 20 19 18
11 10 9 9 7 5 4 3 1 1 2 3 4 6 7 8 9 10 11 12 13 13 14 14 15 15 16 17 19 19 18 18 18 18 19 19 18 19 18 20 20 20 20
11 10 10 9 7 5 4 3 1 1 2 3 5 6 8 10 11 12 13 14 15 15 16 16 15 15 15 15 16 18 17 17 18 18 19 19 20 19 20 22 23 21 21
11 11 9 7 5 4 2 2 2 3 4 5 7 8 10 12 13 14 15 15 15 15 15 15 15 14 15 14 14 14 15 15 15 16 18 19 19 19 23 24 23 23 23
11 11 10 8 7 6 5 5 4 4 4 5 7 9 10 12 14 14 14 13 14 15 15 16 14 14 15 13 14 16 16 17 17 17 16 16 17 20 23 25 25 26 27
11 11 11 10 8 7 5 4 3 4 5 7 9 10 11 12 12 12 12 13 14 15 15 16 16 14 13 13 14 16 17 17 20 20 20 19 20 24 24 26 26 26 28
10 10 9 9 8 6 4 3 4 4 6 7 9 10 9 9 10 11 13 12 12 14 15 16 18 16 17 16 16 18 19 19 20 20 20 21 24 28 27 28 28 30 30
10 9 9 8 5 2 3 4 4 4 6 8 9 9 9 9 9 11 13 13 12 12 14 15 16 18 19 19 19 19 18 18 18 20 21 25 26 24 26 26 28 28 24
8 7 6 5 4 3 3 4 5 6 7 9 9 9 10 11 10 11 10 11 11 12 13 16 18 20 21 22 21 21 20 18 19 19 22 24 23 23 23 26 23 21 21
8 7 5 4 3 2 3 5 5 5 7 8 9 10 10 11 13 11 11 11 12 13 19 20 21 21 21 22 25 27 26 24 24 26 25 23 20 19 21 21 21 21 22
10 8 7 5 5 5 6 6 5 5 6 9 9 10 11 10 10 13 17 13 14 17 19 18 19 21 23 24 25 26 23 24 23 24 21 17 17 19 19 20 21 20 21

GFSMW_925_spd_111.txt.gz
Wind_Speed
19 20 23 23 27 22 20 20 21 22 20 18 19 20 17 22 27 23 20 16 15 16 17 14 12 18 18 17 18 20 18 19 21 14 17 20 25 26 26 27 25 23 24
18 21 24 26 26 30 26 23 23 21 20 18 19 17 15 24 26 26 23 19 17 17 18 17 19 16 20 17 18 20 16 18 18 10 11 4 12 28 31 29 30 29 26
16 16 22 23 23 25 26 27 22 21 20 18 17 18 20 20 20 22 20 19 19 19 17 17 18 22 20 18 18 19 21 19 20 26 13 3 6 8 18 30 33 32 31
16 15 19 20 22 23 23 24 21 19 20 17 17 19 19 17 20 22 19 17 16 15 16 17 17 20 20 21 21 21 21 22 20 18 23 24 12 3 5 14 19 29 30
13 13 16 17 19 22 22 20 17 10 13 11 17 13 14 21 24 16 14 13 8 6 7 12 14 17 18 21 22 21 21 22 21 21 16 17 20 20 7 8 10 12 21
13 13 16 16 20 24 22 20 16 14 9 4 6 10 6 11 24 16 11 12 7 3 1 4 6 8 12 17 20 21 23 24 23 23 23 22 10 14 12 10 14 17 26
10 11 12 17 19 23 23 20 20 18 13 11 10 13 12 13 6 9 9 13 12 10 8 4 4 4 6 9 12 14 15 19 23 24 27 27 29 27 23 22 16 11 28
8 9 11 14 16 18 20 19 18 17 19 23 18 9 15 18 17 12 15 17 13 13 11 9 8 7 6 6 9 7 8 10 15 23 27 28 28 26 27 27 18 9 13
6 8 10 12 13 15 17 18 16 16 19 16 16 20 19 17 14 18 20 19 16 13 12 11 11 11 12 11 12 11 13 15 14 14 16 15 18 29 29 29 26 20 11
5 5 7 10 11 11 12 15 15 17 17 17 17 18 16 17 17 17 18 16 15 14 14 15 15 15 14 14 13 14 15 17 16 17 19 17 18 20 18 22 33 32 25
3 4 5 7 8 8 11 12 12 12 11 14 15 16 16 16 15 15 15 16 15 14 15 14 14 16 17 14 16 18 18 18 18 18 19 19 19 21 21 22 23 19 23
4 3 3 2 4 7 8 11 11 13 14 14 12 12 11 11 12 13 13 11 10 11 11 12 12 12 13 14 15 17 17 17 17 16 17 18 19 18 19 23 22 21 26
7 8 7 6 4 3 4 5 7 8 8 8 8 9 10 10 11 11 11 12 12 12 12 12 12 12 12 13 13 12 12 13 14 15 15 16 16 15 18 20 20 22 21
10 8 7 5 4 3 3 3 4 5 6 7 8 8 9 10 11 11 11 12 12 12 13 13 13 13 13 11 12 14 15 16 15 14 14 14 14 17 18 17 17 18 20
12 10 8 6 5 4 2 2 3 4 5 6 7 8 9 10 10 11 11 11 12 12 13 13 13 13 13 10 14 15 16 16 17 16 14 15 17 18 14 17 18 18 18
13 11 10 9 8 7 5 3 2 3 5 6 7 8 9 10 10 11 12 13 13 14 15 15 16 17 14 14 15 16 18 18 17 17 17 17 17 15 17 16 15 16 18
13 11 10 10 10 8 6 5 3 2 3 5 6 8 9 10 10 11 12 13 14 15 15 15 16 17 16 16 17 16 16 17 17 17 17 18 16 18 18 18 18 19 16
12 10 10 10 8 6 6 4 3 3 4 5 6 6 8 9 11 12 13 14 15 15 15 15 15 16 16 15 16 15 16 18 18 17 16 16 17 17 16 20 20 20 20
8 9 9 8 8 8 6 5 4 3 5 6 7 8 9 12 13 14 15 14 14 14 14 14 15 15 16 14 13 12 15 15 16 16 14 14 15 16 19 22 22 23 22
5 8 8 8 8 6 5 3 3 5 7 7 8 10 11 12 12 13 13 13 14 15 14 15 14 14 15 13 11 12 14 16 16 15 16 14 13 13 16 19 20 21 23
7 9 10 9 7 6 4 3 4 5 3 4 6 8 10 12 12 13 14 15 15 15 16 16 15 14 13 14 14 15 16 17 18 18 17 16 15 18 21 22 21 23 26
10 11 10 8 7 7 5 5 5 2 3 5 7 9 10 11 13 14 15 15 14 15 15 15 16 15 16 16 18 19 19 19 19 19 18 18 20 23 24 23 22 24 27
11 11 11 11 9 8 6 5 3 3 4 5 6 7 9 11 12 13 14 14 12 12 13 14 16 18 19 21 21 21 20 22 22 21 22 23 24 26 27 24 23 26 22
12 12 11 11 9 7 5 4 3 4 4 5 7 8 9 11 12 11 12 12 12 12 12 14 16 18 20 22 21 21 25 25 24 24 22 23 26 25 23 20 19 20 20
12 11 10 9 8 7 5 5 5 4 4 5 8 9 10 12 12 12 11 12 12 13 16 18 19 20 20 21 26 28 28 28 28 28 23 20 20 18 16 16 17 19 21
12 11 9 7 6 5 5 5 5 4 4 7 8 9 11 12 12 13 14 12 13 15 17 19 19 22 23 26 27 28 29 30 29 27 24 22 20 17 16 16 19 20 21

GFSMW_925_spd_114.txt.gz
Wind_Speed
12 20 20 24 25 23 24 28 29 27 23 25 24 23 24 27 23 25 26 23 27 25 23 22 20 16 13 18 15 12 18 19 17 17 18 23 25 28 25 27 30 31 33
8 14 18 20 22 24 26 30 31 32 28 22 22 21 23 21 23 27 29 28 28 26 25 24 20 15 16 19 17 14 18 17 13 7 4 2 7 26 31 32 35 35 32
9 12 18 22 26 26 29 30 32 31 30 26 24 25 24 24 25 26 29 36 31 31 31 25 24 20 19 18 18 15 19 16 14 20 10 2 4 4 18 30 33 34 34
9 12 16 20 23 25 26 27 28 27 25 23 24 25 22 21 23 27 30 34 37 40 26 25 15 13 13 15 19 16 19 18 18 16 25 27 10 3 3 10 20 31 32
8 12 13 16 18 22 22 22 24 24 24 21 16 14 12 4 14 19 15 21 21 9 25 14 12 8 8 11 12 16 19 23 23 23 20 20 20 19 8 9 9 17 19
8 10 13 15 16 20 21 20 22 24 20 20 17 7 7 13 11 18 23 21 16 14 15 10 6 3 1 5 10 12 14 16 20 22 24 19 7 7 10 8 12 13 27
7 6 8 12 15 17 19 18 21 23 24 21 19 16 19 18 20 15 19 21 18 18 20 15 10 6 3 3 6 5 6 10 10 11 17 21 22 21 20 19 15 9 24
6 4 6 8 10 13 15 17 17 21 20 22 20 18 16 21 13 16 21 22 14 17 16 15 14 13 11 9 7 6 7 9 9 10 9 9 8 13 23 27 21 10 11
3 3 4 5 8 10 13 13 15 16 17 19 19 21 20 16 19 21 20 18 12 14 17 18 17 17 15 14 12 11 12 12 14 12 14 16 12 13 17 17 18 12 10
2 3 3 4 3 5 7 11 11 12 15 15 18 19 18 16 17 18 17 15 16 17 18 17 18 17 15 14 13 14 13 14 13 14 15 17 18 18 17 18 19 17 15
4 4 5 5 2 2 5 8 10 11 14 14 15 14 15 16 15 16 14 13 15 18 19 17 16 15 14 14 14 14 12 12 13 14 16 16 15 17 14 18 18 15 16
5 5 9 9 6 2 2 2 5 7 8 8 11 13 12 13 15 16 17 19 19 17 17 16 16 15 13 14 12 14 13 14 16 15 15 15 18 13 18 19 17 15 13
7 7 9 12 11 7 4 2 2 2 4 5 6 9 12 13 13 13 14 14 15 16 16 15 14 15 16 15 13 15 16 17 15 15 15 15 16 17 22 17 18 16 17
10 9 8 12 16 10 5 3 1 3 4 5 7 8 10 10 10 11 12 13 13 13 14 15 14 15 15 12 14 17 16 15 15 14 14 14 15 18 19 14 17 15 16
10 8 8 6 10 11 9 5 3 0 3 5 7 10 11 13 15 15 15 15 15 16 16 17 16 16 14 11 15 16 14 16 15 15 13 14 17 14 14 17 18 18 16
9 9 7 8 6 8 8 8 4 2 1 4 5 7 10 12 13 14 16 16 17 17 17 17 17 17 16 14 14 15 18 18 18 18 18 17 15 14 14 13 14 16 18
9 9 9 11 12 11 12 9 7 3 1 1 3 5 7 9 10 12 14 15 16 17 17 17 17 18 18 15 15 15 17 19 18 20 20 20 16 13 13 14 16 16 16
8 7 9 13 15 13 11 9 7 5 3 2 3 4 5 7 9 10 10 12 14 15 16 18 18 19 19 16 15 15 16 18 20 21 22 21 19 15 15 17 20 19 17
2 10 15 15 15 13 11 9 8 6 4 5 4 5 7 9 10 10 12 13 15 16 17 17 19 18 18 17 15 14 14 18 20 20 18 17 17 12 13 16 20 22 25
3 7 13 16 17 14 13 10 8 6 4 3 6 7 8 10 11 11 13 13 14 16 17 19 18 18 18 14 13 13 14 15 17 17 18 18 17 15 14 17 20 19 24
5 8 12 12 11 15 12 9 6 4 5 7 7 8 8 8 9 11 13 16 17 18 18 17 15 15 14 15 15 16 18 19 19 18 18 19 17 17 18 20 22 21 21
7 10 12 12 13 12 10 9 7 7 6 5 6 7 7 8 9 11 13 14 16 17 17 16 17 16 16 16 18 19 18 18 18 19 21 22 22 23 22 21 21 23 20
11 11 13 15 12 11 10 9 7 6 4 5 5 7 8 10 10 12 13 15 14 15 16 16 17 19 19 20 19 19 19 21 24 22 23 25 24 23 23 25 22 21 18
15 16 14 16 14 12 10 8 7 5 4 4 5 7 9 9 12 11 13 14 14 14 16 15 16 18 21 22 21 22 23 23 23 23 25 24 24 23 24 25 26 19 19
16 17 15 14 13 13 10 9 7 6 5 6 6 7 8 9 13 13 14 15 15 14 17 17 17 19 20 21 24 27 27 27 26 29 25 21 21 22 23 24 21 20 22
16 15 14 13 13 12 10 9 8 8 7 6 5 5 8 11 13 14 16 15 14 15 16 18 19 21 22 25 26 27 27 28 28 26 22 21 19 18 19 19 20 19 19

GFSMW_925_spd_117.txt.gz
Wind_Speed
10 14 17 21 24 24 24 27 27 28 28 26 28 26 25 24 24 25 23 26 29 31 37 35 34 28 26 24 19 15 15 14 15 14 16 22 22 22 25 28 30 33 35
7 9 15 19 20 23 25 26 26 27 27 24 26 27 28 26 25 25 27 29 31 31 32 32 33 33 28 25 22 18 15 13 14 8 5 0 7 20 28 31 33 37 35
6 6 12 17 19 24 25 24 26 28 28 29 29 23 23 24 22 21 24 28 29 32 36 36 35 35 31 26 24 21 18 17 15 19 8 2 5 3 13 27 34 34 34
4 6 11 14 17 23 24 26 28 27 23 26 28 19 18 14 7 13 14 15 13 16 22 28 37 36 28 20 20 19 16 16 13 14 21 25 4 3 2 11 21 29 28
3 4 8 14 18 22 22 23 24 23 25 24 23 18 15 11 9 15 15 12 15 12 11 15 26 28 19 19 10 12 12 8 9 12 12 15 18 23 8 5 7 15 20
5 5 9 13 15 18 18 20 23 23 23 24 20 18 15 11 11 16 17 14 15 20 21 12 14 11 14 13 6 3 2 1 2 5 8 11 8 4 6 6 8 11 21
5 4 5 10 13 14 18 19 19 22 22 23 21 18 16 15 18 16 19 15 17 20 24 23 24 2 18 15 10 8 7 7 6 7 6 5 7 9 12 14 12 8 18
4 4 3 7 10 12 15 14 16 17 19 20 20 19 21 21 23 24 16 18 15 23 26 27 22 21 16 18 16 14 12 10 9 9 10 9 9 11 12 10 8 4 6
3 4 5 5 8 8 10 12 11 13 15 15 16 18 18 20 21 17 17 21 24 24 22 15 14 16 21 18 18 17 16 14 13 13 12 12 11 13 14 12 15 7 3
4 4 5 5 5 6 5 5 7 9 11 13 15 16 17 17 16 16 18 19 19 22 18 17 18 19 17 16 16 16 15 14 14 13 13 13 13 14 12 16 14 8 7
6 6 7 7 5 4 4 3 3 5 7 10 12 13 14 15 17 19 20 20 19 18 17 17 16 17 17 16 16 14 15 15 15 15 11 10 11 10 12 15 14 14 13
8 7 11 10 9 8 7 6 3 4 5 5 6 9 11 13 15 16 17 17 16 16 17 17 18 18 18 15 16 17 16 15 14 13 13 13 9 9 13 12 10 10 13
9 8 9 14 17 15 13 9 6 4 2 0 1 3 6 8 9 11 12 13 13 14 14 15 15 16 15 12 14 15 14 14 13 12 14 12 12 15 16 13 13 10 13
13 11 10 14 21 21 19 15 11 8 6 3 2 2 4 7 8 9 10 10 11 11 13 12 11 12 12 9 16 17 16 15 12 13 12 13 14 13 12 12 12 10 11
13 13 12 11 19 22 21 17 14 11 8 6 4 3 6 8 10 12 13 13 13 14 14 14 14 14 12 12 13 13 13 14 13 11 12 13 14 9 10 10 10 14 16
14 14 12 12 16 24 24 18 15 11 8 6 5 4 5 7 8 10 12 12 12 12 12 12 12 12 12 10 9 10 12 14 15 16 15 14 12 8 7 5 8 11 13
11 12 12 15 22 26 25 22 17 12 9 7 5 4 4 8 9 10 11 11 12 13 14 14 14 16 16 13 13 12 13 14 16 17 19 20 18 15 9 6 10 13 10
7 9 12 18 24 23 23 19 16 12 10 7 6 4 6 7 8 9 9 11 12 13 14 15 16 16 16 14 15 14 15 16 17 17 18 19 19 17 11 11 14 16 18
4 8 18 21 22 24 23 20 15 12 10 8 7 6 6 7 8 8 8 9 10 13 14 15 16 17 16 16 12 13 14 16 17 17 16 17 20 18 16 14 14 18 22
1 3 10 18 24 23 22 18 15 13 11 9 7 6 7 8 8 8 9 11 12 14 14 14 14 13 14 14 13 14 16 17 18 21 18 16 17 17 16 17 17 18 22
6 9 15 23 24 23 20 16 14 14 11 9 7 7 7 6 6 7 9 10 12 13 13 13 12 14 13 14 14 15 17 18 17 11 14 16 17 19 20 21 21 19 20
9 13 16 17 19 21 18 15 14 11 10 8 8 7 6 5 6 8 9 10 11 12 13 14 14 14 15 15 16 17 15 16 18 19 20 23 21 23 22 21 18 21 22
12 13 15 15 17 17 14 14 12 13 10 8 7 6 5 6 6 8 10 11 11 11 13 14 16 19 19 20 19 17 16 17 21 20 22 25 24 23 22 22 21 22 21
15 16 16 17 16 15 13 12 12 12 9 8 6 5 6 6 6 8 8 10 11 12 14 15 15 18 18 19 20 19 18 19 21 22 24 22 24 24 24 24 24 22 20
17 20 21 20 19 17 14 13 12 10 8 7 6 6 6 6 9 8 9 10 11 12 16 16 17 17 16 17 21 22 22 23 22 27 22 21 19 20 21 22 22 22 19
18 20 19 19 18 18 16 14 12 11 9 9 7 5 6 8 9 11 12 11 10 11 14 16 18 19 18 21 23 21 23 24 25 23 17 17 15 18 19 18 17 15 16